﻿<?xml version="1.0" encoding="utf-8"?><gpx creator="Garmin Desktop App" version="1.1" xsi:schemaLocation="http://www.topografix.com/GPX/1/1 http://www.topografix.com/GPX/1/1/gpx.xsd http://www.garmin.com/xmlschemas/WaypointExtension/v1 http://www8.garmin.com/xmlschemas/WaypointExtensionv1.xsd http://www.garmin.com/xmlschemas/TrackPointExtension/v1 http://www.garmin.com/xmlschemas/TrackPointExtensionv1.xsd http://www.garmin.com/xmlschemas/GpxExtensions/v3 http://www8.garmin.com/xmlschemas/GpxExtensionsv3.xsd http://www.garmin.com/xmlschemas/ActivityExtension/v1 http://www8.garmin.com/xmlschemas/ActivityExtensionv1.xsd http://www.garmin.com/xmlschemas/AdventuresExtensions/v1 http://www8.garmin.com/xmlschemas/AdventuresExtensionv1.xsd http://www.garmin.com/xmlschemas/PressureExtension/v1 http://www.garmin.com/xmlschemas/PressureExtensionv1.xsd http://www.garmin.com/xmlschemas/TripExtensions/v1 http://www.garmin.com/xmlschemas/TripExtensionsv1.xsd http://www.garmin.com/xmlschemas/TripMetaDataExtensions/v1 http://www.garmin.com/xmlschemas/TripMetaDataExtensionsv1.xsd http://www.garmin.com/xmlschemas/ViaPointTransportationModeExtensions/v1 http://www.garmin.com/xmlschemas/ViaPointTransportationModeExtensionsv1.xsd http://www.garmin.com/xmlschemas/CreationTimeExtension/v1 http://www.garmin.com/xmlschemas/CreationTimeExtensionsv1.xsd http://www.garmin.com/xmlschemas/AccelerationExtension/v1 http://www.garmin.com/xmlschemas/AccelerationExtensionv1.xsd http://www.garmin.com/xmlschemas/PowerExtension/v1 http://www.garmin.com/xmlschemas/PowerExtensionv1.xsd http://www.garmin.com/xmlschemas/VideoExtension/v1 http://www.garmin.com/xmlschemas/VideoExtensionv1.xsd" xmlns="http://www.topografix.com/GPX/1/1" xmlns:xsi="http://www.w3.org/2001/XMLSchema-instance" xmlns:wptx1="http://www.garmin.com/xmlschemas/WaypointExtension/v1" xmlns:gpxtrx="http://www.garmin.com/xmlschemas/GpxExtensions/v3" xmlns:gpxtpx="http://www.garmin.com/xmlschemas/TrackPointExtension/v1" xmlns:gpxx="http://www.garmin.com/xmlschemas/GpxExtensions/v3" xmlns:trp="http://www.garmin.com/xmlschemas/TripExtensions/v1" xmlns:adv="http://www.garmin.com/xmlschemas/AdventuresExtensions/v1" xmlns:prs="http://www.garmin.com/xmlschemas/PressureExtension/v1" xmlns:tmd="http://www.garmin.com/xmlschemas/TripMetaDataExtensions/v1" xmlns:vptm="http://www.garmin.com/xmlschemas/ViaPointTransportationModeExtensions/v1" xmlns:ctx="http://www.garmin.com/xmlschemas/CreationTimeExtension/v1" xmlns:gpxacc="http://www.garmin.com/xmlschemas/AccelerationExtension/v1" xmlns:gpxpx="http://www.garmin.com/xmlschemas/PowerExtension/v1" xmlns:vidx1="http://www.garmin.com/xmlschemas/VideoExtension/v1">

  <metadata>
    <link href="http://www.garmin.com">
      <text>Garmin International</text>
    </link>
    <time>2015-01-12T13:08:42Z</time>
    <bounds maxlat="45.890474449843168" maxlon="7.747093448415399" minlat="45.862356936559081" minlon="7.728651920333505" />
  </metadata>

  <trk>
    <name>lago blu2015-01-11</name>
    <extensions>
      <gpxx:TrackExtension>
        <gpxx:DisplayColor>Yellow</gpxx:DisplayColor>
      </gpxx:TrackExtension>
      <gpxtrkx:TrackStatsExtension xmlns:gpxtrkx="http://www.garmin.com/xmlschemas/TrackStatsExtension/v1">
        <gpxtrkx:Distance>11578</gpxtrkx:Distance>
        <gpxtrkx:TotalElapsedTime>19048</gpxtrkx:TotalElapsedTime>
        <gpxtrkx:MovingTime>12975</gpxtrkx:MovingTime>
        <gpxtrkx:StoppedTime>5981</gpxtrkx:StoppedTime>
        <gpxtrkx:MovingSpeed>1</gpxtrkx:MovingSpeed>
        <gpxtrkx:MaxSpeed>2</gpxtrkx:MaxSpeed>
        <gpxtrkx:MaxElevation>2281</gpxtrkx:MaxElevation>
        <gpxtrkx:MinElevation>1701</gpxtrkx:MinElevation>
        <gpxtrkx:Ascent>784</gpxtrkx:Ascent>
        <gpxtrkx:Descent>775</gpxtrkx:Descent>
        <gpxtrkx:AvgAscentRate>0</gpxtrkx:AvgAscentRate>
        <gpxtrkx:MaxAscentRate>1</gpxtrkx:MaxAscentRate>
        <gpxtrkx:AvgDescentRate>0</gpxtrkx:AvgDescentRate>
        <gpxtrkx:MaxDescentRate>-1</gpxtrkx:MaxDescentRate>
      </gpxtrkx:TrackStatsExtension>
    </extensions>
    <trkseg>
      <trkpt lat="45.862594898790121" lon="7.73057104088366">
        <ele>1704.55</ele>
        <time>2015-01-11T08:18:32Z</time>
      </trkpt>
      <trkpt lat="45.862594647333026" lon="7.730571208521724">
        <ele>1704.55</ele>
        <time>2015-01-11T08:18:33Z</time>
      </trkpt>
      <trkpt lat="45.862561371177435" lon="7.730622757226229">
        <ele>1704.0699999999999</ele>
        <time>2015-01-11T08:18:59Z</time>
      </trkpt>
      <trkpt lat="45.862556761130691" lon="7.7306018024683">
        <ele>1703.5899999999999</ele>
        <time>2015-01-11T08:19:16Z</time>
      </trkpt>
      <trkpt lat="45.862504541873932" lon="7.730597611516714">
        <ele>1704.0699999999999</ele>
        <time>2015-01-11T08:19:37Z</time>
      </trkpt>
      <trkpt lat="45.862512169405818" lon="7.730551259592176">
        <ele>1703.1099999999999</ele>
        <time>2015-01-11T08:19:59Z</time>
      </trkpt>
      <trkpt lat="45.86252985522151" lon="7.730552097782493">
        <ele>1703.1099999999999</ele>
        <time>2015-01-11T08:20:24Z</time>
      </trkpt>
      <trkpt lat="45.862493310123682" lon="7.730603227391839">
        <ele>1703.1099999999999</ele>
        <time>2015-01-11T08:20:42Z</time>
      </trkpt>
      <trkpt lat="45.862441342324018" lon="7.730594594031572">
        <ele>1702.6300000000001</ele>
        <time>2015-01-11T08:20:59Z</time>
      </trkpt>
      <trkpt lat="45.862409574910998" lon="7.730548409745097">
        <ele>1702.1500000000001</ele>
        <time>2015-01-11T08:21:19Z</time>
      </trkpt>
      <trkpt lat="45.862356936559081" lon="7.730534831061959">
        <ele>1702.1500000000001</ele>
        <time>2015-01-11T08:21:48Z</time>
      </trkpt>
      <trkpt lat="45.862434636801481" lon="7.730613788589835">
        <ele>1703.1099999999999</ele>
        <time>2015-01-11T08:22:02Z</time>
      </trkpt>
      <trkpt lat="45.862495405599475" lon="7.730641532689333">
        <ele>1702.6300000000001</ele>
        <time>2015-01-11T08:22:19Z</time>
      </trkpt>
      <trkpt lat="45.862499345093966" lon="7.730647483840585">
        <ele>1702.6300000000001</ele>
        <time>2015-01-11T08:22:44Z</time>
      </trkpt>
      <trkpt lat="45.862505212426186" lon="7.730591828003526">
        <ele>1702.6300000000001</ele>
        <time>2015-01-11T08:23:14Z</time>
      </trkpt>
      <trkpt lat="45.862442767247558" lon="7.730662487447262">
        <ele>1702.6300000000001</ele>
        <time>2015-01-11T08:23:44Z</time>
      </trkpt>
      <trkpt lat="45.862552905455232" lon="7.730517229065299">
        <ele>1706</ele>
        <time>2015-01-11T08:24:00Z</time>
      </trkpt>
      <trkpt lat="45.862547373399138" lon="7.730517564341426">
        <ele>1703.1099999999999</ele>
        <time>2015-01-11T08:24:02Z</time>
      </trkpt>
      <trkpt lat="45.862548546865582" lon="7.730581182986498">
        <ele>1703.1099999999999</ele>
        <time>2015-01-11T08:24:27Z</time>
      </trkpt>
      <trkpt lat="45.862535638734698" lon="7.730583529919386">
        <ele>1700.71</ele>
        <time>2015-01-11T08:24:29Z</time>
      </trkpt>
      <trkpt lat="45.862508649006486" lon="7.73061647079885">
        <ele>1704.55</ele>
        <time>2015-01-11T08:24:39Z</time>
      </trkpt>
      <trkpt lat="45.862506218254566" lon="7.730604568496347">
        <ele>1703.5899999999999</ele>
        <time>2015-01-11T08:25:00Z</time>
      </trkpt>
      <trkpt lat="45.862517869099975" lon="7.730640945956111">
        <ele>1703.5899999999999</ele>
        <time>2015-01-11T08:25:25Z</time>
      </trkpt>
      <trkpt lat="45.862556090578437" lon="7.730691907927394">
        <ele>1703.1099999999999</ele>
        <time>2015-01-11T08:25:29Z</time>
      </trkpt>
      <trkpt lat="45.862612752243876" lon="7.730759968981147">
        <ele>1703.5899999999999</ele>
        <time>2015-01-11T08:25:38Z</time>
      </trkpt>
      <trkpt lat="45.862618954852223" lon="7.730725603178144">
        <ele>1703.5899999999999</ele>
        <time>2015-01-11T08:25:41Z</time>
      </trkpt>
      <trkpt lat="45.862576626241207" lon="7.730674725025892">
        <ele>1704.0699999999999</ele>
        <time>2015-01-11T08:25:45Z</time>
      </trkpt>
      <trkpt lat="45.862566316500306" lon="7.73064186796546">
        <ele>1704.0699999999999</ele>
        <time>2015-01-11T08:25:47Z</time>
      </trkpt>
      <trkpt lat="45.862562041729689" lon="7.73055830039084">
        <ele>1703.5899999999999</ele>
        <time>2015-01-11T08:25:57Z</time>
      </trkpt>
      <trkpt lat="45.862532202154398" lon="7.730576740577817">
        <ele>1703.5899999999999</ele>
        <time>2015-01-11T08:26:16Z</time>
      </trkpt>
      <trkpt lat="45.862549552693963" lon="7.730551846325398">
        <ele>1703.5899999999999</ele>
        <time>2015-01-11T08:26:37Z</time>
      </trkpt>
      <trkpt lat="45.862577380612493" lon="7.730548409745097">
        <ele>1704.0699999999999</ele>
        <time>2015-01-11T08:26:43Z</time>
      </trkpt>
      <trkpt lat="45.862678466364741" lon="7.730432990938425">
        <ele>1704.0699999999999</ele>
        <time>2015-01-11T08:26:59Z</time>
      </trkpt>
      <trkpt lat="45.862763291224837" lon="7.730436008423567">
        <ele>1704.0699999999999</ele>
        <time>2015-01-11T08:27:11Z</time>
      </trkpt>
      <trkpt lat="45.862834453582764" lon="7.730388902127743">
        <ele>1704.55</ele>
        <time>2015-01-11T08:27:20Z</time>
      </trkpt>
      <trkpt lat="45.862884577363729" lon="7.730331737548113">
        <ele>1705.52</ele>
        <time>2015-01-11T08:27:35Z</time>
      </trkpt>
      <trkpt lat="45.862904945388436" lon="7.730287481099367">
        <ele>1705.52</ele>
        <time>2015-01-11T08:27:38Z</time>
      </trkpt>
      <trkpt lat="45.862949956208467" lon="7.730212965980172">
        <ele>1706</ele>
        <time>2015-01-11T08:27:53Z</time>
      </trkpt>
      <trkpt lat="45.862965798005462" lon="7.730238949880004">
        <ele>1705.52</ele>
        <time>2015-01-11T08:28:09Z</time>
      </trkpt>
      <trkpt lat="45.862935036420822" lon="7.730268957093358">
        <ele>1705.04</ele>
        <time>2015-01-11T08:28:22Z</time>
      </trkpt>
      <trkpt lat="45.862789526581764" lon="7.73044346831739">
        <ele>1703.5899999999999</ele>
        <time>2015-01-11T08:28:40Z</time>
      </trkpt>
      <trkpt lat="45.862746611237526" lon="7.730480264872313">
        <ele>1702.6300000000001</ele>
        <time>2015-01-11T08:28:54Z</time>
      </trkpt>
      <trkpt lat="45.862710317596793" lon="7.730493927374482">
        <ele>1702.6300000000001</ele>
        <time>2015-01-11T08:29:05Z</time>
      </trkpt>
      <trkpt lat="45.862699588760734" lon="7.730508092790842">
        <ele>1702.6300000000001</ele>
        <time>2015-01-11T08:29:24Z</time>
      </trkpt>
      <trkpt lat="45.862705372273922" lon="7.730490239337087">
        <ele>1702.6300000000001</ele>
        <time>2015-01-11T08:29:34Z</time>
      </trkpt>
      <trkpt lat="45.862692464143038" lon="7.730491245165467">
        <ele>1702.6300000000001</ele>
        <time>2015-01-11T08:29:39Z</time>
      </trkpt>
      <trkpt lat="45.862566567957401" lon="7.730519575998187">
        <ele>1701.6700000000001</ele>
        <time>2015-01-11T08:29:51Z</time>
      </trkpt>
      <trkpt lat="45.862527675926685" lon="7.730541452765465">
        <ele>1702.1500000000001</ele>
        <time>2015-01-11T08:30:05Z</time>
      </trkpt>
      <trkpt lat="45.862538069486618" lon="7.730542626231909">
        <ele>1701.6700000000001</ele>
        <time>2015-01-11T08:30:19Z</time>
      </trkpt>
      <trkpt lat="45.862566735595465" lon="7.730540949851275">
        <ele>1701.6700000000001</ele>
        <time>2015-01-11T08:30:33Z</time>
      </trkpt>
      <trkpt lat="45.862597497180104" lon="7.730512283742428">
        <ele>1701.6700000000001</ele>
        <time>2015-01-11T08:30:47Z</time>
      </trkpt>
      <trkpt lat="45.862525831907988" lon="7.73057104088366">
        <ele>1701.6700000000001</ele>
        <time>2015-01-11T08:30:58Z</time>
      </trkpt>
      <trkpt lat="45.862514432519674" lon="7.730574561282992">
        <ele>1701.6700000000001</ele>
        <time>2015-01-11T08:31:12Z</time>
      </trkpt>
      <trkpt lat="45.862496243789792" lon="7.730585793033242">
        <ele>1701.6700000000001</ele>
        <time>2015-01-11T08:31:15Z</time>
      </trkpt>
      <trkpt lat="45.86247562430799" lon="7.730586379766464">
        <ele>1701.6700000000001</ele>
        <time>2015-01-11T08:31:17Z</time>
      </trkpt>
      <trkpt lat="45.862499177455902" lon="7.7305724658072">
        <ele>1702.1500000000001</ele>
        <time>2015-01-11T08:31:20Z</time>
      </trkpt>
      <trkpt lat="45.862538572400808" lon="7.730523515492678">
        <ele>1702.1500000000001</ele>
        <time>2015-01-11T08:31:24Z</time>
      </trkpt>
      <trkpt lat="45.862582661211491" lon="7.730471212416887">
        <ele>1702.1500000000001</ele>
        <time>2015-01-11T08:31:28Z</time>
      </trkpt>
      <trkpt lat="45.862731356173754" lon="7.730422094464302">
        <ele>1703.1099999999999</ele>
        <time>2015-01-11T08:31:42Z</time>
      </trkpt>
      <trkpt lat="45.862829759716988" lon="7.730348082259297">
        <ele>1704.0699999999999</ele>
        <time>2015-01-11T08:31:52Z</time>
      </trkpt>
      <trkpt lat="45.8629534766078" lon="7.730274153873324">
        <ele>1705.04</ele>
        <time>2015-01-11T08:32:05Z</time>
      </trkpt>
      <trkpt lat="45.8630346134305" lon="7.730251271277666">
        <ele>1705.52</ele>
        <time>2015-01-11T08:32:12Z</time>
      </trkpt>
      <trkpt lat="45.863131172955036" lon="7.730347579345107">
        <ele>1706.48</ele>
        <time>2015-01-11T08:32:25Z</time>
      </trkpt>
      <trkpt lat="45.863221781328321" lon="7.730436427518725">
        <ele>1707.4400000000001</ele>
        <time>2015-01-11T08:32:36Z</time>
      </trkpt>
      <trkpt lat="45.863329907879233" lon="7.730538938194513">
        <ele>1707.9200000000001</ele>
        <time>2015-01-11T08:32:47Z</time>
      </trkpt>
      <trkpt lat="45.86347877047956" lon="7.730621080845594">
        <ele>1709.3599999999999</ele>
        <time>2015-01-11T08:33:01Z</time>
      </trkpt>
      <trkpt lat="45.863528558984399" lon="7.730617560446262">
        <ele>1709.8399999999999</ele>
        <time>2015-01-11T08:33:07Z</time>
      </trkpt>
      <trkpt lat="45.863569378852844" lon="7.730596521869302">
        <ele>1709.8399999999999</ele>
        <time>2015-01-11T08:33:11Z</time>
      </trkpt>
      <trkpt lat="45.863700052723289" lon="7.730500465258956">
        <ele>1710.3199999999999</ele>
        <time>2015-01-11T08:33:25Z</time>
      </trkpt>
      <trkpt lat="45.863769119605422" lon="7.730438690632582">
        <ele>1710.3199999999999</ele>
        <time>2015-01-11T08:33:33Z</time>
      </trkpt>
      <trkpt lat="45.863855285570025" lon="7.730385381728411">
        <ele>1711.28</ele>
        <time>2015-01-11T08:33:43Z</time>
      </trkpt>
      <trkpt lat="45.864031389355659" lon="7.730403151363134">
        <ele>1713.6900000000001</ele>
        <time>2015-01-11T08:34:01Z</time>
      </trkpt>
      <trkpt lat="45.864183520898223" lon="7.730411281809211">
        <ele>1715.1300000000001</ele>
        <time>2015-01-11T08:34:16Z</time>
      </trkpt>
      <trkpt lat="45.864306818693876" lon="7.730424525216222">
        <ele>1717.05</ele>
        <time>2015-01-11T08:34:28Z</time>
      </trkpt>
      <trkpt lat="45.864418214187026" lon="7.73044740781188">
        <ele>1718.49</ele>
        <time>2015-01-11T08:34:40Z</time>
      </trkpt>
      <trkpt lat="45.864518042653799" lon="7.730440702289343">
        <ele>1720.4200000000001</ele>
        <time>2015-01-11T08:34:51Z</time>
      </trkpt>
      <trkpt lat="45.864628264680505" lon="7.730398122221232">
        <ele>1721.3800000000001</ele>
        <time>2015-01-11T08:35:04Z</time>
      </trkpt>
      <trkpt lat="45.864637400954962" lon="7.730388399213553">
        <ele>1721.3800000000001</ele>
        <time>2015-01-11T08:35:05Z</time>
      </trkpt>
      <trkpt lat="45.864721303805709" lon="7.730292174965143">
        <ele>1722.8199999999999</ele>
        <time>2015-01-11T08:35:17Z</time>
      </trkpt>
      <trkpt lat="45.864792801439762" lon="7.730213133618236">
        <ele>1724.26</ele>
        <time>2015-01-11T08:35:28Z</time>
      </trkpt>
      <trkpt lat="45.864823060110211" lon="7.730162758380175">
        <ele>1725.22</ele>
        <time>2015-01-11T08:35:34Z</time>
      </trkpt>
      <trkpt lat="45.864842003211379" lon="7.730152532458305">
        <ele>1725.7</ele>
        <time>2015-01-11T08:35:36Z</time>
      </trkpt>
      <trkpt lat="45.864921296015382" lon="7.730059577152133">
        <ele>1727.6300000000001</ele>
        <time>2015-01-11T08:35:48Z</time>
      </trkpt>
      <trkpt lat="45.864974772557616" lon="7.729963604360819">
        <ele>1729.55</ele>
        <time>2015-01-11T08:35:59Z</time>
      </trkpt>
      <trkpt lat="45.864991620182991" lon="7.72993627935648">
        <ele>1730.03</ele>
        <time>2015-01-11T08:36:02Z</time>
      </trkpt>
      <trkpt lat="45.865008886903524" lon="7.729920269921422">
        <ele>1730.51</ele>
        <time>2015-01-11T08:36:05Z</time>
      </trkpt>
      <trkpt lat="45.865029590204358" lon="7.729891771450639">
        <ele>1730.99</ele>
        <time>2015-01-11T08:36:08Z</time>
      </trkpt>
      <trkpt lat="45.865089520812035" lon="7.729750787839294">
        <ele>1733.3900000000001</ele>
        <time>2015-01-11T08:36:22Z</time>
      </trkpt>
      <trkpt lat="45.865112235769629" lon="7.729710638523102">
        <ele>1733.8800000000001</ele>
        <time>2015-01-11T08:36:26Z</time>
      </trkpt>
      <trkpt lat="45.865169735625386" lon="7.729612989351153">
        <ele>1735.8</ele>
        <time>2015-01-11T08:36:36Z</time>
      </trkpt>
      <trkpt lat="45.865196473896503" lon="7.729584407061338">
        <ele>1736.76</ele>
        <time>2015-01-11T08:36:40Z</time>
      </trkpt>
      <trkpt lat="45.865265456959605" lon="7.729501510038972">
        <ele>1738.2</ele>
        <time>2015-01-11T08:36:50Z</time>
      </trkpt>
      <trkpt lat="45.86532530374825" lon="7.729448368772864">
        <ele>1739.6400000000001</ele>
        <time>2015-01-11T08:36:58Z</time>
      </trkpt>
      <trkpt lat="45.865357993170619" lon="7.729425821453333">
        <ele>1740.1199999999999</ele>
        <time>2015-01-11T08:37:02Z</time>
      </trkpt>
      <trkpt lat="45.865451283752918" lon="7.729344265535474">
        <ele>1741.0799999999999</ele>
        <time>2015-01-11T08:37:13Z</time>
      </trkpt>
      <trkpt lat="45.865481961518526" lon="7.729306044057012">
        <ele>1741.5699999999999</ele>
        <time>2015-01-11T08:37:18Z</time>
      </trkpt>
      <trkpt lat="45.86551389656961" lon="7.729261452332139">
        <ele>1741.5699999999999</ele>
        <time>2015-01-11T08:37:23Z</time>
      </trkpt>
      <trkpt lat="45.865617832168937" lon="7.729193475097418">
        <ele>1743.01</ele>
        <time>2015-01-11T08:37:36Z</time>
      </trkpt>
      <trkpt lat="45.865711038932204" lon="7.729089623317123">
        <ele>1743.97</ele>
        <time>2015-01-11T08:37:48Z</time>
      </trkpt>
      <trkpt lat="45.865724114701152" lon="7.72907042875886">
        <ele>1744.45</ele>
        <time>2015-01-11T08:37:50Z</time>
      </trkpt>
      <trkpt lat="45.865854788571596" lon="7.729096999391913">
        <ele>1745.4100000000001</ele>
        <time>2015-01-11T08:38:03Z</time>
      </trkpt>
      <trkpt lat="45.865965345874429" lon="7.729099513962865">
        <ele>1746.3699999999999</ele>
        <time>2015-01-11T08:38:14Z</time>
      </trkpt>
      <trkpt lat="45.866061737760901" lon="7.729073949158192">
        <ele>1746.8499999999999</ele>
        <time>2015-01-11T08:38:22Z</time>
      </trkpt>
      <trkpt lat="45.866081351414323" lon="7.729073613882065">
        <ele>1746.8499999999999</ele>
        <time>2015-01-11T08:38:24Z</time>
      </trkpt>
      <trkpt lat="45.866099540144205" lon="7.729060454294086">
        <ele>1746.8499999999999</ele>
        <time>2015-01-11T08:38:26Z</time>
      </trkpt>
      <trkpt lat="45.866147987544537" lon="7.729044361039996">
        <ele>1746.8499999999999</ele>
        <time>2015-01-11T08:38:31Z</time>
      </trkpt>
      <trkpt lat="45.866274386644363" lon="7.728997506201267">
        <ele>1747.3299999999999</ele>
        <time>2015-01-11T08:38:44Z</time>
      </trkpt>
      <trkpt lat="45.866381507366896" lon="7.728929109871388">
        <ele>1747.8099999999999</ele>
        <time>2015-01-11T08:38:55Z</time>
      </trkpt>
      <trkpt lat="45.866412688046694" lon="7.728881165385246">
        <ele>1748.29</ele>
        <time>2015-01-11T08:39:00Z</time>
      </trkpt>
      <trkpt lat="45.866489131003618" lon="7.728767842054367">
        <ele>1748.29</ele>
        <time>2015-01-11T08:39:12Z</time>
      </trkpt>
      <trkpt lat="45.866581248119473" lon="7.728766920045018">
        <ele>1751.1800000000001</ele>
        <time>2015-01-11T08:39:26Z</time>
      </trkpt>
      <trkpt lat="45.866619804874063" lon="7.728694919496775">
        <ele>1753.0999999999999</ele>
        <time>2015-01-11T08:39:40Z</time>
      </trkpt>
      <trkpt lat="45.86674134247005" lon="7.728753676638007">
        <ele>1754.54</ele>
        <time>2015-01-11T08:39:55Z</time>
      </trkpt>
      <trkpt lat="45.866841673851013" lon="7.728740181773901">
        <ele>1756.95</ele>
        <time>2015-01-11T08:40:11Z</time>
      </trkpt>
      <trkpt lat="45.866936556994915" lon="7.728758454322815">
        <ele>1759.3499999999999</ele>
        <time>2015-01-11T08:40:27Z</time>
      </trkpt>
      <trkpt lat="45.867022722959518" lon="7.728782929480076">
        <ele>1762.23</ele>
        <time>2015-01-11T08:40:41Z</time>
      </trkpt>
      <trkpt lat="45.867096483707428" lon="7.728792736306787">
        <ele>1764.6400000000001</ele>
        <time>2015-01-11T08:40:54Z</time>
      </trkpt>
      <trkpt lat="45.867141578346491" lon="7.728729620575905">
        <ele>1767.52</ele>
        <time>2015-01-11T08:41:09Z</time>
      </trkpt>
      <trkpt lat="45.867206119000912" lon="7.728689052164555">
        <ele>1770.4100000000001</ele>
        <time>2015-01-11T08:41:24Z</time>
      </trkpt>
      <trkpt lat="45.867271162569523" lon="7.728701205924153">
        <ele>1772.8099999999999</ele>
        <time>2015-01-11T08:41:35Z</time>
      </trkpt>
      <trkpt lat="45.867353891953826" lon="7.728706067427993">
        <ele>1775.21</ele>
        <time>2015-01-11T08:41:49Z</time>
      </trkpt>
      <trkpt lat="45.867386749014258" lon="7.728651920333505">
        <ele>1778.0999999999999</ele>
        <time>2015-01-11T08:42:03Z</time>
      </trkpt>
      <trkpt lat="45.86745472624898" lon="7.728695841506124">
        <ele>1780.02</ele>
        <time>2015-01-11T08:42:14Z</time>
      </trkpt>
      <trkpt lat="45.86746352724731" lon="7.728697266429663">
        <ele>1779.54</ele>
        <time>2015-01-11T08:42:15Z</time>
      </trkpt>
      <trkpt lat="45.86753536015749" lon="7.728828610852361">
        <ele>1781.9400000000001</ele>
        <time>2015-01-11T08:42:33Z</time>
      </trkpt>
      <trkpt lat="45.867572156712413" lon="7.728945957496762">
        <ele>1784.8199999999999</ele>
        <time>2015-01-11T08:42:47Z</time>
      </trkpt>
      <trkpt lat="45.867622029036283" lon="7.729064729064703">
        <ele>1786.27</ele>
        <time>2015-01-11T08:43:03Z</time>
      </trkpt>
      <trkpt lat="45.867633009329438" lon="7.729188278317452">
        <ele>1788.6700000000001</ele>
        <time>2015-01-11T08:43:18Z</time>
      </trkpt>
      <trkpt lat="45.867658238857985" lon="7.729283329099417">
        <ele>1790.5899999999999</ele>
        <time>2015-01-11T08:43:30Z</time>
      </trkpt>
      <trkpt lat="45.867688246071339" lon="7.729365723207593">
        <ele>1792.52</ele>
        <time>2015-01-11T08:43:43Z</time>
      </trkpt>
      <trkpt lat="45.867746332660317" lon="7.729399167001247">
        <ele>1795.4000000000001</ele>
        <time>2015-01-11T08:43:59Z</time>
      </trkpt>
      <trkpt lat="45.867818500846624" lon="7.729435544461012">
        <ele>1798.28</ele>
        <time>2015-01-11T08:44:14Z</time>
      </trkpt>
      <trkpt lat="45.867891758680344" lon="7.729431353509426">
        <ele>1800.21</ele>
        <time>2015-01-11T08:44:26Z</time>
      </trkpt>
      <trkpt lat="45.867951605468988" lon="7.72941785864532">
        <ele>1802.6099999999999</ele>
        <time>2015-01-11T08:44:41Z</time>
      </trkpt>
      <trkpt lat="45.868018744513392" lon="7.729419954121113">
        <ele>1804.53</ele>
        <time>2015-01-11T08:44:54Z</time>
      </trkpt>
      <trkpt lat="45.868064761161804" lon="7.729399921372533">
        <ele>1806.45</ele>
        <time>2015-01-11T08:45:05Z</time>
      </trkpt>
      <trkpt lat="45.868126954883337" lon="7.729349378496409">
        <ele>1808.3800000000001</ele>
        <time>2015-01-11T08:45:17Z</time>
      </trkpt>
      <trkpt lat="45.868126787245274" lon="7.729347534477711">
        <ele>1808.8599999999999</ele>
        <time>2015-01-11T08:45:18Z</time>
      </trkpt>
      <trkpt lat="45.868141120299697" lon="7.729349797591567">
        <ele>1807.4200000000001</ele>
        <time>2015-01-11T08:45:21Z</time>
      </trkpt>
      <trkpt lat="45.868218233808875" lon="7.729419283568859">
        <ele>1806.9400000000001</ele>
        <time>2015-01-11T08:45:45Z</time>
      </trkpt>
      <trkpt lat="45.868126703426242" lon="7.729448536410928">
        <ele>1806.9400000000001</ele>
        <time>2015-01-11T08:46:08Z</time>
      </trkpt>
      <trkpt lat="45.868113627657294" lon="7.729344433173537">
        <ele>1806.45</ele>
        <time>2015-01-11T08:46:29Z</time>
      </trkpt>
      <trkpt lat="45.868112705647945" lon="7.729363879188895">
        <ele>1807.4200000000001</ele>
        <time>2015-01-11T08:46:42Z</time>
      </trkpt>
      <trkpt lat="45.868132822215557" lon="7.729308055713773">
        <ele>1808.3800000000001</ele>
        <time>2015-01-11T08:46:54Z</time>
      </trkpt>
      <trkpt lat="45.868164589628577" lon="7.729401011019945">
        <ele>1809.8199999999999</ele>
        <time>2015-01-11T08:47:05Z</time>
      </trkpt>
      <trkpt lat="45.868194261565804" lon="7.729487847536802">
        <ele>1811.26</ele>
        <time>2015-01-11T08:47:18Z</time>
      </trkpt>
      <trkpt lat="45.868211360648274" lon="7.729527913033962">
        <ele>1811.74</ele>
        <time>2015-01-11T08:47:23Z</time>
      </trkpt>
      <trkpt lat="45.868261987343431" lon="7.729626232758164">
        <ele>1814.1500000000001</ele>
        <time>2015-01-11T08:47:37Z</time>
      </trkpt>
      <trkpt lat="45.868277912959456" lon="7.729682978242636">
        <ele>1816.0699999999999</ele>
        <time>2015-01-11T08:47:49Z</time>
      </trkpt>
      <trkpt lat="45.868293084204197" lon="7.729726815596223">
        <ele>1817.99</ele>
        <time>2015-01-11T08:48:01Z</time>
      </trkpt>
      <trkpt lat="45.868313033133745" lon="7.729826560243964">
        <ele>1820.8699999999999</ele>
        <time>2015-01-11T08:48:14Z</time>
      </trkpt>
      <trkpt lat="45.868350332602859" lon="7.729717176407576">
        <ele>1821.8399999999999</ele>
        <time>2015-01-11T08:48:27Z</time>
      </trkpt>
      <trkpt lat="45.868431385606527" lon="7.729725055396557">
        <ele>1823.76</ele>
        <time>2015-01-11T08:48:39Z</time>
      </trkpt>
      <trkpt lat="45.868478491902351" lon="7.729689767584205">
        <ele>1825.6800000000001</ele>
        <time>2015-01-11T08:48:53Z</time>
      </trkpt>
      <trkpt lat="45.868489975109696" lon="7.729594800621271">
        <ele>1827.1199999999999</ele>
        <time>2015-01-11T08:49:08Z</time>
      </trkpt>
      <trkpt lat="45.868566418066621" lon="7.729611732065678">
        <ele>1829.05</ele>
        <time>2015-01-11T08:49:20Z</time>
      </trkpt>
      <trkpt lat="45.868599442765117" lon="7.729731928557158">
        <ele>1830.97</ele>
        <time>2015-01-11T08:49:33Z</time>
      </trkpt>
      <trkpt lat="45.868631293997169" lon="7.729850532487035">
        <ele>1832.8900000000001</ele>
        <time>2015-01-11T08:49:46Z</time>
      </trkpt>
      <trkpt lat="45.868622157722712" lon="7.72993627935648">
        <ele>1834.8099999999999</ele>
        <time>2015-01-11T08:49:59Z</time>
      </trkpt>
      <trkpt lat="45.86860841140151" lon="7.730088327080011">
        <ele>1837.22</ele>
        <time>2015-01-11T08:50:13Z</time>
      </trkpt>
      <trkpt lat="45.868684770539403" lon="7.730018757283688">
        <ele>1839.6199999999999</ele>
        <time>2015-01-11T08:50:26Z</time>
      </trkpt>
      <trkpt lat="45.868739672005177" lon="7.729967879131436">
        <ele>1840.5799999999999</ele>
        <time>2015-01-11T08:50:40Z</time>
      </trkpt>
      <trkpt lat="45.868759453296661" lon="7.729932507500053">
        <ele>1841.54</ele>
        <time>2015-01-11T08:50:57Z</time>
      </trkpt>
      <trkpt lat="45.868802955374122" lon="7.729938039556146">
        <ele>1842.02</ele>
        <time>2015-01-11T08:51:09Z</time>
      </trkpt>
      <trkpt lat="45.868851570412517" lon="7.729908283799887">
        <ele>1842.5</ele>
        <time>2015-01-11T08:51:18Z</time>
      </trkpt>
      <trkpt lat="45.868903873488307" lon="7.729844581335783">
        <ele>1843.47</ele>
        <time>2015-01-11T08:51:31Z</time>
      </trkpt>
      <trkpt lat="45.868936562910676" lon="7.729787332937121">
        <ele>1844.4300000000001</ele>
        <time>2015-01-11T08:51:43Z</time>
      </trkpt>
      <trkpt lat="45.868933545425534" lon="7.729652049019933">
        <ele>1845.8699999999999</ele>
        <time>2015-01-11T08:51:56Z</time>
      </trkpt>
      <trkpt lat="45.868983417749405" lon="7.729608714580536">
        <ele>1846.8299999999999</ele>
        <time>2015-01-11T08:52:08Z</time>
      </trkpt>
      <trkpt lat="45.869065057486296" lon="7.729542749002576">
        <ele>1849.23</ele>
        <time>2015-01-11T08:52:23Z</time>
      </trkpt>
      <trkpt lat="45.869108056649566" lon="7.729541826993227">
        <ele>1851.1600000000001</ele>
        <time>2015-01-11T08:52:38Z</time>
      </trkpt>
      <trkpt lat="45.869154743850231" lon="7.729663280770183">
        <ele>1852.5999999999999</ele>
        <time>2015-01-11T08:52:50Z</time>
      </trkpt>
      <trkpt lat="45.869204699993134" lon="7.729678032919765">
        <ele>1854.04</ele>
        <time>2015-01-11T08:53:04Z</time>
      </trkpt>
      <trkpt lat="45.86929690092802" lon="7.729634363204241">
        <ele>1855.96</ele>
        <time>2015-01-11T08:53:18Z</time>
      </trkpt>
      <trkpt lat="45.869345348328352" lon="7.729686163365841">
        <ele>1856.9200000000001</ele>
        <time>2015-01-11T08:53:33Z</time>
      </trkpt>
      <trkpt lat="45.869368314743042" lon="7.729572337120771">
        <ele>1859.3299999999999</ele>
        <time>2015-01-11T08:53:47Z</time>
      </trkpt>
      <trkpt lat="45.869408883154392" lon="7.729506539180875">
        <ele>1861.25</ele>
        <time>2015-01-11T08:54:00Z</time>
      </trkpt>
      <trkpt lat="45.869449870660901" lon="7.729442669078708">
        <ele>1863.1700000000001</ele>
        <time>2015-01-11T08:54:15Z</time>
      </trkpt>
      <trkpt lat="45.869480632245541" lon="7.729409644380212">
        <ele>1864.1300000000001</ele>
        <time>2015-01-11T08:54:29Z</time>
      </trkpt>
      <trkpt lat="45.869544921442866" lon="7.729394054040313">
        <ele>1867.5</ele>
        <time>2015-01-11T08:54:45Z</time>
      </trkpt>
      <trkpt lat="45.869586411863565" lon="7.729242341592908">
        <ele>1867.98</ele>
        <time>2015-01-11T08:54:59Z</time>
      </trkpt>
      <trkpt lat="45.869616335257888" lon="7.729086689651012">
        <ele>1868.9400000000001</ele>
        <time>2015-01-11T08:55:15Z</time>
      </trkpt>
      <trkpt lat="45.869659250602126" lon="7.728972863405943">
        <ele>1870.8599999999999</ele>
        <time>2015-01-11T08:55:32Z</time>
      </trkpt>
      <trkpt lat="45.86975715123117" lon="7.728988789021969">
        <ele>1872.79</ele>
        <time>2015-01-11T08:55:45Z</time>
      </trkpt>
      <trkpt lat="45.869783302769065" lon="7.728916369378567">
        <ele>1874.71</ele>
        <time>2015-01-11T08:55:56Z</time>
      </trkpt>
      <trkpt lat="45.869839377701283" lon="7.728921230882406">
        <ele>1876.6300000000001</ele>
        <time>2015-01-11T08:56:11Z</time>
      </trkpt>
      <trkpt lat="45.869912132620811" lon="7.729030111804605">
        <ele>1879.03</ele>
        <time>2015-01-11T08:56:28Z</time>
      </trkpt>
      <trkpt lat="45.869987150654197" lon="7.729051318019629">
        <ele>1880</ele>
        <time>2015-01-11T08:56:39Z</time>
      </trkpt>
      <trkpt lat="45.870071556419134" lon="7.729054251685739">
        <ele>1881.4400000000001</ele>
        <time>2015-01-11T08:56:52Z</time>
      </trkpt>
      <trkpt lat="45.870108604431152" lon="7.729069925844669">
        <ele>1882.8800000000001</ele>
        <time>2015-01-11T08:57:03Z</time>
      </trkpt>
      <trkpt lat="45.870170714333653" lon="7.729028938338161">
        <ele>1884.3199999999999</ele>
        <time>2015-01-11T08:57:15Z</time>
      </trkpt>
      <trkpt lat="45.870217988267541" lon="7.729005804285407">
        <ele>1884.8</ele>
        <time>2015-01-11T08:57:22Z</time>
      </trkpt>
      <trkpt lat="45.870293760672212" lon="7.729045702144504">
        <ele>1886.24</ele>
        <time>2015-01-11T08:57:33Z</time>
      </trkpt>
      <trkpt lat="45.870343297719955" lon="7.729071350768209">
        <ele>1887.21</ele>
        <time>2015-01-11T08:57:41Z</time>
      </trkpt>
      <trkpt lat="45.870395433157682" lon="7.729105297476053">
        <ele>1889.1300000000001</ele>
        <time>2015-01-11T08:57:51Z</time>
      </trkpt>
      <trkpt lat="45.870438851416111" lon="7.729146704077721">
        <ele>1890.5699999999999</ele>
        <time>2015-01-11T08:58:05Z</time>
      </trkpt>
      <trkpt lat="45.870491489768028" lon="7.729155002161861">
        <ele>1892.97</ele>
        <time>2015-01-11T08:58:18Z</time>
      </trkpt>
      <trkpt lat="45.870513617992401" lon="7.729205125942826">
        <ele>1892.97</ele>
        <time>2015-01-11T08:58:30Z</time>
      </trkpt>
      <trkpt lat="45.870535159483552" lon="7.729249130934477">
        <ele>1893.45</ele>
        <time>2015-01-11T08:58:43Z</time>
      </trkpt>
      <trkpt lat="45.87058830074966" lon="7.729313084855676">
        <ele>1893.45</ele>
        <time>2015-01-11T08:58:58Z</time>
      </trkpt>
      <trkpt lat="45.870647057890892" lon="7.729356838390231">
        <ele>1893.45</ele>
        <time>2015-01-11T08:59:06Z</time>
      </trkpt>
      <trkpt lat="45.870697014033794" lon="7.729396652430296">
        <ele>1892.97</ele>
        <time>2015-01-11T08:59:13Z</time>
      </trkpt>
      <trkpt lat="45.870736576616764" lon="7.729428755119443">
        <ele>1894.4200000000001</ele>
        <time>2015-01-11T08:59:19Z</time>
      </trkpt>
      <trkpt lat="45.870818719267845" lon="7.729507377371192">
        <ele>1894.4200000000001</ele>
        <time>2015-01-11T08:59:34Z</time>
      </trkpt>
      <trkpt lat="45.870874458923936" lon="7.729565044865012">
        <ele>1897.78</ele>
        <time>2015-01-11T08:59:44Z</time>
      </trkpt>
      <trkpt lat="45.870970347896218" lon="7.729605948552489">
        <ele>1898.74</ele>
        <time>2015-01-11T08:59:58Z</time>
      </trkpt>
      <trkpt lat="45.871042432263494" lon="7.729633776471019">
        <ele>1901.1400000000001</ele>
        <time>2015-01-11T09:00:10Z</time>
      </trkpt>
      <trkpt lat="45.871096579357982" lon="7.729651043191552">
        <ele>1902.1099999999999</ele>
        <time>2015-01-11T09:00:18Z</time>
      </trkpt>
      <trkpt lat="45.871150391176343" lon="7.729728994891048">
        <ele>1903.0699999999999</ele>
        <time>2015-01-11T09:00:32Z</time>
      </trkpt>
      <trkpt lat="45.8711560908705" lon="7.729737376794219">
        <ele>1903.0699999999999</ele>
        <time>2015-01-11T09:00:33Z</time>
      </trkpt>
      <trkpt lat="45.871202694252133" lon="7.729811137542129">
        <ele>1903.55</ele>
        <time>2015-01-11T09:00:45Z</time>
      </trkpt>
      <trkpt lat="45.871303947642446" lon="7.729904009029269">
        <ele>1904.99</ele>
        <time>2015-01-11T09:01:01Z</time>
      </trkpt>
      <trkpt lat="45.871311072260141" lon="7.729907110333443">
        <ele>1904.51</ele>
        <time>2015-01-11T09:01:02Z</time>
      </trkpt>
      <trkpt lat="45.871363375335932" lon="7.729970058426261">
        <ele>1904.99</ele>
        <time>2015-01-11T09:01:12Z</time>
      </trkpt>
      <trkpt lat="45.871384078636765" lon="7.730014314875007">
        <ele>1904.99</ele>
        <time>2015-01-11T09:01:23Z</time>
      </trkpt>
      <trkpt lat="45.871440907940269" lon="7.730009788647294">
        <ele>1905.95</ele>
        <time>2015-01-11T09:01:33Z</time>
      </trkpt>
      <trkpt lat="45.871489020064473" lon="7.730047926306725">
        <ele>1907.8699999999999</ele>
        <time>2015-01-11T09:01:43Z</time>
      </trkpt>
      <trkpt lat="45.871587172150612" lon="7.73007751442492">
        <ele>1909.3199999999999</ele>
        <time>2015-01-11T09:01:55Z</time>
      </trkpt>
      <trkpt lat="45.87167895399034" lon="7.730147084221244">
        <ele>1910.76</ele>
        <time>2015-01-11T09:02:09Z</time>
      </trkpt>
      <trkpt lat="45.871735448017716" lon="7.730180947110057">
        <ele>1911.72</ele>
        <time>2015-01-11T09:02:19Z</time>
      </trkpt>
      <trkpt lat="45.871780710294843" lon="7.730161417275667">
        <ele>1912.6800000000001</ele>
        <time>2015-01-11T09:02:26Z</time>
      </trkpt>
      <trkpt lat="45.871877437457442" lon="7.730198884382844">
        <ele>1914.5999999999999</ele>
        <time>2015-01-11T09:02:39Z</time>
      </trkpt>
      <trkpt lat="45.871939798817039" lon="7.730236016213894">
        <ele>1916.53</ele>
        <time>2015-01-11T09:02:51Z</time>
      </trkpt>
      <trkpt lat="45.872016493231058" lon="7.730277590453625">
        <ele>1917.97</ele>
        <time>2015-01-11T09:03:03Z</time>
      </trkpt>
      <trkpt lat="45.872065862640738" lon="7.730337353423238">
        <ele>1919.4100000000001</ele>
        <time>2015-01-11T09:03:16Z</time>
      </trkpt>
      <trkpt lat="45.872104084119201" lon="7.730383034795523">
        <ele>1920.3699999999999</ele>
        <time>2015-01-11T09:03:27Z</time>
      </trkpt>
      <trkpt lat="45.872183293104172" lon="7.730410443618894">
        <ele>1922.77</ele>
        <time>2015-01-11T09:03:40Z</time>
      </trkpt>
      <trkpt lat="45.872227046638727" lon="7.730480767786503">
        <ele>1924.22</ele>
        <time>2015-01-11T09:03:53Z</time>
      </trkpt>
      <trkpt lat="45.872281780466437" lon="7.730529299005866">
        <ele>1926.1400000000001</ele>
        <time>2015-01-11T09:04:05Z</time>
      </trkpt>
      <trkpt lat="45.872318493202329" lon="7.730611776933074">
        <ele>1927.5799999999999</ele>
        <time>2015-01-11T09:04:18Z</time>
      </trkpt>
      <trkpt lat="45.872373981401324" lon="7.730713365599513">
        <ele>1929.98</ele>
        <time>2015-01-11T09:04:32Z</time>
      </trkpt>
      <trkpt lat="45.872414633631706" lon="7.730773128569126">
        <ele>1932.3900000000001</ele>
        <time>2015-01-11T09:04:48Z</time>
      </trkpt>
      <trkpt lat="45.87246710434556" lon="7.73085929453373">
        <ele>1934.79</ele>
        <time>2015-01-11T09:05:04Z</time>
      </trkpt>
      <trkpt lat="45.872522173449397" lon="7.730872202664614">
        <ele>1937.1900000000001</ele>
        <time>2015-01-11T09:05:19Z</time>
      </trkpt>
      <trkpt lat="45.872544972226024" lon="7.730867508798838">
        <ele>1938.1600000000001</ele>
        <time>2015-01-11T09:05:23Z</time>
      </trkpt>
      <trkpt lat="45.872615966945887" lon="7.730922996997833">
        <ele>1940.0799999999999</ele>
        <time>2015-01-11T09:05:36Z</time>
      </trkpt>
      <trkpt lat="45.872674640268087" lon="7.73094923235476">
        <ele>1942.48</ele>
        <time>2015-01-11T09:05:49Z</time>
      </trkpt>
      <trkpt lat="45.87272996082902" lon="7.730936491861939">
        <ele>1944.4000000000001</ele>
        <time>2015-01-11T09:06:02Z</time>
      </trkpt>
      <trkpt lat="45.872787125408649" lon="7.731053419411182">
        <ele>1946.3299999999999</ele>
        <time>2015-01-11T09:06:16Z</time>
      </trkpt>
      <trkpt lat="45.872838674113154" lon="7.731079487130046">
        <ele>1947.77</ele>
        <time>2015-01-11T09:06:31Z</time>
      </trkpt>
      <trkpt lat="45.872895335778594" lon="7.731085438281298">
        <ele>1950.1700000000001</ele>
        <time>2015-01-11T09:06:44Z</time>
      </trkpt>
      <trkpt lat="45.87296842597425" lon="7.731024920940399">
        <ele>1953.0599999999999</ele>
        <time>2015-01-11T09:07:03Z</time>
      </trkpt>
      <trkpt lat="45.873038247227669" lon="7.731026345863938">
        <ele>1955.46</ele>
        <time>2015-01-11T09:07:19Z</time>
      </trkpt>
      <trkpt lat="45.873098848387599" lon="7.731072781607509">
        <ele>1956.9000000000001</ele>
        <time>2015-01-11T09:07:32Z</time>
      </trkpt>
      <trkpt lat="45.873141596093774" lon="7.731127766892314">
        <ele>1959.3</ele>
        <time>2015-01-11T09:07:45Z</time>
      </trkpt>
      <trkpt lat="45.873167915269732" lon="7.731082336977124">
        <ele>1960.75</ele>
        <time>2015-01-11T09:07:57Z</time>
      </trkpt>
      <trkpt lat="45.873251566663384" lon="7.731102118268609">
        <ele>1962.6700000000001</ele>
        <time>2015-01-11T09:08:11Z</time>
      </trkpt>
      <trkpt lat="45.873339073732495" lon="7.731173615902662">
        <ele>1966.03</ele>
        <time>2015-01-11T09:08:29Z</time>
      </trkpt>
      <trkpt lat="45.873371008783579" lon="7.731252321973443">
        <ele>1968.4400000000001</ele>
        <time>2015-01-11T09:08:44Z</time>
      </trkpt>
      <trkpt lat="45.873391292989254" lon="7.731291046366096">
        <ele>1970.3599999999999</ele>
        <time>2015-01-11T09:08:58Z</time>
      </trkpt>
      <trkpt lat="45.873388191685081" lon="7.731294650584459">
        <ele>1971.3199999999999</ele>
        <time>2015-01-11T09:09:19Z</time>
      </trkpt>
      <trkpt lat="45.873404033482075" lon="7.731319880113006">
        <ele>1971.3199999999999</ele>
        <time>2015-01-11T09:09:39Z</time>
      </trkpt>
      <trkpt lat="45.873395316302776" lon="7.731296326965094">
        <ele>1971.3199999999999</ele>
        <time>2015-01-11T09:09:52Z</time>
      </trkpt>
      <trkpt lat="45.87339305318892" lon="7.731303786858916">
        <ele>1971.3199999999999</ele>
        <time>2015-01-11T09:10:07Z</time>
      </trkpt>
      <trkpt lat="45.873403111472726" lon="7.731304205954075">
        <ele>1970.8399999999999</ele>
        <time>2015-01-11T09:10:25Z</time>
      </trkpt>
      <trkpt lat="45.873403949663043" lon="7.731281239539385">
        <ele>1970.8399999999999</ele>
        <time>2015-01-11T09:10:41Z</time>
      </trkpt>
      <trkpt lat="45.873402943834662" lon="7.731285598129034">
        <ele>1970.3599999999999</ele>
        <time>2015-01-11T09:10:54Z</time>
      </trkpt>
      <trkpt lat="45.873398752883077" lon="7.731292974203825">
        <ele>1969.8800000000001</ele>
        <time>2015-01-11T09:11:15Z</time>
      </trkpt>
      <trkpt lat="45.873413505032659" lon="7.731334213167429">
        <ele>1969.4000000000001</ele>
        <time>2015-01-11T09:11:34Z</time>
      </trkpt>
      <trkpt lat="45.873407889157534" lon="7.731364304199815">
        <ele>1969.8800000000001</ele>
        <time>2015-01-11T09:11:47Z</time>
      </trkpt>
      <trkpt lat="45.873402692377567" lon="7.73134502582252">
        <ele>1969.4000000000001</ele>
        <time>2015-01-11T09:12:09Z</time>
      </trkpt>
      <trkpt lat="45.873376959934831" lon="7.731326334178448">
        <ele>1968.9200000000001</ele>
        <time>2015-01-11T09:12:37Z</time>
      </trkpt>
      <trkpt lat="45.873368661850691" lon="7.731329435482621">
        <ele>1968.9200000000001</ele>
        <time>2015-01-11T09:12:56Z</time>
      </trkpt>
      <trkpt lat="45.873345611616969" lon="7.731330525130034">
        <ele>1970.3599999999999</ele>
        <time>2015-01-11T09:13:30Z</time>
      </trkpt>
      <trkpt lat="45.873347036540508" lon="7.731329100206494">
        <ele>1970.3599999999999</ele>
        <time>2015-01-11T09:13:55Z</time>
      </trkpt>
      <trkpt lat="45.873349467292428" lon="7.731326082721353">
        <ele>1970.8399999999999</ele>
        <time>2015-01-11T09:14:17Z</time>
      </trkpt>
      <trkpt lat="45.873360866680741" lon="7.731350809335709">
        <ele>1970.8399999999999</ele>
        <time>2015-01-11T09:14:36Z</time>
      </trkpt>
      <trkpt lat="45.87337939068675" lon="7.731339326128364">
        <ele>1970.8399999999999</ele>
        <time>2015-01-11T09:14:56Z</time>
      </trkpt>
      <trkpt lat="45.873455833643675" lon="7.731374194845557">
        <ele>1972.28</ele>
        <time>2015-01-11T09:15:11Z</time>
      </trkpt>
      <trkpt lat="45.873530516400933" lon="7.731395149603486">
        <ele>1974.6900000000001</ele>
        <time>2015-01-11T09:15:24Z</time>
      </trkpt>
      <trkpt lat="45.873574605211616" lon="7.731454074382782">
        <ele>1976.6099999999999</ele>
        <time>2015-01-11T09:15:37Z</time>
      </trkpt>
      <trkpt lat="45.873651718720794" lon="7.731415266171098">
        <ele>1978.53</ele>
        <time>2015-01-11T09:15:50Z</time>
      </trkpt>
      <trkpt lat="45.873717265203595" lon="7.731449296697974">
        <ele>1980.45</ele>
        <time>2015-01-11T09:16:02Z</time>
      </trkpt>
      <trkpt lat="45.873795803636312" lon="7.731468323618174">
        <ele>1982.3800000000001</ele>
        <time>2015-01-11T09:16:15Z</time>
      </trkpt>
      <trkpt lat="45.873798150569201" lon="7.731464635580778">
        <ele>1982.3800000000001</ele>
        <time>2015-01-11T09:16:16Z</time>
      </trkpt>
      <trkpt lat="45.873880293220282" lon="7.731469497084618">
        <ele>1984.3</ele>
        <time>2015-01-11T09:16:29Z</time>
      </trkpt>
      <trkpt lat="45.873970901593566" lon="7.731463965028524">
        <ele>1986.7</ele>
        <time>2015-01-11T09:16:47Z</time>
      </trkpt>
      <trkpt lat="45.874100988730788" lon="7.731494391337037">
        <ele>1990.55</ele>
        <time>2015-01-11T09:17:03Z</time>
      </trkpt>
      <trkpt lat="45.8741504419595" lon="7.731379391625524">
        <ele>1991.51</ele>
        <time>2015-01-11T09:17:20Z</time>
      </trkpt>
      <trkpt lat="45.874221185222268" lon="7.73140411823988">
        <ele>1993.4300000000001</ele>
        <time>2015-01-11T09:17:35Z</time>
      </trkpt>
      <trkpt lat="45.874240295961499" lon="7.731492547318339">
        <ele>1996.3199999999999</ele>
        <time>2015-01-11T09:17:51Z</time>
      </trkpt>
      <trkpt lat="45.87424130178988" lon="7.731551053002477">
        <ele>1997.76</ele>
        <time>2015-01-11T09:18:04Z</time>
      </trkpt>
      <trkpt lat="45.874275080859661" lon="7.731610899791122">
        <ele>1999.6800000000001</ele>
        <time>2015-01-11T09:18:20Z</time>
      </trkpt>
      <trkpt lat="45.874283630400896" lon="7.731701675802469">
        <ele>2002.0799999999999</ele>
        <time>2015-01-11T09:18:32Z</time>
      </trkpt>
      <trkpt lat="45.874283965677023" lon="7.731829667463899">
        <ele>2004.49</ele>
        <time>2015-01-11T09:18:49Z</time>
      </trkpt>
      <trkpt lat="45.874302741140127" lon="7.731924718245864">
        <ele>2007.8499999999999</ele>
        <time>2015-01-11T09:19:04Z</time>
      </trkpt>
      <trkpt lat="45.874323109164834" lon="7.732004597783089">
        <ele>2009.29</ele>
        <time>2015-01-11T09:19:20Z</time>
      </trkpt>
      <trkpt lat="45.874332748353481" lon="7.732120184227824">
        <ele>2010.73</ele>
        <time>2015-01-11T09:19:34Z</time>
      </trkpt>
      <trkpt lat="45.87438790127635" lon="7.732168044894934">
        <ele>2013.1400000000001</ele>
        <time>2015-01-11T09:19:48Z</time>
      </trkpt>
      <trkpt lat="45.874355882406235" lon="7.732238788157702">
        <ele>2014.5799999999999</ele>
        <time>2015-01-11T09:20:00Z</time>
      </trkpt>
      <trkpt lat="45.874331407248974" lon="7.732312045991421">
        <ele>2015.54</ele>
        <time>2015-01-11T09:20:07Z</time>
      </trkpt>
      <trkpt lat="45.874342806637287" lon="7.73240240290761">
        <ele>2016.02</ele>
        <time>2015-01-11T09:20:22Z</time>
      </trkpt>
      <trkpt lat="45.874358648434281" lon="7.732442803680897">
        <ele>2016.5</ele>
        <time>2015-01-11T09:20:27Z</time>
      </trkpt>
      <trkpt lat="45.874378848820925" lon="7.732636341825128">
        <ele>2016.02</ele>
        <time>2015-01-11T09:20:42Z</time>
      </trkpt>
      <trkpt lat="45.874428134411573" lon="7.732759052887559">
        <ele>2018.4300000000001</ele>
        <time>2015-01-11T09:20:57Z</time>
      </trkpt>
      <trkpt lat="45.87445730343461" lon="7.732827197760344">
        <ele>2018.9100000000001</ele>
        <time>2015-01-11T09:21:11Z</time>
      </trkpt>
      <trkpt lat="45.874482365325093" lon="7.732908166944981">
        <ele>2020.8299999999999</ele>
        <time>2015-01-11T09:21:23Z</time>
      </trkpt>
      <trkpt lat="45.874500637874007" lon="7.733001625165343">
        <ele>2020.8299999999999</ele>
        <time>2015-01-11T09:21:31Z</time>
      </trkpt>
      <trkpt lat="45.874533662572503" lon="7.733126264065504">
        <ele>2022.27</ele>
        <time>2015-01-11T09:21:45Z</time>
      </trkpt>
      <trkpt lat="45.874546403065324" lon="7.733265068382025">
        <ele>2023.71</ele>
        <time>2015-01-11T09:21:59Z</time>
      </trkpt>
      <trkpt lat="45.874570878222585" lon="7.733373865485191">
        <ele>2025.1500000000001</ele>
        <time>2015-01-11T09:22:13Z</time>
      </trkpt>
      <trkpt lat="45.874598035588861" lon="7.733504623174667">
        <ele>2026.5999999999999</ele>
        <time>2015-01-11T09:22:27Z</time>
      </trkpt>
      <trkpt lat="45.87463173083961" lon="7.733636721968651">
        <ele>2028.04</ele>
        <time>2015-01-11T09:22:42Z</time>
      </trkpt>
      <trkpt lat="45.874646231532097" lon="7.733735209330916">
        <ele>2029.48</ele>
        <time>2015-01-11T09:22:55Z</time>
      </trkpt>
      <trkpt lat="45.874627707526088" lon="7.73388247936964">
        <ele>2030.9200000000001</ele>
        <time>2015-01-11T09:23:09Z</time>
      </trkpt>
      <trkpt lat="45.87463466450572" lon="7.73394986987114">
        <ele>2031.4000000000001</ele>
        <time>2015-01-11T09:23:20Z</time>
      </trkpt>
      <trkpt lat="45.874623013660312" lon="7.734051626175642">
        <ele>2032.3599999999999</ele>
        <time>2015-01-11T09:23:33Z</time>
      </trkpt>
      <trkpt lat="45.874587558209896" lon="7.734201410785317">
        <ele>2033.3299999999999</ele>
        <time>2015-01-11T09:23:49Z</time>
      </trkpt>
      <trkpt lat="45.874613542109728" lon="7.734349854290485">
        <ele>2033.3299999999999</ele>
        <time>2015-01-11T09:24:03Z</time>
      </trkpt>
      <trkpt lat="45.874659726396203" lon="7.73448446765542">
        <ele>2033.3299999999999</ele>
        <time>2015-01-11T09:24:17Z</time>
      </trkpt>
      <trkpt lat="45.874716136604548" lon="7.734623523429036">
        <ele>2034.29</ele>
        <time>2015-01-11T09:24:30Z</time>
      </trkpt>
      <trkpt lat="45.874774474650621" lon="7.734702564775944">
        <ele>2034.29</ele>
        <time>2015-01-11T09:24:43Z</time>
      </trkpt>
      <trkpt lat="45.874837758019567" lon="7.734752772375941">
        <ele>2035.73</ele>
        <time>2015-01-11T09:24:57Z</time>
      </trkpt>
      <trkpt lat="45.874903723597527" lon="7.734852684661746">
        <ele>2037.1700000000001</ele>
        <time>2015-01-11T09:25:12Z</time>
      </trkpt>
      <trkpt lat="45.874941274523735" lon="7.734893085435033">
        <ele>2038.1300000000001</ele>
        <time>2015-01-11T09:25:21Z</time>
      </trkpt>
      <trkpt lat="45.875045210123062" lon="7.735004732385278">
        <ele>2038.6099999999999</ele>
        <time>2015-01-11T09:25:37Z</time>
      </trkpt>
      <trkpt lat="45.875130537897348" lon="7.735078325495124">
        <ele>2038.6099999999999</ele>
        <time>2015-01-11T09:25:49Z</time>
      </trkpt>
      <trkpt lat="45.87518242187798" lon="7.735127694904804">
        <ele>2039.5699999999999</ele>
        <time>2015-01-11T09:25:57Z</time>
      </trkpt>
      <trkpt lat="45.87528451345861" lon="7.735236492007971">
        <ele>2040.05</ele>
        <time>2015-01-11T09:26:12Z</time>
      </trkpt>
      <trkpt lat="45.87539347819984" lon="7.735352413728833">
        <ele>2040.54</ele>
        <time>2015-01-11T09:26:28Z</time>
      </trkpt>
      <trkpt lat="45.875468496233225" lon="7.735387869179249">
        <ele>2041.98</ele>
        <time>2015-01-11T09:26:39Z</time>
      </trkpt>
      <trkpt lat="45.875577963888645" lon="7.735418379306793">
        <ele>2041.98</ele>
        <time>2015-01-11T09:26:52Z</time>
      </trkpt>
      <trkpt lat="45.875696986913681" lon="7.735471688210964">
        <ele>2042.46</ele>
        <time>2015-01-11T09:27:07Z</time>
      </trkpt>
      <trkpt lat="45.875808047130704" lon="7.735526254400611">
        <ele>2043.9000000000001</ele>
        <time>2015-01-11T09:27:22Z</time>
      </trkpt>
      <trkpt lat="45.875779800117016" lon="7.735548382624984">
        <ele>2043.9000000000001</ele>
        <time>2015-01-11T09:27:35Z</time>
      </trkpt>
      <trkpt lat="45.875791450962424" lon="7.735549807548523">
        <ele>2043.9000000000001</ele>
        <time>2015-01-11T09:27:43Z</time>
      </trkpt>
      <trkpt lat="45.875957999378443" lon="7.735633542761207">
        <ele>2043.4200000000001</ele>
        <time>2015-01-11T09:28:00Z</time>
      </trkpt>
      <trkpt lat="45.876019103452563" lon="7.735645612701774">
        <ele>2044.3800000000001</ele>
        <time>2015-01-11T09:28:09Z</time>
      </trkpt>
      <trkpt lat="45.876157991588116" lon="7.735650725662708">
        <ele>2045.3399999999999</ele>
        <time>2015-01-11T09:28:25Z</time>
      </trkpt>
      <trkpt lat="45.876254299655557" lon="7.735677128657699">
        <ele>2047.26</ele>
        <time>2015-01-11T09:28:40Z</time>
      </trkpt>
      <trkpt lat="45.87638245895505" lon="7.735707554966211">
        <ele>2048.71</ele>
        <time>2015-01-11T09:28:55Z</time>
      </trkpt>
      <trkpt lat="45.876395367085934" lon="7.735713757574558">
        <ele>2048.71</ele>
        <time>2015-01-11T09:28:56Z</time>
      </trkpt>
      <trkpt lat="45.876562837511301" lon="7.735806964337826">
        <ele>2047.75</ele>
        <time>2015-01-11T09:29:13Z</time>
      </trkpt>
      <trkpt lat="45.876726452261209" lon="7.735867984592915">
        <ele>2047.75</ele>
        <time>2015-01-11T09:29:29Z</time>
      </trkpt>
      <trkpt lat="45.8768530189991" lon="7.735914420336485">
        <ele>2047.75</ele>
        <time>2015-01-11T09:29:42Z</time>
      </trkpt>
      <trkpt lat="45.876929042860866" lon="7.736086081713438">
        <ele>2047.75</ele>
        <time>2015-01-11T09:29:54Z</time>
      </trkpt>
      <trkpt lat="45.876969443634152" lon="7.736148359254003">
        <ele>2046.78</ele>
        <time>2015-01-11T09:29:59Z</time>
      </trkpt>
      <trkpt lat="45.877105565741658" lon="7.736241733655334">
        <ele>2045.3399999999999</ele>
        <time>2015-01-11T09:30:14Z</time>
      </trkpt>
      <trkpt lat="45.877115540206432" lon="7.736239386722446">
        <ele>2044.8599999999999</ele>
        <time>2015-01-11T09:30:15Z</time>
      </trkpt>
      <trkpt lat="45.877170190215111" lon="7.73626159876585">
        <ele>2045.3399999999999</ele>
        <time>2015-01-11T09:30:25Z</time>
      </trkpt>
      <trkpt lat="45.877354592084885" lon="7.736294623464346">
        <ele>2044.8599999999999</ele>
        <time>2015-01-11T09:30:41Z</time>
      </trkpt>
      <trkpt lat="45.877466071397066" lon="7.736331336200237">
        <ele>2044.3800000000001</ele>
        <time>2015-01-11T09:30:52Z</time>
      </trkpt>
      <trkpt lat="45.877543520182371" lon="7.736384645104408">
        <ele>2044.8599999999999</ele>
        <time>2015-01-11T09:31:01Z</time>
      </trkpt>
      <trkpt lat="45.877666985616088" lon="7.736460836604238">
        <ele>2045.3399999999999</ele>
        <time>2015-01-11T09:31:15Z</time>
      </trkpt>
      <trkpt lat="45.87775600142777" lon="7.736504673957825">
        <ele>2045.3399999999999</ele>
        <time>2015-01-11T09:31:29Z</time>
      </trkpt>
      <trkpt lat="45.877894973382354" lon="7.736570304259658">
        <ele>2046.3</ele>
        <time>2015-01-11T09:31:45Z</time>
      </trkpt>
      <trkpt lat="45.878055403009057" lon="7.736613722518086">
        <ele>2046.78</ele>
        <time>2015-01-11T09:32:02Z</time>
      </trkpt>
      <trkpt lat="45.87816453538835" lon="7.736585224047303">
        <ele>2047.75</ele>
        <time>2015-01-11T09:32:16Z</time>
      </trkpt>
      <trkpt lat="45.878282804042101" lon="7.736544739454985">
        <ele>2048.71</ele>
        <time>2015-01-11T09:32:29Z</time>
      </trkpt>
      <trkpt lat="45.878380201756954" lon="7.736500399187207">
        <ele>2049.1900000000001</ele>
        <time>2015-01-11T09:32:41Z</time>
      </trkpt>
      <trkpt lat="45.878483215346932" lon="7.736488496884704">
        <ele>2049.6700000000001</ele>
        <time>2015-01-11T09:32:54Z</time>
      </trkpt>
      <trkpt lat="45.878578098490834" lon="7.736454717814922">
        <ele>2050.6300000000001</ele>
        <time>2015-01-11T09:33:06Z</time>
      </trkpt>
      <trkpt lat="45.878662168979645" lon="7.736432170495391">
        <ele>2051.5900000000001</ele>
        <time>2015-01-11T09:33:18Z</time>
      </trkpt>
      <trkpt lat="45.878649931401014" lon="7.736437283456326">
        <ele>2052.0700000000002</ele>
        <time>2015-01-11T09:33:29Z</time>
      </trkpt>
      <trkpt lat="45.87864825502038" lon="7.7364541310817">
        <ele>2052.0700000000002</ele>
        <time>2015-01-11T09:33:43Z</time>
      </trkpt>
      <trkpt lat="45.87863459251821" lon="7.736493945121765">
        <ele>2050.6300000000001</ele>
        <time>2015-01-11T09:34:00Z</time>
      </trkpt>
      <trkpt lat="45.878639034926891" lon="7.736457483842969">
        <ele>2051.1100000000001</ele>
        <time>2015-01-11T09:34:16Z</time>
      </trkpt>
      <trkpt lat="45.878687314689159" lon="7.73646536283195">
        <ele>2051.1100000000001</ele>
        <time>2015-01-11T09:34:28Z</time>
      </trkpt>
      <trkpt lat="45.878745066002011" lon="7.736472906544805">
        <ele>2052.0700000000002</ele>
        <time>2015-01-11T09:34:35Z</time>
      </trkpt>
      <trkpt lat="45.878787143155932" lon="7.736536609008908">
        <ele>2050.1500000000001</ele>
        <time>2015-01-11T09:34:48Z</time>
      </trkpt>
      <trkpt lat="45.878794100135565" lon="7.736529987305403">
        <ele>2050.6300000000001</ele>
        <time>2015-01-11T09:34:50Z</time>
      </trkpt>
      <trkpt lat="45.878803739324212" lon="7.736553708091378">
        <ele>2050.1500000000001</ele>
        <time>2015-01-11T09:34:52Z</time>
      </trkpt>
      <trkpt lat="45.878781611099839" lon="7.7366060949862">
        <ele>2050.1500000000001</ele>
        <time>2015-01-11T09:35:04Z</time>
      </trkpt>
      <trkpt lat="45.878811534494162" lon="7.736625373363495">
        <ele>2050.1500000000001</ele>
        <time>2015-01-11T09:35:19Z</time>
      </trkpt>
      <trkpt lat="45.878816563636065" lon="7.736621266230941">
        <ele>2050.1500000000001</ele>
        <time>2015-01-11T09:35:32Z</time>
      </trkpt>
      <trkpt lat="45.878812540322542" lon="7.736637108027935">
        <ele>2049.6700000000001</ele>
        <time>2015-01-11T09:35:49Z</time>
      </trkpt>
      <trkpt lat="45.878812037408352" lon="7.736636437475681">
        <ele>2050.6300000000001</ele>
        <time>2015-01-11T09:35:57Z</time>
      </trkpt>
      <trkpt lat="45.878746910020709" lon="7.736667618155479">
        <ele>2050.1500000000001</ele>
        <time>2015-01-11T09:36:02Z</time>
      </trkpt>
      <trkpt lat="45.878720255568624" lon="7.736675161868334">
        <ele>2050.1500000000001</ele>
        <time>2015-01-11T09:36:04Z</time>
      </trkpt>
      <trkpt lat="45.878635682165623" lon="7.73665152490139">
        <ele>2049.1900000000001</ele>
        <time>2015-01-11T09:36:18Z</time>
      </trkpt>
      <trkpt lat="45.8786247856915" lon="7.736633336171508">
        <ele>2049.1900000000001</ele>
        <time>2015-01-11T09:36:32Z</time>
      </trkpt>
      <trkpt lat="45.878638364374638" lon="7.736626882106066">
        <ele>2049.1900000000001</ele>
        <time>2015-01-11T09:36:48Z</time>
      </trkpt>
      <trkpt lat="45.878649931401014" lon="7.736689494922757">
        <ele>2048.71</ele>
        <time>2015-01-11T09:37:15Z</time>
      </trkpt>
      <trkpt lat="45.87866485118866" lon="7.736688069999218">
        <ele>2049.1900000000001</ele>
        <time>2015-01-11T09:37:26Z</time>
      </trkpt>
      <trkpt lat="45.878779850900173" lon="7.736622858792543">
        <ele>2049.6700000000001</ele>
        <time>2015-01-11T09:37:41Z</time>
      </trkpt>
      <trkpt lat="45.878850929439068" lon="7.736623696982861">
        <ele>2049.6700000000001</ele>
        <time>2015-01-11T09:37:57Z</time>
      </trkpt>
      <trkpt lat="45.878837183117867" lon="7.736622607335448">
        <ele>2050.1500000000001</ele>
        <time>2015-01-11T09:38:14Z</time>
      </trkpt>
      <trkpt lat="45.878855539485812" lon="7.736620511859655">
        <ele>2050.1500000000001</ele>
        <time>2015-01-11T09:38:22Z</time>
      </trkpt>
      <trkpt lat="45.878976406529546" lon="7.736521353945136">
        <ele>2051.1100000000001</ele>
        <time>2015-01-11T09:38:37Z</time>
      </trkpt>
      <trkpt lat="45.878985961899161" lon="7.736516073346138">
        <ele>2051.5900000000001</ele>
        <time>2015-01-11T09:38:38Z</time>
      </trkpt>
      <trkpt lat="45.879006497561932" lon="7.736512385308743">
        <ele>2051.5900000000001</ele>
        <time>2015-01-11T09:38:40Z</time>
      </trkpt>
      <trkpt lat="45.879125772044063" lon="7.736503835767508">
        <ele>2052.5500000000002</ele>
        <time>2015-01-11T09:38:54Z</time>
      </trkpt>
      <trkpt lat="45.879132812842727" lon="7.736506015062332">
        <ele>2053.0300000000002</ele>
        <time>2015-01-11T09:38:55Z</time>
      </trkpt>
      <trkpt lat="45.87925661355257" lon="7.736552283167839">
        <ele>2054.96</ele>
        <time>2015-01-11T09:39:10Z</time>
      </trkpt>
      <trkpt lat="45.879386281594634" lon="7.736562676727772">
        <ele>2055.9200000000001</ele>
        <time>2015-01-11T09:39:25Z</time>
      </trkpt>
      <trkpt lat="45.879511591047049" lon="7.736537698656321">
        <ele>2056.4000000000001</ele>
        <time>2015-01-11T09:39:38Z</time>
      </trkpt>
      <trkpt lat="45.879687024280429" lon="7.736544823274016">
        <ele>2056.8800000000001</ele>
        <time>2015-01-11T09:39:56Z</time>
      </trkpt>
      <trkpt lat="45.879818955436349" lon="7.73658312857151">
        <ele>2057.3600000000001</ele>
        <time>2015-01-11T09:40:11Z</time>
      </trkpt>
      <trkpt lat="45.879948958754539" lon="7.736593773588538">
        <ele>2057.3600000000001</ele>
        <time>2015-01-11T09:40:24Z</time>
      </trkpt>
      <trkpt lat="45.880097821354866" lon="7.736642975360155">
        <ele>2057.3600000000001</ele>
        <time>2015-01-11T09:40:40Z</time>
      </trkpt>
      <trkpt lat="45.880223549902439" lon="7.736671473830938">
        <ele>2057.3600000000001</ele>
        <time>2015-01-11T09:40:54Z</time>
      </trkpt>
      <trkpt lat="45.880353972315788" lon="7.736692428588867">
        <ele>2057.8400000000001</ele>
        <time>2015-01-11T09:41:07Z</time>
      </trkpt>
      <trkpt lat="45.880478527396917" lon="7.736729308962822">
        <ele>2058.3200000000002</ele>
        <time>2015-01-11T09:41:21Z</time>
      </trkpt>
      <trkpt lat="45.880621774122119" lon="7.736756131052971">
        <ele>2059.2800000000002</ele>
        <time>2015-01-11T09:41:36Z</time>
      </trkpt>
      <trkpt lat="45.880700647830963" lon="7.736780103296042">
        <ele>2060.2399999999998</ele>
        <time>2015-01-11T09:41:45Z</time>
      </trkpt>
      <trkpt lat="45.880811037495732" lon="7.736821677535772">
        <ele>2061.1999999999998</ele>
        <time>2015-01-11T09:41:58Z</time>
      </trkpt>
      <trkpt lat="45.880933664739132" lon="7.736871046945453">
        <ele>2062.1700000000001</ele>
        <time>2015-01-11T09:42:12Z</time>
      </trkpt>
      <trkpt lat="45.881072888150811" lon="7.736934665590525">
        <ele>2062.6500000000001</ele>
        <time>2015-01-11T09:42:27Z</time>
      </trkpt>
      <trkpt lat="45.881203226745129" lon="7.73699895478785">
        <ele>2063.1300000000001</ele>
        <time>2015-01-11T09:42:41Z</time>
      </trkpt>
      <trkpt lat="45.881228540092707" lon="7.73701605387032">
        <ele>2063.1300000000001</ele>
        <time>2015-01-11T09:42:44Z</time>
      </trkpt>
      <trkpt lat="45.881339181214571" lon="7.737089479342103">
        <ele>2063.6100000000001</ele>
        <time>2015-01-11T09:42:58Z</time>
      </trkpt>
      <trkpt lat="45.881461808457971" lon="7.737167766317725">
        <ele>2064.0900000000001</ele>
        <time>2015-01-11T09:43:14Z</time>
      </trkpt>
      <trkpt lat="45.88147840462625" lon="7.73717824369669">
        <ele>2064.5700000000002</ele>
        <time>2015-01-11T09:43:16Z</time>
      </trkpt>
      <trkpt lat="45.881623411551118" lon="7.737286202609539">
        <ele>2065.0500000000002</ele>
        <time>2015-01-11T09:43:32Z</time>
      </trkpt>
      <trkpt lat="45.881741596385837" lon="7.737409751862288">
        <ele>2066.0100000000002</ele>
        <time>2015-01-11T09:43:48Z</time>
      </trkpt>
      <trkpt lat="45.88185022585094" lon="7.73755744099617">
        <ele>2066.9699999999998</ele>
        <time>2015-01-11T09:44:03Z</time>
      </trkpt>
      <trkpt lat="45.881991796195507" lon="7.737711500376463">
        <ele>2068.4099999999999</ele>
        <time>2015-01-11T09:44:22Z</time>
      </trkpt>
      <trkpt lat="45.882144346833229" lon="7.737794648855925">
        <ele>2069.8600000000001</ele>
        <time>2015-01-11T09:44:42Z</time>
      </trkpt>
      <trkpt lat="45.882212407886982" lon="7.737814346328378">
        <ele>2070.8200000000002</ele>
        <time>2015-01-11T09:44:50Z</time>
      </trkpt>
      <trkpt lat="45.882376525551081" lon="7.737854579463601">
        <ele>2071.7800000000002</ele>
        <time>2015-01-11T09:45:08Z</time>
      </trkpt>
      <trkpt lat="45.882550030946732" lon="7.737890454009175">
        <ele>2073.2199999999998</ele>
        <time>2015-01-11T09:45:25Z</time>
      </trkpt>
      <trkpt lat="45.882706604897976" lon="7.737971674650908">
        <ele>2074.1799999999998</ele>
        <time>2015-01-11T09:45:42Z</time>
      </trkpt>
      <trkpt lat="45.882849935442209" lon="7.738087261095643">
        <ele>2075.1399999999999</ele>
        <time>2015-01-11T09:45:59Z</time>
      </trkpt>
      <trkpt lat="45.882862256839871" lon="7.738101510331035">
        <ele>2075.6199999999999</ele>
        <time>2015-01-11T09:46:01Z</time>
      </trkpt>
      <trkpt lat="45.882975663989782" lon="7.738263113424182">
        <ele>2076.5900000000001</ele>
        <time>2015-01-11T09:46:18Z</time>
      </trkpt>
      <trkpt lat="45.883112708106637" lon="7.738397978246212">
        <ele>2077.5500000000002</ele>
        <time>2015-01-11T09:46:36Z</time>
      </trkpt>
      <trkpt lat="45.883214715868235" lon="7.738496633246541">
        <ele>2077.5500000000002</ele>
        <time>2015-01-11T09:46:50Z</time>
      </trkpt>
      <trkpt lat="45.883368020877242" lon="7.738576009869576">
        <ele>2078.5100000000002</ele>
        <time>2015-01-11T09:47:07Z</time>
      </trkpt>
      <trkpt lat="45.883507914841175" lon="7.738634180277586">
        <ele>2078.5100000000002</ele>
        <time>2015-01-11T09:47:22Z</time>
      </trkpt>
      <trkpt lat="45.883627105504274" lon="7.738727470859885">
        <ele>2078.9899999999998</ele>
        <time>2015-01-11T09:47:37Z</time>
      </trkpt>
      <trkpt lat="45.883772531524301" lon="7.738831406459212">
        <ele>2079.4699999999998</ele>
        <time>2015-01-11T09:47:55Z</time>
      </trkpt>
      <trkpt lat="45.883903205394745" lon="7.738884883001447">
        <ele>2079.9499999999998</ele>
        <time>2015-01-11T09:48:10Z</time>
      </trkpt>
      <trkpt lat="45.884041842073202" lon="7.738966606557369">
        <ele>2081.3899999999999</ele>
        <time>2015-01-11T09:48:28Z</time>
      </trkpt>
      <trkpt lat="45.884087858721614" lon="7.738987058401108">
        <ele>2081.8699999999999</ele>
        <time>2015-01-11T09:48:33Z</time>
      </trkpt>
      <trkpt lat="45.884226830676198" lon="7.739078253507614">
        <ele>2082.8299999999999</ele>
        <time>2015-01-11T09:48:49Z</time>
      </trkpt>
      <trkpt lat="45.884375106543303" lon="7.739176321774721">
        <ele>2084.2800000000002</ele>
        <time>2015-01-11T09:49:07Z</time>
      </trkpt>
      <trkpt lat="45.884496560320258" lon="7.73921730928123">
        <ele>2085.2399999999998</ele>
        <time>2015-01-11T09:49:22Z</time>
      </trkpt>
      <trkpt lat="45.884560598060489" lon="7.739249244332314">
        <ele>2085.7199999999998</ele>
        <time>2015-01-11T09:49:33Z</time>
      </trkpt>
      <trkpt lat="45.884716250002384" lon="7.739382432773709">
        <ele>2086.6799999999998</ele>
        <time>2015-01-11T09:49:52Z</time>
      </trkpt>
      <trkpt lat="45.884840218350291" lon="7.739509250968695">
        <ele>2088.5999999999999</ele>
        <time>2015-01-11T09:50:07Z</time>
      </trkpt>
      <trkpt lat="45.884924121201038" lon="7.739622406661511">
        <ele>2090.04</ele>
        <time>2015-01-11T09:50:22Z</time>
      </trkpt>
      <trkpt lat="45.88503903709352" lon="7.739721229299903">
        <ele>2091.4899999999998</ele>
        <time>2015-01-11T09:50:37Z</time>
      </trkpt>
      <trkpt lat="45.885143307968974" lon="7.739807227626443">
        <ele>2093.4099999999999</ele>
        <time>2015-01-11T09:50:51Z</time>
      </trkpt>
      <trkpt lat="45.885246070101857" lon="7.739839665591717">
        <ele>2093.8899999999999</ele>
        <time>2015-01-11T09:51:05Z</time>
      </trkpt>
      <trkpt lat="45.885323351249099" lon="7.739870175719261">
        <ele>2097.25</ele>
        <time>2015-01-11T09:51:18Z</time>
      </trkpt>
      <trkpt lat="45.885328045114875" lon="7.739873863756657">
        <ele>2096.29</ele>
        <time>2015-01-11T09:51:19Z</time>
      </trkpt>
      <trkpt lat="45.885433573275805" lon="7.739919880405068">
        <ele>2097.25</ele>
        <time>2015-01-11T09:51:34Z</time>
      </trkpt>
      <trkpt lat="45.885461820289493" lon="7.739911833778024">
        <ele>2097.73</ele>
        <time>2015-01-11T09:51:38Z</time>
      </trkpt>
      <trkpt lat="45.885547818616033" lon="7.739960951730609">
        <ele>2098.6999999999998</ele>
        <time>2015-01-11T09:51:50Z</time>
      </trkpt>
      <trkpt lat="45.885646976530552" lon="7.74002306163311">
        <ele>2101.0999999999999</ele>
        <time>2015-01-11T09:52:05Z</time>
      </trkpt>
      <trkpt lat="45.885738087818027" lon="7.740082573145628">
        <ele>2102.0599999999999</ele>
        <time>2015-01-11T09:52:18Z</time>
      </trkpt>
      <trkpt lat="45.885771699249744" lon="7.74015155620873">
        <ele>2103.02</ele>
        <time>2015-01-11T09:52:31Z</time>
      </trkpt>
      <trkpt lat="45.885859206318855" lon="7.740227244794369">
        <ele>2104.46</ele>
        <time>2015-01-11T09:52:44Z</time>
      </trkpt>
      <trkpt lat="45.885943612083793" lon="7.740337383002043">
        <ele>2105.9099999999999</ele>
        <time>2015-01-11T09:52:59Z</time>
      </trkpt>
      <trkpt lat="45.886009410023689" lon="7.740346100181341">
        <ele>2107.3499999999999</ele>
        <time>2015-01-11T09:53:11Z</time>
      </trkpt>
      <trkpt lat="45.88608568534255" lon="7.740383902564645">
        <ele>2107.8299999999999</ele>
        <time>2015-01-11T09:53:24Z</time>
      </trkpt>
      <trkpt lat="45.886162715032697" lon="7.740452969446778">
        <ele>2110.23</ele>
        <time>2015-01-11T09:53:39Z</time>
      </trkpt>
      <trkpt lat="45.886254580691457" lon="7.740500243380666">
        <ele>2112.6300000000001</ele>
        <time>2015-01-11T09:53:54Z</time>
      </trkpt>
      <trkpt lat="45.886334795504808" lon="7.740538632497191">
        <ele>2115.04</ele>
        <time>2015-01-11T09:54:10Z</time>
      </trkpt>
      <trkpt lat="45.886316522955894" lon="7.740527065470815">
        <ele>2115.52</ele>
        <time>2015-01-11T09:54:21Z</time>
      </trkpt>
      <trkpt lat="45.886330772191286" lon="7.740582218393683">
        <ele>2116.48</ele>
        <time>2015-01-11T09:54:42Z</time>
      </trkpt>
      <trkpt lat="45.886437725275755" lon="7.740593366324902">
        <ele>2118.8800000000001</ele>
        <time>2015-01-11T09:54:58Z</time>
      </trkpt>
      <trkpt lat="45.886499667540193" lon="7.740551121532917">
        <ele>2120.8099999999999</ele>
        <time>2015-01-11T09:55:11Z</time>
      </trkpt>
      <trkpt lat="45.886543337255716" lon="7.740602418780327">
        <ele>2121.77</ele>
        <time>2015-01-11T09:55:23Z</time>
      </trkpt>
      <trkpt lat="45.886571248993278" lon="7.740646507591009">
        <ele>2123.21</ele>
        <time>2015-01-11T09:55:36Z</time>
      </trkpt>
      <trkpt lat="45.886582816019654" lon="7.740673497319222">
        <ele>2123.6900000000001</ele>
        <time>2015-01-11T09:55:49Z</time>
      </trkpt>
      <trkpt lat="45.886613577604294" lon="7.740663941949606">
        <ele>2124.6500000000001</ele>
        <time>2015-01-11T09:56:01Z</time>
      </trkpt>
      <trkpt lat="45.886647356674075" lon="7.74071884341538">
        <ele>2124.6500000000001</ele>
        <time>2015-01-11T09:56:13Z</time>
      </trkpt>
      <trkpt lat="45.886657331138849" lon="7.740674084052444">
        <ele>2124.6500000000001</ele>
        <time>2015-01-11T09:56:26Z</time>
      </trkpt>
      <trkpt lat="45.886699575930834" lon="7.740654051303864">
        <ele>2125.1300000000001</ele>
        <time>2015-01-11T09:56:38Z</time>
      </trkpt>
      <trkpt lat="45.886730505153537" lon="7.740682968869805">
        <ele>2125.6100000000001</ele>
        <time>2015-01-11T09:56:51Z</time>
      </trkpt>
      <trkpt lat="45.886766714975238" lon="7.740679616108537">
        <ele>2126.5700000000002</ele>
        <time>2015-01-11T09:57:05Z</time>
      </trkpt>
      <trkpt lat="45.886796386912465" lon="7.740650866180658">
        <ele>2126.5700000000002</ele>
        <time>2015-01-11T09:57:22Z</time>
      </trkpt>
      <trkpt lat="45.886841481551528" lon="7.740696296095848">
        <ele>2127.0500000000002</ele>
        <time>2015-01-11T09:57:37Z</time>
      </trkpt>
      <trkpt lat="45.88686453178525" lon="7.740663774311543">
        <ele>2128.5</ele>
        <time>2015-01-11T09:57:49Z</time>
      </trkpt>
      <trkpt lat="45.886904094368219" lon="7.740665785968304">
        <ele>2129.46</ele>
        <time>2015-01-11T09:58:02Z</time>
      </trkpt>
      <trkpt lat="45.886932844296098" lon="7.740677939727902">
        <ele>2130.9000000000001</ele>
        <time>2015-01-11T09:58:14Z</time>
      </trkpt>
      <trkpt lat="45.886946171522141" lon="7.740667127072811">
        <ele>2131.8600000000001</ele>
        <time>2015-01-11T09:58:26Z</time>
      </trkpt>
      <trkpt lat="45.886956313624978" lon="7.740690261125565">
        <ele>2132.8200000000002</ele>
        <time>2015-01-11T09:58:39Z</time>
      </trkpt>
      <trkpt lat="45.886972825974226" lon="7.740690344944596">
        <ele>2134.2600000000002</ele>
        <time>2015-01-11T09:58:51Z</time>
      </trkpt>
      <trkpt lat="45.886949356645346" lon="7.740671988576651">
        <ele>2134.2600000000002</ele>
        <time>2015-01-11T09:59:06Z</time>
      </trkpt>
      <trkpt lat="45.886930078268051" lon="7.740672575309873">
        <ele>2133.7800000000002</ele>
        <time>2015-01-11T09:59:26Z</time>
      </trkpt>
      <trkpt lat="45.886927228420973" lon="7.740691769868136">
        <ele>2132.3400000000001</ele>
        <time>2015-01-11T09:59:44Z</time>
      </trkpt>
      <trkpt lat="45.886952625587583" lon="7.740677939727902">
        <ele>2132.3400000000001</ele>
        <time>2015-01-11T10:00:07Z</time>
      </trkpt>
      <trkpt lat="45.886997301131487" lon="7.740684142336249">
        <ele>2134.2600000000002</ele>
        <time>2015-01-11T10:00:19Z</time>
      </trkpt>
      <trkpt lat="45.887029906734824" lon="7.74067584425211">
        <ele>2134.7399999999998</ele>
        <time>2015-01-11T10:00:31Z</time>
      </trkpt>
      <trkpt lat="45.887068379670382" lon="7.740726638585329">
        <ele>2137.1500000000001</ele>
        <time>2015-01-11T10:00:46Z</time>
      </trkpt>
      <trkpt lat="45.887100985273719" lon="7.740697888657451">
        <ele>2138.5900000000001</ele>
        <time>2015-01-11T10:00:57Z</time>
      </trkpt>
      <trkpt lat="45.887125376611948" lon="7.740769051015377">
        <ele>2139.0700000000002</ele>
        <time>2015-01-11T10:01:10Z</time>
      </trkpt>
      <trkpt lat="45.887106768786907" lon="7.740723034366965">
        <ele>2139.5500000000002</ele>
        <time>2015-01-11T10:01:28Z</time>
      </trkpt>
      <trkpt lat="45.887117916718125" lon="7.740740468725562">
        <ele>2140.0300000000002</ele>
        <time>2015-01-11T10:01:39Z</time>
      </trkpt>
      <trkpt lat="45.887160915881395" lon="7.740765530616045">
        <ele>2140.5100000000002</ele>
        <time>2015-01-11T10:01:54Z</time>
      </trkpt>
      <trkpt lat="45.887189665809274" lon="7.740863934159279">
        <ele>2142.9200000000001</ele>
        <time>2015-01-11T10:02:05Z</time>
      </trkpt>
      <trkpt lat="45.887221600860357" lon="7.740905424579978">
        <ele>2145.8000000000002</ele>
        <time>2015-01-11T10:02:18Z</time>
      </trkpt>
      <trkpt lat="45.887258565053344" lon="7.74091187864542">
        <ele>2146.7600000000002</ele>
        <time>2015-01-11T10:02:32Z</time>
      </trkpt>
      <trkpt lat="45.887291170656681" lon="7.740885308012366">
        <ele>2147.2399999999998</ele>
        <time>2015-01-11T10:02:37Z</time>
      </trkpt>
      <trkpt lat="45.887320088222623" lon="7.740860665217042">
        <ele>2148.1999999999998</ele>
        <time>2015-01-11T10:02:51Z</time>
      </trkpt>
      <trkpt lat="45.887341294437647" lon="7.740841889753938">
        <ele>2148.6799999999998</ele>
        <time>2015-01-11T10:02:55Z</time>
      </trkpt>
      <trkpt lat="45.887431232258677" lon="7.740867789834738">
        <ele>2148.6799999999998</ele>
        <time>2015-01-11T10:03:08Z</time>
      </trkpt>
      <trkpt lat="45.887505244463682" lon="7.740931324660778">
        <ele>2150.6100000000001</ele>
        <time>2015-01-11T10:03:22Z</time>
      </trkpt>
      <trkpt lat="45.887543214485049" lon="7.740926798433065">
        <ele>2152.0500000000002</ele>
        <time>2015-01-11T10:03:32Z</time>
      </trkpt>
      <trkpt lat="45.887595349922776" lon="7.74092017672956">
        <ele>2152.5300000000002</ele>
        <time>2015-01-11T10:03:44Z</time>
      </trkpt>
      <trkpt lat="45.887644132599235" lon="7.740943310782313">
        <ele>2153.4899999999998</ele>
        <time>2015-01-11T10:03:55Z</time>
      </trkpt>
      <trkpt lat="45.887705823406577" lon="7.740956302732229">
        <ele>2153.0100000000002</ele>
        <time>2015-01-11T10:04:08Z</time>
      </trkpt>
      <trkpt lat="45.887762065976858" lon="7.741009192541242">
        <ele>2153.4899999999998</ele>
        <time>2015-01-11T10:04:21Z</time>
      </trkpt>
      <trkpt lat="45.887810010462999" lon="7.741063591092825">
        <ele>2155.8899999999999</ele>
        <time>2015-01-11T10:04:36Z</time>
      </trkpt>
      <trkpt lat="45.88784521445632" lon="7.741102147847414">
        <ele>2155.8899999999999</ele>
        <time>2015-01-11T10:04:47Z</time>
      </trkpt>
      <trkpt lat="45.887907072901726" lon="7.741130478680134">
        <ele>2156.8600000000001</ele>
        <time>2015-01-11T10:05:00Z</time>
      </trkpt>
      <trkpt lat="45.887948395684361" lon="7.74115277454257">
        <ele>2156.3699999999999</ele>
        <time>2015-01-11T10:05:11Z</time>
      </trkpt>
      <trkpt lat="45.887996759265661" lon="7.741184374317527">
        <ele>2157.8200000000002</ele>
        <time>2015-01-11T10:05:25Z</time>
      </trkpt>
      <trkpt lat="45.888036321848631" lon="7.741220919415355">
        <ele>2157.8200000000002</ele>
        <time>2015-01-11T10:05:36Z</time>
      </trkpt>
      <trkpt lat="45.888075716793537" lon="7.741238521412015">
        <ele>2158.3000000000002</ele>
        <time>2015-01-11T10:05:44Z</time>
      </trkpt>
      <trkpt lat="45.888116788119078" lon="7.741244556382299">
        <ele>2161.6599999999999</ele>
        <time>2015-01-11T10:05:56Z</time>
      </trkpt>
      <trkpt lat="45.888151153922081" lon="7.741257464513183">
        <ele>2162.6199999999999</ele>
        <time>2015-01-11T10:06:08Z</time>
      </trkpt>
      <trkpt lat="45.888172192499042" lon="7.741281185299158">
        <ele>2164.0599999999999</ele>
        <time>2015-01-11T10:06:16Z</time>
      </trkpt>
      <trkpt lat="45.888216616585851" lon="7.741270372644067">
        <ele>2165.0300000000002</ele>
        <time>2015-01-11T10:06:27Z</time>
      </trkpt>
      <trkpt lat="45.88821167126298" lon="7.741271043196321">
        <ele>2163.5799999999999</ele>
        <time>2015-01-11T10:06:35Z</time>
      </trkpt>
      <trkpt lat="45.888253748416901" lon="7.741261655464768">
        <ele>2166.4699999999998</ele>
        <time>2015-01-11T10:06:47Z</time>
      </trkpt>
      <trkpt lat="45.8882727753371" lon="7.741243047639728">
        <ele>2168.3899999999999</ele>
        <time>2015-01-11T10:06:52Z</time>
      </trkpt>
      <trkpt lat="45.888318791985512" lon="7.741288561373949">
        <ele>2166.9499999999998</ele>
        <time>2015-01-11T10:07:05Z</time>
      </trkpt>
      <trkpt lat="45.888359947130084" lon="7.741273893043399">
        <ele>2167.9099999999999</ele>
        <time>2015-01-11T10:07:16Z</time>
      </trkpt>
      <trkpt lat="45.888321893289685" lon="7.741256542503834">
        <ele>2167.9099999999999</ele>
        <time>2015-01-11T10:07:31Z</time>
      </trkpt>
      <trkpt lat="45.88831577450037" lon="7.741209603846073">
        <ele>2168.3899999999999</ele>
        <time>2015-01-11T10:07:41Z</time>
      </trkpt>
      <trkpt lat="45.888322647660971" lon="7.741145147010684">
        <ele>2169.8299999999999</ele>
        <time>2015-01-11T10:07:54Z</time>
      </trkpt>
      <trkpt lat="45.88828501291573" lon="7.741106003522873">
        <ele>2170.79</ele>
        <time>2015-01-11T10:08:06Z</time>
      </trkpt>
      <trkpt lat="45.888248551636934" lon="7.741046911105514">
        <ele>2170.3099999999999</ele>
        <time>2015-01-11T10:08:21Z</time>
      </trkpt>
      <trkpt lat="45.888243019580841" lon="7.740993769839406">
        <ele>2170.3099999999999</ele>
        <time>2015-01-11T10:08:32Z</time>
      </trkpt>
      <trkpt lat="45.888250814750791" lon="7.740967283025384">
        <ele>2171.7600000000002</ele>
        <time>2015-01-11T10:08:44Z</time>
      </trkpt>
      <trkpt lat="45.888272523880005" lon="7.74096610955894">
        <ele>2172.7199999999998</ele>
        <time>2015-01-11T10:08:58Z</time>
      </trkpt>
      <trkpt lat="45.888295909389853" lon="7.740970551967621">
        <ele>2174.1599999999999</ele>
        <time>2015-01-11T10:09:15Z</time>
      </trkpt>
      <trkpt lat="45.888348547741771" lon="7.741008521988988">
        <ele>2175.1199999999999</ele>
        <time>2015-01-11T10:09:27Z</time>
      </trkpt>
      <trkpt lat="45.88832507841289" lon="7.741018664091826">
        <ele>2176.0799999999999</ele>
        <time>2015-01-11T10:09:41Z</time>
      </trkpt>
      <trkpt lat="45.888308482244611" lon="7.741038110107184">
        <ele>2176.5599999999999</ele>
        <time>2015-01-11T10:09:53Z</time>
      </trkpt>
      <trkpt lat="45.888333879411221" lon="7.741021430119872">
        <ele>2178.9699999999998</ele>
        <time>2015-01-11T10:10:18Z</time>
      </trkpt>
      <trkpt lat="45.888412334024906" lon="7.741027548909187">
        <ele>2179.9299999999998</ele>
        <time>2015-01-11T10:10:30Z</time>
      </trkpt>
      <trkpt lat="45.888464972376823" lon="7.741044396534562">
        <ele>2181.3699999999999</ele>
        <time>2015-01-11T10:10:42Z</time>
      </trkpt>
      <trkpt lat="45.888559687882662" lon="7.741105584427714">
        <ele>2183.77</ele>
        <time>2015-01-11T10:10:57Z</time>
      </trkpt>
      <trkpt lat="45.888623474165797" lon="7.741123354062438">
        <ele>2185.21</ele>
        <time>2015-01-11T10:11:10Z</time>
      </trkpt>
      <trkpt lat="45.888730762526393" lon="7.741148080676794">
        <ele>2187.6199999999999</ele>
        <time>2015-01-11T10:11:27Z</time>
      </trkpt>
      <trkpt lat="45.888807876035571" lon="7.741150762885809">
        <ele>2189.0599999999999</ele>
        <time>2015-01-11T10:11:41Z</time>
      </trkpt>
      <trkpt lat="45.888889683410525" lon="7.741209268569946">
        <ele>2191.46</ele>
        <time>2015-01-11T10:11:57Z</time>
      </trkpt>
      <trkpt lat="45.888973418623209" lon="7.7412842027843">
        <ele>2191.9400000000001</ele>
        <time>2015-01-11T10:12:12Z</time>
      </trkpt>
      <trkpt lat="45.889030750840902" lon="7.741367099806666">
        <ele>2189.54</ele>
        <time>2015-01-11T10:12:22Z</time>
      </trkpt>
      <trkpt lat="45.889068469405174" lon="7.74145619943738">
        <ele>2190.02</ele>
        <time>2015-01-11T10:12:34Z</time>
      </trkpt>
      <trkpt lat="45.889058746397495" lon="7.741484697908163">
        <ele>2190.98</ele>
        <time>2015-01-11T10:12:48Z</time>
      </trkpt>
      <trkpt lat="45.889100739732385" lon="7.741513699293137">
        <ele>2190.98</ele>
        <time>2015-01-11T10:13:01Z</time>
      </trkpt>
      <trkpt lat="45.889146085828543" lon="7.741521075367928">
        <ele>2192.9000000000001</ele>
        <time>2015-01-11T10:13:08Z</time>
      </trkpt>
      <trkpt lat="45.889250272884965" lon="7.741572204977274">
        <ele>2192.9000000000001</ele>
        <time>2015-01-11T10:13:26Z</time>
      </trkpt>
      <trkpt lat="45.889251111075282" lon="7.741594249382615">
        <ele>2194.8299999999999</ele>
        <time>2015-01-11T10:13:31Z</time>
      </trkpt>
      <trkpt lat="45.889317831024528" lon="7.741610761731863">
        <ele>2198.1900000000001</ele>
        <time>2015-01-11T10:13:42Z</time>
      </trkpt>
      <trkpt lat="45.889387736096978" lon="7.741640517488122">
        <ele>2202.52</ele>
        <time>2015-01-11T10:13:55Z</time>
      </trkpt>
      <trkpt lat="45.889436937868595" lon="7.741625178605318">
        <ele>2201.5599999999999</ele>
        <time>2015-01-11T10:14:04Z</time>
      </trkpt>
      <trkpt lat="45.889544393867254" lon="7.741676056757569">
        <ele>2202.04</ele>
        <time>2015-01-11T10:14:19Z</time>
      </trkpt>
      <trkpt lat="45.889607928693295" lon="7.741651078686118">
        <ele>2204.4400000000001</ele>
        <time>2015-01-11T10:14:32Z</time>
      </trkpt>
      <trkpt lat="45.889654783532023" lon="7.741711596027017">
        <ele>2204.9200000000001</ele>
        <time>2015-01-11T10:14:44Z</time>
      </trkpt>
      <trkpt lat="45.889691496267915" lon="7.74175669066608">
        <ele>2205.8800000000001</ele>
        <time>2015-01-11T10:14:57Z</time>
      </trkpt>
      <trkpt lat="45.889722341671586" lon="7.741770269349217">
        <ele>2210.21</ele>
        <time>2015-01-11T10:15:07Z</time>
      </trkpt>
      <trkpt lat="45.889732483774424" lon="7.741773286834359">
        <ele>2203.96</ele>
        <time>2015-01-11T10:15:09Z</time>
      </trkpt>
      <trkpt lat="45.889737764373422" lon="7.741774125024676">
        <ele>2205.8800000000001</ele>
        <time>2015-01-11T10:15:10Z</time>
      </trkpt>
      <trkpt lat="45.889750756323338" lon="7.741788038983941">
        <ele>2209.25</ele>
        <time>2015-01-11T10:15:14Z</time>
      </trkpt>
      <trkpt lat="45.889799371361732" lon="7.741821315139532">
        <ele>2210.6900000000001</ele>
        <time>2015-01-11T10:15:28Z</time>
      </trkpt>
      <trkpt lat="45.889845807105303" lon="7.741888873279095">
        <ele>2213.5700000000002</ele>
        <time>2015-01-11T10:15:44Z</time>
      </trkpt>
      <trkpt lat="45.889911772683263" lon="7.741929022595286">
        <ele>2215.98</ele>
        <time>2015-01-11T10:16:01Z</time>
      </trkpt>
      <trkpt lat="45.889932475984097" lon="7.741935392841697">
        <ele>2216.9400000000001</ele>
        <time>2015-01-11T10:16:16Z</time>
      </trkpt>
      <trkpt lat="45.889945635572076" lon="7.741950480267406">
        <ele>2218.3800000000001</ele>
        <time>2015-01-11T10:16:32Z</time>
      </trkpt>
      <trkpt lat="45.88991210795939" lon="7.741939835250378">
        <ele>2218.3800000000001</ele>
        <time>2015-01-11T10:17:00Z</time>
      </trkpt>
      <trkpt lat="45.889940690249205" lon="7.741947546601296">
        <ele>2218.8600000000001</ele>
        <time>2015-01-11T10:17:23Z</time>
      </trkpt>
      <trkpt lat="45.88996927253902" lon="7.741965064778924">
        <ele>2220.3000000000002</ele>
        <time>2015-01-11T10:17:35Z</time>
      </trkpt>
      <trkpt lat="45.890043536201119" lon="7.74201032705605">
        <ele>2219.8200000000002</ele>
        <time>2015-01-11T10:17:50Z</time>
      </trkpt>
      <trkpt lat="45.890089133754373" lon="7.742040753364563">
        <ele>2219.8200000000002</ele>
        <time>2015-01-11T10:18:04Z</time>
      </trkpt>
      <trkpt lat="45.890115033835173" lon="7.742056343704462">
        <ele>2217.9000000000001</ele>
        <time>2015-01-11T10:18:19Z</time>
      </trkpt>
      <trkpt lat="45.89013104327023" lon="7.742056008428335">
        <ele>2219.3400000000001</ele>
        <time>2015-01-11T10:18:22Z</time>
      </trkpt>
      <trkpt lat="45.890173958614469" lon="7.742051146924496">
        <ele>2220.7800000000002</ele>
        <time>2015-01-11T10:18:30Z</time>
      </trkpt>
      <trkpt lat="45.890226429328322" lon="7.742120800539851">
        <ele>2224.1500000000001</ele>
        <time>2015-01-11T10:18:42Z</time>
      </trkpt>
      <trkpt lat="45.890245959162712" lon="7.74220185354352">
        <ele>2226.5500000000002</ele>
        <time>2015-01-11T10:18:53Z</time>
      </trkpt>
      <trkpt lat="45.890320641919971" lon="7.742272093892098">
        <ele>2225.5900000000001</ele>
        <time>2015-01-11T10:19:05Z</time>
      </trkpt>
      <trkpt lat="45.890333633869886" lon="7.742278296500444">
        <ele>2228.4699999999998</ele>
        <time>2015-01-11T10:19:08Z</time>
      </trkpt>
      <trkpt lat="45.890369676053524" lon="7.74230545386672">
        <ele>2228.9499999999998</ele>
        <time>2015-01-11T10:19:19Z</time>
      </trkpt>
      <trkpt lat="45.890396162867546" lon="7.742312662303448">
        <ele>2232.8000000000002</ele>
        <time>2015-01-11T10:19:25Z</time>
      </trkpt>
      <trkpt lat="45.890422062948346" lon="7.7423186134547">
        <ele>2227.9899999999998</ele>
        <time>2015-01-11T10:19:30Z</time>
      </trkpt>
      <trkpt lat="45.890424828976393" lon="7.742324648424983">
        <ele>2228.4699999999998</ele>
        <time>2015-01-11T10:19:31Z</time>
      </trkpt>
      <trkpt lat="45.890423068776727" lon="7.742339316755533">
        <ele>2231.3600000000001</ele>
        <time>2015-01-11T10:19:42Z</time>
      </trkpt>
      <trkpt lat="45.890403287485242" lon="7.742354236543179">
        <ele>2232.3200000000002</ele>
        <time>2015-01-11T10:19:47Z</time>
      </trkpt>
      <trkpt lat="45.890390295535326" lon="7.742353063076735">
        <ele>2229.4299999999998</ele>
        <time>2015-01-11T10:19:53Z</time>
      </trkpt>
      <trkpt lat="45.890381913632154" lon="7.742358176037669">
        <ele>2226.5500000000002</ele>
        <time>2015-01-11T10:19:56Z</time>
      </trkpt>
      <trkpt lat="45.890392391011119" lon="7.742348033934832">
        <ele>2233.7600000000002</ele>
        <time>2015-01-11T10:19:58Z</time>
      </trkpt>
      <trkpt lat="45.890395576134324" lon="7.742336802184582">
        <ele>2233.2800000000002</ele>
        <time>2015-01-11T10:19:59Z</time>
      </trkpt>
      <trkpt lat="45.890403455123305" lon="7.742317356169224">
        <ele>2234.2399999999998</ele>
        <time>2015-01-11T10:20:06Z</time>
      </trkpt>
      <trkpt lat="45.890389541164041" lon="7.742254575714469">
        <ele>2236.6399999999999</ele>
        <time>2015-01-11T10:20:17Z</time>
      </trkpt>
      <trkpt lat="45.890401443466544" lon="7.742273099720478">
        <ele>2231.8400000000001</ele>
        <time>2015-01-11T10:20:26Z</time>
      </trkpt>
      <trkpt lat="45.890383925288916" lon="7.742278799414635">
        <ele>2235.1999999999998</ele>
        <time>2015-01-11T10:20:37Z</time>
      </trkpt>
      <trkpt lat="45.89037386700511" lon="7.742273434996605">
        <ele>2238.0900000000001</ele>
        <time>2015-01-11T10:20:42Z</time>
      </trkpt>
      <trkpt lat="45.890379901975393" lon="7.742254910990596">
        <ele>2238.5700000000002</ele>
        <time>2015-01-11T10:20:50Z</time>
      </trkpt>
      <trkpt lat="45.890386272221804" lon="7.742276955395937">
        <ele>2239.5300000000002</ele>
        <time>2015-01-11T10:20:54Z</time>
      </trkpt>
      <trkpt lat="45.89040270075202" lon="7.74227955378592">
        <ele>2236.1599999999999</ele>
        <time>2015-01-11T10:21:03Z</time>
      </trkpt>
      <trkpt lat="45.890398342162371" lon="7.742276452481747">
        <ele>2236.1599999999999</ele>
        <time>2015-01-11T10:21:04Z</time>
      </trkpt>
      <trkpt lat="45.890389457345009" lon="7.742273099720478">
        <ele>2236.1599999999999</ele>
        <time>2015-01-11T10:21:15Z</time>
      </trkpt>
      <trkpt lat="45.89038610458374" lon="7.742265220731497">
        <ele>2238.5700000000002</ele>
        <time>2015-01-11T10:21:18Z</time>
      </trkpt>
      <trkpt lat="45.890389708802104" lon="7.74226245470345">
        <ele>2235.1999999999998</ele>
        <time>2015-01-11T10:21:26Z</time>
      </trkpt>
      <trkpt lat="45.890385769307613" lon="7.742271088063717">
        <ele>2233.7600000000002</ele>
        <time>2015-01-11T10:21:28Z</time>
      </trkpt>
      <trkpt lat="45.890384763479233" lon="7.742268657311797">
        <ele>2239.5300000000002</ele>
        <time>2015-01-11T10:21:31Z</time>
      </trkpt>
      <trkpt lat="45.890382248908281" lon="7.742272429168224">
        <ele>2237.6100000000001</ele>
        <time>2015-01-11T10:21:32Z</time>
      </trkpt>
      <trkpt lat="45.89038266800344" lon="7.742273351177573">
        <ele>2234.2399999999998</ele>
        <time>2015-01-11T10:21:34Z</time>
      </trkpt>
      <trkpt lat="45.890384260565042" lon="7.742281230166555">
        <ele>2230.4000000000001</ele>
        <time>2015-01-11T10:21:41Z</time>
      </trkpt>
      <trkpt lat="45.890381326898932" lon="7.74228785187006">
        <ele>2230.4000000000001</ele>
        <time>2015-01-11T10:21:42Z</time>
      </trkpt>
      <trkpt lat="45.890400018543005" lon="7.742283744737506">
        <ele>2229.9200000000001</ele>
        <time>2015-01-11T10:21:58Z</time>
      </trkpt>
      <trkpt lat="45.89040077291429" lon="7.742293048650026">
        <ele>2232.8000000000002</ele>
        <time>2015-01-11T10:22:01Z</time>
      </trkpt>
      <trkpt lat="45.890397587791085" lon="7.742305789142847">
        <ele>2229.9200000000001</ele>
        <time>2015-01-11T10:22:06Z</time>
      </trkpt>
      <trkpt lat="45.890388283878565" lon="7.742278296500444">
        <ele>2234.7199999999998</ele>
        <time>2015-01-11T10:22:17Z</time>
      </trkpt>
      <trkpt lat="45.890392893925309" lon="7.742265975102782">
        <ele>2236.1599999999999</ele>
        <time>2015-01-11T10:22:21Z</time>
      </trkpt>
      <trkpt lat="45.890394318848848" lon="7.742269076406956">
        <ele>2232.8000000000002</ele>
        <time>2015-01-11T10:22:23Z</time>
      </trkpt>
      <trkpt lat="45.890388367697597" lon="7.742271339520812">
        <ele>2233.2800000000002</ele>
        <time>2015-01-11T10:22:37Z</time>
      </trkpt>
      <trkpt lat="45.890387613326311" lon="7.742276703938842">
        <ele>2229.9200000000001</ele>
        <time>2015-01-11T10:22:42Z</time>
      </trkpt>
      <trkpt lat="45.890388870611787" lon="7.74227318353951">
        <ele>2234.2399999999998</ele>
        <time>2015-01-11T10:22:43Z</time>
      </trkpt>
      <trkpt lat="45.890389457345009" lon="7.742278715595603">
        <ele>2231.8400000000001</ele>
        <time>2015-01-11T10:22:53Z</time>
      </trkpt>
      <trkpt lat="45.890385853126645" lon="7.74227854795754">
        <ele>2233.7600000000002</ele>
        <time>2015-01-11T10:22:59Z</time>
      </trkpt>
      <trkpt lat="45.890387194231153" lon="7.742273602634668">
        <ele>2232.8000000000002</ele>
        <time>2015-01-11T10:23:01Z</time>
      </trkpt>
      <trkpt lat="45.890387697145343" lon="7.742284666746855">
        <ele>2233.2800000000002</ele>
        <time>2015-01-11T10:23:13Z</time>
      </trkpt>
      <trkpt lat="45.890393061563373" lon="7.742291372269392">
        <ele>2231.3600000000001</ele>
        <time>2015-01-11T10:23:17Z</time>
      </trkpt>
      <trkpt lat="45.890381410717964" lon="7.742283325642347">
        <ele>2233.2800000000002</ele>
        <time>2015-01-11T10:23:27Z</time>
      </trkpt>
      <trkpt lat="45.89038074016571" lon="7.742274608463049">
        <ele>2233.7600000000002</ele>
        <time>2015-01-11T10:23:32Z</time>
      </trkpt>
      <trkpt lat="45.890367915853858" lon="7.742240745574236">
        <ele>2230.4000000000001</ele>
        <time>2015-01-11T10:23:44Z</time>
      </trkpt>
      <trkpt lat="45.890367748215795" lon="7.742264633998275">
        <ele>2233.7600000000002</ele>
        <time>2015-01-11T10:23:53Z</time>
      </trkpt>
      <trkpt lat="45.890363473445177" lon="7.74226438254118">
        <ele>2236.1599999999999</ele>
        <time>2015-01-11T10:23:58Z</time>
      </trkpt>
      <trkpt lat="45.890352744609118" lon="7.742248456925154">
        <ele>2232.8000000000002</ele>
        <time>2015-01-11T10:24:06Z</time>
      </trkpt>
      <trkpt lat="45.890352744609118" lon="7.742248037829995">
        <ele>2236.1599999999999</ele>
        <time>2015-01-11T10:24:07Z</time>
      </trkpt>
      <trkpt lat="45.890351738780737" lon="7.742253988981247">
        <ele>2232.3200000000002</ele>
        <time>2015-01-11T10:24:08Z</time>
      </trkpt>
      <trkpt lat="45.890345452353358" lon="7.742254575714469">
        <ele>2237.6100000000001</ele>
        <time>2015-01-11T10:24:09Z</time>
      </trkpt>
      <trkpt lat="45.890345368534327" lon="7.742263879626989">
        <ele>2238.5700000000002</ele>
        <time>2015-01-11T10:24:11Z</time>
      </trkpt>
      <trkpt lat="45.890350984409451" lon="7.742261113598943">
        <ele>2242.4099999999999</ele>
        <time>2015-01-11T10:24:17Z</time>
      </trkpt>
      <trkpt lat="45.890348888933659" lon="7.742261113598943">
        <ele>2243.8499999999999</ele>
        <time>2015-01-11T10:24:19Z</time>
      </trkpt>
      <trkpt lat="45.890354420989752" lon="7.742248876020312">
        <ele>2239.0500000000002</ele>
        <time>2015-01-11T10:24:25Z</time>
      </trkpt>
      <trkpt lat="45.890352074056864" lon="7.742254827171564">
        <ele>2235.6799999999998</ele>
        <time>2015-01-11T10:24:39Z</time>
      </trkpt>
      <trkpt lat="45.890350397676229" lon="7.742253737524152">
        <ele>2235.6799999999998</ele>
        <time>2015-01-11T10:24:40Z</time>
      </trkpt>
      <trkpt lat="45.890366239473224" lon="7.742247618734837">
        <ele>2239.0500000000002</ele>
        <time>2015-01-11T10:24:45Z</time>
      </trkpt>
      <trkpt lat="45.890359953045845" lon="7.742252396419644">
        <ele>2235.1999999999998</ele>
        <time>2015-01-11T10:24:47Z</time>
      </trkpt>
      <trkpt lat="45.890358025208116" lon="7.742252061143518">
        <ele>2235.1999999999998</ele>
        <time>2015-01-11T10:24:48Z</time>
      </trkpt>
      <trkpt lat="45.8903519064188" lon="7.742254324257374">
        <ele>2240.0100000000002</ele>
        <time>2015-01-11T10:24:50Z</time>
      </trkpt>
      <trkpt lat="45.890354001894593" lon="7.742252983152866">
        <ele>2236.6399999999999</ele>
        <time>2015-01-11T10:24:51Z</time>
      </trkpt>
      <trkpt lat="45.890361294150352" lon="7.742242170497775">
        <ele>2240.4899999999998</ele>
        <time>2015-01-11T10:24:53Z</time>
      </trkpt>
      <trkpt lat="45.89035919867456" lon="7.742241332307458">
        <ele>2239.5300000000002</ele>
        <time>2015-01-11T10:24:54Z</time>
      </trkpt>
      <trkpt lat="45.890364898368716" lon="7.742246948182583">
        <ele>2236.6399999999999</ele>
        <time>2015-01-11T10:24:56Z</time>
      </trkpt>
      <trkpt lat="45.89036263525486" lon="7.742244936525822">
        <ele>2240.4899999999998</ele>
        <time>2015-01-11T10:25:07Z</time>
      </trkpt>
      <trkpt lat="45.890354001894593" lon="7.742255413904786">
        <ele>2240.4899999999998</ele>
        <time>2015-01-11T10:25:12Z</time>
      </trkpt>
      <trkpt lat="45.890355510637164" lon="7.742263041436672">
        <ele>2235.6799999999998</ele>
        <time>2015-01-11T10:25:14Z</time>
      </trkpt>
      <trkpt lat="45.890335394069552" lon="7.74228835478425">
        <ele>2232.8000000000002</ele>
        <time>2015-01-11T10:25:21Z</time>
      </trkpt>
      <trkpt lat="45.890327515080571" lon="7.742305034771562">
        <ele>2230.8800000000001</ele>
        <time>2015-01-11T10:25:32Z</time>
      </trkpt>
      <trkpt lat="45.890317792072892" lon="7.742302855476737">
        <ele>2229.4299999999998</ele>
        <time>2015-01-11T10:25:40Z</time>
      </trkpt>
      <trkpt lat="45.890280660241842" lon="7.742246026173234">
        <ele>2228.9499999999998</ele>
        <time>2015-01-11T10:25:50Z</time>
      </trkpt>
      <trkpt lat="45.890294155105948" lon="7.742223897948861">
        <ele>2229.9200000000001</ele>
        <time>2015-01-11T10:26:14Z</time>
      </trkpt>
      <trkpt lat="45.890271188691258" lon="7.742265639826655">
        <ele>2230.8800000000001</ele>
        <time>2015-01-11T10:26:32Z</time>
      </trkpt>
      <trkpt lat="45.890262303873897" lon="7.742329677566886">
        <ele>2231.3600000000001</ele>
        <time>2015-01-11T10:26:43Z</time>
      </trkpt>
      <trkpt lat="45.890264734625816" lon="7.742359600961208">
        <ele>2229.9200000000001</ele>
        <time>2015-01-11T10:27:00Z</time>
      </trkpt>
      <trkpt lat="45.890264986082911" lon="7.742371670901775">
        <ele>2230.8800000000001</ele>
        <time>2015-01-11T10:27:01Z</time>
      </trkpt>
      <trkpt lat="45.890225674957037" lon="7.742460435256362">
        <ele>2230.4000000000001</ele>
        <time>2015-01-11T10:27:13Z</time>
      </trkpt>
      <trkpt lat="45.89021310210228" lon="7.742462698370218">
        <ele>2233.7600000000002</ele>
        <time>2015-01-11T10:27:15Z</time>
      </trkpt>
      <trkpt lat="45.89021704159677" lon="7.742452723905444">
        <ele>2236.6399999999999</ele>
        <time>2015-01-11T10:27:21Z</time>
      </trkpt>
      <trkpt lat="45.890201283618808" lon="7.742457082495093">
        <ele>2239.5300000000002</ele>
        <time>2015-01-11T10:27:29Z</time>
      </trkpt>
      <trkpt lat="45.890200696885586" lon="7.742432691156864">
        <ele>2239.5300000000002</ele>
        <time>2015-01-11T10:27:37Z</time>
      </trkpt>
      <trkpt lat="45.890201032161713" lon="7.742415256798267">
        <ele>2235.6799999999998</ele>
        <time>2015-01-11T10:27:49Z</time>
      </trkpt>
      <trkpt lat="45.890208156779408" lon="7.742427913472056">
        <ele>2237.6100000000001</ele>
        <time>2015-01-11T10:27:52Z</time>
      </trkpt>
      <trkpt lat="45.890196422114968" lon="7.742429422214627">
        <ele>2240.9699999999998</ele>
        <time>2015-01-11T10:28:00Z</time>
      </trkpt>
      <trkpt lat="45.890196338295937" lon="7.742427410557866">
        <ele>2240.9699999999998</ele>
        <time>2015-01-11T10:28:01Z</time>
      </trkpt>
      <trkpt lat="45.890195919200778" lon="7.742426656186581">
        <ele>2237.6100000000001</ele>
        <time>2015-01-11T10:28:02Z</time>
      </trkpt>
      <trkpt lat="45.890196338295937" lon="7.74242321960628">
        <ele>2241.4499999999998</ele>
        <time>2015-01-11T10:28:03Z</time>
      </trkpt>
      <trkpt lat="45.890194745734334" lon="7.74241735227406">
        <ele>2237.6100000000001</ele>
        <time>2015-01-11T10:28:10Z</time>
      </trkpt>
      <trkpt lat="45.890194159001112" lon="7.742421962320805">
        <ele>2239.5300000000002</ele>
        <time>2015-01-11T10:28:13Z</time>
      </trkpt>
      <trkpt lat="45.890193656086922" lon="7.742424812167883">
        <ele>2239.0500000000002</ele>
        <time>2015-01-11T10:28:17Z</time>
      </trkpt>
      <trkpt lat="45.890196170657873" lon="7.7424256503582">
        <ele>2243.3699999999999</ele>
        <time>2015-01-11T10:28:19Z</time>
      </trkpt>
      <trkpt lat="45.89018871076405" lon="7.742434367537499">
        <ele>2239.5300000000002</ele>
        <time>2015-01-11T10:28:25Z</time>
      </trkpt>
      <trkpt lat="45.890187872573733" lon="7.742426991462708">
        <ele>2243.3699999999999</ele>
        <time>2015-01-11T10:28:27Z</time>
      </trkpt>
      <trkpt lat="45.890186615288258" lon="7.742426237091422">
        <ele>2243.3699999999999</ele>
        <time>2015-01-11T10:28:28Z</time>
      </trkpt>
      <trkpt lat="45.890186280012131" lon="7.7424256503582">
        <ele>2242.8899999999999</ele>
        <time>2015-01-11T10:28:33Z</time>
      </trkpt>
      <trkpt lat="45.890195332467556" lon="7.742430344223976">
        <ele>2240.0100000000002</ele>
        <time>2015-01-11T10:28:43Z</time>
      </trkpt>
      <trkpt lat="45.89019600301981" lon="7.742426740005612">
        <ele>2238.5700000000002</ele>
        <time>2015-01-11T10:28:48Z</time>
      </trkpt>
      <trkpt lat="45.890196086838841" lon="7.742433780804277">
        <ele>2233.2800000000002</ele>
        <time>2015-01-11T10:29:01Z</time>
      </trkpt>
      <trkpt lat="45.890195248648524" lon="7.742434199899435">
        <ele>2236.6399999999999</ele>
        <time>2015-01-11T10:29:03Z</time>
      </trkpt>
      <trkpt lat="45.890198182314634" lon="7.742436043918133">
        <ele>2236.1599999999999</ele>
        <time>2015-01-11T10:29:04Z</time>
      </trkpt>
      <trkpt lat="45.890225423499942" lon="7.742379885166884">
        <ele>2233.2800000000002</ele>
        <time>2015-01-11T10:29:14Z</time>
      </trkpt>
      <trkpt lat="45.890220981091261" lon="7.742387596517801">
        <ele>2227.0300000000002</ele>
        <time>2015-01-11T10:29:20Z</time>
      </trkpt>
      <trkpt lat="45.890234895050526" lon="7.742393715307117">
        <ele>2231.3600000000001</ele>
        <time>2015-01-11T10:29:23Z</time>
      </trkpt>
      <trkpt lat="45.890237325802445" lon="7.74239145219326">
        <ele>2232.3200000000002</ele>
        <time>2015-01-11T10:29:25Z</time>
      </trkpt>
      <trkpt lat="45.890232212841511" lon="7.742420369759202">
        <ele>2233.2800000000002</ele>
        <time>2015-01-11T10:29:42Z</time>
      </trkpt>
      <trkpt lat="45.890235146507621" lon="7.742431685328484">
        <ele>2230.8800000000001</ele>
        <time>2015-01-11T10:29:44Z</time>
      </trkpt>
      <trkpt lat="45.890282839536667" lon="7.742500249296427">
        <ele>2229.4299999999998</ele>
        <time>2015-01-11T10:29:53Z</time>
      </trkpt>
      <trkpt lat="45.890309074893594" lon="7.742600245401263">
        <ele>2230.4000000000001</ele>
        <time>2015-01-11T10:30:01Z</time>
      </trkpt>
      <trkpt lat="45.890354253351688" lon="7.742717759683728">
        <ele>2230.8800000000001</ele>
        <time>2015-01-11T10:30:12Z</time>
      </trkpt>
      <trkpt lat="45.890385936945677" lon="7.742758831009269">
        <ele>2230.8800000000001</ele>
        <time>2015-01-11T10:30:17Z</time>
      </trkpt>
      <trkpt lat="45.890431366860867" lon="7.742875088006258">
        <ele>2229.4299999999998</ele>
        <time>2015-01-11T10:30:28Z</time>
      </trkpt>
      <trkpt lat="45.890423320233822" lon="7.742968881502748">
        <ele>2232.8000000000002</ele>
        <time>2015-01-11T10:30:36Z</time>
      </trkpt>
      <trkpt lat="45.890459278598428" lon="7.743010791018605">
        <ele>2232.8000000000002</ele>
        <time>2015-01-11T10:30:43Z</time>
      </trkpt>
      <trkpt lat="45.890474449843168" lon="7.74305303581059">
        <ele>2232.3200000000002</ele>
        <time>2015-01-11T10:30:48Z</time>
      </trkpt>
      <trkpt lat="45.890456847846508" lon="7.743080025538802">
        <ele>2233.2800000000002</ele>
        <time>2015-01-11T10:31:02Z</time>
      </trkpt>
      <trkpt lat="45.89045450091362" lon="7.743097627535462">
        <ele>2236.6399999999999</ele>
        <time>2015-01-11T10:31:06Z</time>
      </trkpt>
      <trkpt lat="45.890449387952685" lon="7.74309704080224">
        <ele>2237.1300000000001</ele>
        <time>2015-01-11T10:31:08Z</time>
      </trkpt>
      <trkpt lat="45.890446119010448" lon="7.743097627535462">
        <ele>2241.4499999999998</ele>
        <time>2015-01-11T10:31:19Z</time>
      </trkpt>
      <trkpt lat="45.890447795391083" lon="7.743094358593226">
        <ele>2245.7800000000002</ele>
        <time>2015-01-11T10:31:21Z</time>
      </trkpt>
      <trkpt lat="45.89045106433332" lon="7.743086228147149">
        <ele>2241.9299999999998</ele>
        <time>2015-01-11T10:31:23Z</time>
      </trkpt>
      <trkpt lat="45.890449555590749" lon="7.743083294481039">
        <ele>2238.5700000000002</ele>
        <time>2015-01-11T10:31:24Z</time>
      </trkpt>
      <trkpt lat="45.89044670574367" lon="7.74307943880558">
        <ele>2236.1599999999999</ele>
        <time>2015-01-11T10:31:26Z</time>
      </trkpt>
      <trkpt lat="45.890450980514288" lon="7.743080612272024">
        <ele>2232.3200000000002</ele>
        <time>2015-01-11T10:31:30Z</time>
      </trkpt>
      <trkpt lat="45.890442011877894" lon="7.743135346099734">
        <ele>2232.8000000000002</ele>
        <time>2015-01-11T10:31:34Z</time>
      </trkpt>
      <trkpt lat="45.890434719622135" lon="7.743157641962171">
        <ele>2231.3600000000001</ele>
        <time>2015-01-11T10:31:36Z</time>
      </trkpt>
      <trkpt lat="45.890418542549014" lon="7.74321086704731">
        <ele>2235.1999999999998</ele>
        <time>2015-01-11T10:31:45Z</time>
      </trkpt>
      <trkpt lat="45.890407813712955" lon="7.743233414366841">
        <ele>2233.7600000000002</ele>
        <time>2015-01-11T10:31:50Z</time>
      </trkpt>
      <trkpt lat="45.890399934723973" lon="7.743254201486707">
        <ele>2235.1999999999998</ele>
        <time>2015-01-11T10:31:54Z</time>
      </trkpt>
      <trkpt lat="45.890417704358697" lon="7.743235845118761">
        <ele>2240.0100000000002</ele>
        <time>2015-01-11T10:32:06Z</time>
      </trkpt>
      <trkpt lat="45.890410663560033" lon="7.743241796270013">
        <ele>2239.0500000000002</ele>
        <time>2015-01-11T10:32:07Z</time>
      </trkpt>
      <trkpt lat="45.890418123453856" lon="7.743269624188542">
        <ele>2237.6100000000001</ele>
        <time>2015-01-11T10:32:10Z</time>
      </trkpt>
      <trkpt lat="45.890402868390083" lon="7.743318574503064">
        <ele>2238.5700000000002</ele>
        <time>2015-01-11T10:32:15Z</time>
      </trkpt>
      <trkpt lat="45.890384428203106" lon="7.743312288075686">
        <ele>2239.0500000000002</ele>
        <time>2015-01-11T10:32:21Z</time>
      </trkpt>
      <trkpt lat="45.890370514243841" lon="7.743300888687372">
        <ele>2240.9699999999998</ele>
        <time>2015-01-11T10:32:27Z</time>
      </trkpt>
      <trkpt lat="45.890373950824142" lon="7.743307091295719">
        <ele>2244.8200000000002</ele>
        <time>2015-01-11T10:32:32Z</time>
      </trkpt>
      <trkpt lat="45.890371352434158" lon="7.743299379944801">
        <ele>2240.9699999999998</ele>
        <time>2015-01-11T10:32:34Z</time>
      </trkpt>
      <trkpt lat="45.890363892540336" lon="7.743295105174184">
        <ele>2242.8899999999999</ele>
        <time>2015-01-11T10:32:43Z</time>
      </trkpt>
      <trkpt lat="45.890382751822472" lon="7.743300385773182">
        <ele>2246.2600000000002</ele>
        <time>2015-01-11T10:32:47Z</time>
      </trkpt>
      <trkpt lat="45.890373196452856" lon="7.743305834010243">
        <ele>2249.1399999999999</ele>
        <time>2015-01-11T10:32:49Z</time>
      </trkpt>
      <trkpt lat="45.890366239473224" lon="7.743301391601563">
        <ele>2250.0999999999999</ele>
        <time>2015-01-11T10:32:51Z</time>
      </trkpt>
      <trkpt lat="45.890357522293925" lon="7.743304157629609">
        <ele>2253.4699999999998</ele>
        <time>2015-01-11T10:32:53Z</time>
      </trkpt>
      <trkpt lat="45.890358192846179" lon="7.74330616928637">
        <ele>2257.3099999999999</ele>
        <time>2015-01-11T10:32:54Z</time>
      </trkpt>
      <trkpt lat="45.890361461788416" lon="7.743310779333115">
        <ele>2254.9099999999999</ele>
        <time>2015-01-11T10:32:55Z</time>
      </trkpt>
      <trkpt lat="45.890369256958365" lon="7.743295440450311">
        <ele>2251.0599999999999</ele>
        <time>2015-01-11T10:32:59Z</time>
      </trkpt>
      <trkpt lat="45.890374621376395" lon="7.74328806437552">
        <ele>2247.6999999999998</ele>
        <time>2015-01-11T10:33:00Z</time>
      </trkpt>
      <trkpt lat="45.890377974137664" lon="7.743282448500395">
        <ele>2247.2199999999998</ele>
        <time>2015-01-11T10:33:01Z</time>
      </trkpt>
      <trkpt lat="45.89036799967289" lon="7.743290411308408">
        <ele>2244.8200000000002</ele>
        <time>2015-01-11T10:33:12Z</time>
      </trkpt>
      <trkpt lat="45.890373196452856" lon="7.743288986384869">
        <ele>2249.1399999999999</ele>
        <time>2015-01-11T10:33:17Z</time>
      </trkpt>
      <trkpt lat="45.890367915853858" lon="7.743289656937122">
        <ele>2245.3000000000002</ele>
        <time>2015-01-11T10:33:19Z</time>
      </trkpt>
      <trkpt lat="45.890362970530987" lon="7.743287980556488">
        <ele>2239.5300000000002</ele>
        <time>2015-01-11T10:33:21Z</time>
      </trkpt>
      <trkpt lat="45.89036263525486" lon="7.743281861767173">
        <ele>2243.3699999999999</ele>
        <time>2015-01-11T10:33:25Z</time>
      </trkpt>
      <trkpt lat="45.890364730730653" lon="7.743287142366171">
        <ele>2244.8200000000002</ele>
        <time>2015-01-11T10:33:27Z</time>
      </trkpt>
      <trkpt lat="45.890361713245511" lon="7.743291584774852">
        <ele>2240.4899999999998</ele>
        <time>2015-01-11T10:33:30Z</time>
      </trkpt>
      <trkpt lat="45.89035777375102" lon="7.743295021355152">
        <ele>2240.4899999999998</ele>
        <time>2015-01-11T10:33:31Z</time>
      </trkpt>
      <trkpt lat="45.890358947217464" lon="7.743296194821596">
        <ele>2244.3299999999999</ele>
        <time>2015-01-11T10:33:33Z</time>
      </trkpt>
      <trkpt lat="45.890359869226813" lon="7.743294518440962">
        <ele>2243.3699999999999</ele>
        <time>2015-01-11T10:33:34Z</time>
      </trkpt>
      <trkpt lat="45.890358528122306" lon="7.743287058547139">
        <ele>2241.9299999999998</ele>
        <time>2015-01-11T10:33:38Z</time>
      </trkpt>
      <trkpt lat="45.890364143997431" lon="7.743281945586205">
        <ele>2243.8499999999999</ele>
        <time>2015-01-11T10:33:40Z</time>
      </trkpt>
      <trkpt lat="45.89036799967289" lon="7.743278006091714">
        <ele>2240.0100000000002</ele>
        <time>2015-01-11T10:33:45Z</time>
      </trkpt>
      <trkpt lat="45.890374286100268" lon="7.743282448500395">
        <ele>2244.8200000000002</ele>
        <time>2015-01-11T10:33:49Z</time>
      </trkpt>
      <trkpt lat="45.890376549214125" lon="7.743281777948141">
        <ele>2245.7800000000002</ele>
        <time>2015-01-11T10:33:51Z</time>
      </trkpt>
      <trkpt lat="45.890373531728983" lon="7.743269791826606">
        <ele>2250.0999999999999</ele>
        <time>2015-01-11T10:33:57Z</time>
      </trkpt>
      <trkpt lat="45.890371771529317" lon="7.74327339604497">
        <ele>2249.6199999999999</ele>
        <time>2015-01-11T10:33:58Z</time>
      </trkpt>
      <trkpt lat="45.890367664396763" lon="7.743275910615921">
        <ele>2244.8200000000002</ele>
        <time>2015-01-11T10:34:00Z</time>
      </trkpt>
      <trkpt lat="45.890362886711955" lon="7.743263253942132">
        <ele>2240.4899999999998</ele>
        <time>2015-01-11T10:34:08Z</time>
      </trkpt>
      <trkpt lat="45.890363305807114" lon="7.743273228406906">
        <ele>2243.8499999999999</ele>
        <time>2015-01-11T10:34:12Z</time>
      </trkpt>
      <trkpt lat="45.890364563092589" lon="7.743276245892048">
        <ele>2243.3699999999999</ele>
        <time>2015-01-11T10:34:13Z</time>
      </trkpt>
      <trkpt lat="45.890363221988082" lon="7.743273312225938">
        <ele>2242.4099999999999</ele>
        <time>2015-01-11T10:34:19Z</time>
      </trkpt>
      <trkpt lat="45.890371603891253" lon="7.743274485692382">
        <ele>2241.4499999999998</ele>
        <time>2015-01-11T10:34:22Z</time>
      </trkpt>
      <trkpt lat="45.890367748215795" lon="7.743268953636289">
        <ele>2238.5700000000002</ele>
        <time>2015-01-11T10:34:26Z</time>
      </trkpt>
      <trkpt lat="45.890365485101938" lon="7.743272641673684">
        <ele>2239.5300000000002</ele>
        <time>2015-01-11T10:34:30Z</time>
      </trkpt>
      <trkpt lat="45.890365233644843" lon="7.743283286690712">
        <ele>2242.8899999999999</ele>
        <time>2015-01-11T10:34:37Z</time>
      </trkpt>
      <trkpt lat="45.890364730730653" lon="7.743295188993216">
        <ele>2237.1300000000001</ele>
        <time>2015-01-11T10:34:39Z</time>
      </trkpt>
      <trkpt lat="45.890361042693257" lon="7.743285549804568">
        <ele>2235.6799999999998</ele>
        <time>2015-01-11T10:34:44Z</time>
      </trkpt>
      <trkpt lat="45.89038367383182" lon="7.743277251720429">
        <ele>2236.6399999999999</ele>
        <time>2015-01-11T10:34:59Z</time>
      </trkpt>
      <trkpt lat="45.890381159260869" lon="7.743281694129109">
        <ele>2233.2800000000002</ele>
        <time>2015-01-11T10:35:03Z</time>
      </trkpt>
      <trkpt lat="45.89037973433733" lon="7.743282113224268">
        <ele>2232.3200000000002</ele>
        <time>2015-01-11T10:35:05Z</time>
      </trkpt>
      <trkpt lat="45.890362299978733" lon="7.743283370509744">
        <ele>2236.6399999999999</ele>
        <time>2015-01-11T10:35:11Z</time>
      </trkpt>
      <trkpt lat="45.89036556892097" lon="7.743287812918425">
        <ele>2232.8000000000002</ele>
        <time>2015-01-11T10:35:18Z</time>
      </trkpt>
      <trkpt lat="45.890363557264209" lon="7.743291165679693">
        <ele>2233.2800000000002</ele>
        <time>2015-01-11T10:35:19Z</time>
      </trkpt>
      <trkpt lat="45.890363389626145" lon="7.743307342752814">
        <ele>2229.9200000000001</ele>
        <time>2015-01-11T10:35:26Z</time>
      </trkpt>
      <trkpt lat="45.890365652740002" lon="7.743310192599893">
        <ele>2233.2800000000002</ele>
        <time>2015-01-11T10:35:27Z</time>
      </trkpt>
      <trkpt lat="45.890369508415461" lon="7.743305750191212">
        <ele>2233.2800000000002</ele>
        <time>2015-01-11T10:35:28Z</time>
      </trkpt>
      <trkpt lat="45.890367077663541" lon="7.743303487077355">
        <ele>2236.1599999999999</ele>
        <time>2015-01-11T10:35:31Z</time>
      </trkpt>
      <trkpt lat="45.890361629426479" lon="7.743296111002564">
        <ele>2237.1300000000001</ele>
        <time>2015-01-11T10:35:35Z</time>
      </trkpt>
      <trkpt lat="45.890363808721304" lon="7.743300553411245">
        <ele>2233.2800000000002</ele>
        <time>2015-01-11T10:35:37Z</time>
      </trkpt>
      <trkpt lat="45.890365988016129" lon="7.743291584774852">
        <ele>2235.1999999999998</ele>
        <time>2015-01-11T10:35:38Z</time>
      </trkpt>
      <trkpt lat="45.890370681881905" lon="7.743311868980527">
        <ele>2229.9200000000001</ele>
        <time>2015-01-11T10:35:43Z</time>
      </trkpt>
      <trkpt lat="45.890372609719634" lon="7.743321424350143">
        <ele>2229.9200000000001</ele>
        <time>2015-01-11T10:35:44Z</time>
      </trkpt>
      <trkpt lat="45.890376213937998" lon="7.743355706334114">
        <ele>2226.0700000000002</ele>
        <time>2015-01-11T10:35:47Z</time>
      </trkpt>
      <trkpt lat="45.89040077291429" lon="7.743425192311406">
        <ele>2227.0300000000002</ele>
        <time>2015-01-11T10:35:55Z</time>
      </trkpt>
      <trkpt lat="45.890417117625475" lon="7.743451092392206">
        <ele>2226.0700000000002</ele>
        <time>2015-01-11T10:35:59Z</time>
      </trkpt>
      <trkpt lat="45.890437569469213" lon="7.743502557277679">
        <ele>2223.1900000000001</ele>
        <time>2015-01-11T10:36:06Z</time>
      </trkpt>
      <trkpt lat="45.890443688258529" lon="7.743526361882687">
        <ele>2226.5500000000002</ele>
        <time>2015-01-11T10:36:08Z</time>
      </trkpt>
      <trkpt lat="45.890451902523637" lon="7.743535162881017">
        <ele>2227.5100000000002</ele>
        <time>2015-01-11T10:36:09Z</time>
      </trkpt>
      <trkpt lat="45.890466319397092" lon="7.743567014113069">
        <ele>2223.6700000000001</ele>
        <time>2015-01-11T10:36:12Z</time>
      </trkpt>
      <trkpt lat="45.890471432358027" lon="7.743577659130096">
        <ele>2225.1100000000001</ele>
        <time>2015-01-11T10:36:13Z</time>
      </trkpt>
      <trkpt lat="45.890474282205105" lon="7.743601966649294">
        <ele>2227.0300000000002</ele>
        <time>2015-01-11T10:36:15Z</time>
      </trkpt>
      <trkpt lat="45.890424745157361" lon="7.743693832308054">
        <ele>2228.4699999999998</ele>
        <time>2015-01-11T10:36:26Z</time>
      </trkpt>
      <trkpt lat="45.890427427366376" lon="7.743714954704046">
        <ele>2226.5500000000002</ele>
        <time>2015-01-11T10:36:30Z</time>
      </trkpt>
      <trkpt lat="45.890418961644173" lon="7.743768431246281">
        <ele>2229.9200000000001</ele>
        <time>2015-01-11T10:36:36Z</time>
      </trkpt>
      <trkpt lat="45.890406472608447" lon="7.743829619139433">
        <ele>2230.4000000000001</ele>
        <time>2015-01-11T10:36:41Z</time>
      </trkpt>
      <trkpt lat="45.89040270075202" lon="7.743915785104036">
        <ele>2231.3600000000001</ele>
        <time>2015-01-11T10:36:55Z</time>
      </trkpt>
      <trkpt lat="45.890399599447846" lon="7.743983762338758">
        <ele>2232.8000000000002</ele>
        <time>2015-01-11T10:37:08Z</time>
      </trkpt>
      <trkpt lat="45.890416363254189" lon="7.744038077071309">
        <ele>2230.8800000000001</ele>
        <time>2015-01-11T10:37:17Z</time>
      </trkpt>
      <trkpt lat="45.89040513150394" lon="7.744064060971141">
        <ele>2234.2399999999998</ele>
        <time>2015-01-11T10:37:20Z</time>
      </trkpt>
      <trkpt lat="45.890398593619466" lon="7.74413924664259">
        <ele>2237.1300000000001</ele>
        <time>2015-01-11T10:37:26Z</time>
      </trkpt>
      <trkpt lat="45.890390463173389" lon="7.744139330461621">
        <ele>2240.4899999999998</ele>
        <time>2015-01-11T10:37:35Z</time>
      </trkpt>
      <trkpt lat="45.890366742387414" lon="7.744125667959452">
        <ele>2237.6100000000001</ele>
        <time>2015-01-11T10:37:45Z</time>
      </trkpt>
      <trkpt lat="45.89038509875536" lon="7.744142515584827">
        <ele>2237.6100000000001</ele>
        <time>2015-01-11T10:37:55Z</time>
      </trkpt>
      <trkpt lat="45.890393061563373" lon="7.744156764820218">
        <ele>2235.1999999999998</ele>
        <time>2015-01-11T10:38:00Z</time>
      </trkpt>
      <trkpt lat="45.890382332727313" lon="7.74420864880085">
        <ele>2235.6799999999998</ele>
        <time>2015-01-11T10:38:04Z</time>
      </trkpt>
      <trkpt lat="45.890366155654192" lon="7.744262292981148">
        <ele>2232.8000000000002</ele>
        <time>2015-01-11T10:38:10Z</time>
      </trkpt>
      <trkpt lat="45.890360958874226" lon="7.74428240954876">
        <ele>2235.1999999999998</ele>
        <time>2015-01-11T10:38:13Z</time>
      </trkpt>
      <trkpt lat="45.89035676792264" lon="7.744299927726388">
        <ele>2237.1300000000001</ele>
        <time>2015-01-11T10:38:15Z</time>
      </trkpt>
      <trkpt lat="45.89035919867456" lon="7.744423393160105">
        <ele>2237.6100000000001</ele>
        <time>2015-01-11T10:38:27Z</time>
      </trkpt>
      <trkpt lat="45.890324329957366" lon="7.744510397315025">
        <ele>2240.9699999999998</ele>
        <time>2015-01-11T10:38:37Z</time>
      </trkpt>
      <trkpt lat="45.890282755717635" lon="7.744594551622868">
        <ele>2241.4499999999998</ele>
        <time>2015-01-11T10:38:49Z</time>
      </trkpt>
      <trkpt lat="45.890273870900273" lon="7.744597820565105">
        <ele>2240.4899999999998</ele>
        <time>2015-01-11T10:39:01Z</time>
      </trkpt>
      <trkpt lat="45.890282085165381" lon="7.74458684027195">
        <ele>2239.0500000000002</ele>
        <time>2015-01-11T10:39:12Z</time>
      </trkpt>
      <trkpt lat="45.890265991911292" lon="7.744598239660263">
        <ele>2239.5300000000002</ele>
        <time>2015-01-11T10:39:29Z</time>
      </trkpt>
      <trkpt lat="45.890258029103279" lon="7.744667138904333">
        <ele>2239.0500000000002</ele>
        <time>2015-01-11T10:39:39Z</time>
      </trkpt>
      <trkpt lat="45.890251491218805" lon="7.744690692052245">
        <ele>2239.5300000000002</ele>
        <time>2015-01-11T10:39:42Z</time>
      </trkpt>
      <trkpt lat="45.890246545895934" lon="7.744715921580792">
        <ele>2240.4899999999998</ele>
        <time>2015-01-11T10:39:44Z</time>
      </trkpt>
      <trkpt lat="45.890229698270559" lon="7.744780881330371">
        <ele>2243.8499999999999</ele>
        <time>2015-01-11T10:39:52Z</time>
      </trkpt>
      <trkpt lat="45.89022433385253" lon="7.744793957099319">
        <ele>2244.8200000000002</ele>
        <time>2015-01-11T10:39:54Z</time>
      </trkpt>
      <trkpt lat="45.890221316367388" lon="7.744808793067932">
        <ele>2243.3699999999999</ele>
        <time>2015-01-11T10:39:56Z</time>
      </trkpt>
      <trkpt lat="45.890213940292597" lon="7.744826981797814">
        <ele>2244.8200000000002</ele>
        <time>2015-01-11T10:40:10Z</time>
      </trkpt>
      <trkpt lat="45.890211760997772" lon="7.744829244911671">
        <ele>2244.8200000000002</ele>
        <time>2015-01-11T10:40:23Z</time>
      </trkpt>
      <trkpt lat="45.89020874351263" lon="7.744830837473273">
        <ele>2241.4499999999998</ele>
        <time>2015-01-11T10:40:29Z</time>
      </trkpt>
      <trkpt lat="45.890190890058875" lon="7.744858246296644">
        <ele>2242.4099999999999</ele>
        <time>2015-01-11T10:40:46Z</time>
      </trkpt>
      <trkpt lat="45.890175215899944" lon="7.744892444461584">
        <ele>2241.4499999999998</ele>
        <time>2015-01-11T10:41:02Z</time>
      </trkpt>
      <trkpt lat="45.89015644043684" lon="7.744941730052233">
        <ele>2241.9299999999998</ele>
        <time>2015-01-11T10:41:16Z</time>
      </trkpt>
      <trkpt lat="45.890144119039178" lon="7.744986908510327">
        <ele>2241.4499999999998</ele>
        <time>2015-01-11T10:41:33Z</time>
      </trkpt>
      <trkpt lat="45.890131127089262" lon="7.744991518557072">
        <ele>2240.0100000000002</ele>
        <time>2015-01-11T10:41:42Z</time>
      </trkpt>
      <trkpt lat="45.89013984426856" lon="7.744994703680277">
        <ele>2242.8899999999999</ele>
        <time>2015-01-11T10:41:44Z</time>
      </trkpt>
      <trkpt lat="45.890142023563385" lon="7.745043151080608">
        <ele>2244.3299999999999</ele>
        <time>2015-01-11T10:41:56Z</time>
      </trkpt>
      <trkpt lat="45.8901188056916" lon="7.74507449939847">
        <ele>2240.9699999999998</ele>
        <time>2015-01-11T10:42:06Z</time>
      </trkpt>
      <trkpt lat="45.89011293835938" lon="7.745088580995798">
        <ele>2238.5700000000002</ele>
        <time>2015-01-11T10:42:09Z</time>
      </trkpt>
      <trkpt lat="45.890107238665223" lon="7.74508623406291">
        <ele>2243.8499999999999</ele>
        <time>2015-01-11T10:42:11Z</time>
      </trkpt>
      <trkpt lat="45.890106568112969" lon="7.745075505226851">
        <ele>2243.3699999999999</ele>
        <time>2015-01-11T10:42:12Z</time>
      </trkpt>
      <trkpt lat="45.89010514318943" lon="7.745063100010157">
        <ele>2240.9699999999998</ele>
        <time>2015-01-11T10:42:15Z</time>
      </trkpt>
      <trkpt lat="45.890110926702619" lon="7.745064441114664">
        <ele>2241.4499999999998</ele>
        <time>2015-01-11T10:42:19Z</time>
      </trkpt>
      <trkpt lat="45.890111513435841" lon="7.745048683136702">
        <ele>2239.0500000000002</ele>
        <time>2015-01-11T10:42:25Z</time>
      </trkpt>
      <trkpt lat="45.890112183988094" lon="7.745070727542043">
        <ele>2241.9299999999998</ele>
        <time>2015-01-11T10:42:30Z</time>
      </trkpt>
      <trkpt lat="45.890089301392436" lon="7.745159156620503">
        <ele>2244.8200000000002</ele>
        <time>2015-01-11T10:42:44Z</time>
      </trkpt>
      <trkpt lat="45.890083266422153" lon="7.745242053642869">
        <ele>2247.6999999999998</ele>
        <time>2015-01-11T10:42:53Z</time>
      </trkpt>
      <trkpt lat="45.890066167339683" lon="7.745240377262235">
        <ele>2244.3299999999999</ele>
        <time>2015-01-11T10:42:55Z</time>
      </trkpt>
      <trkpt lat="45.890053175389767" lon="7.745243646204472">
        <ele>2247.6999999999998</ele>
        <time>2015-01-11T10:42:57Z</time>
      </trkpt>
      <trkpt lat="45.890042362734675" lon="7.745266277343035">
        <ele>2248.1799999999998</ele>
        <time>2015-01-11T10:43:00Z</time>
      </trkpt>
      <trkpt lat="45.89003523811698" lon="7.745289159938693">
        <ele>2246.2600000000002</ele>
        <time>2015-01-11T10:43:03Z</time>
      </trkpt>
      <trkpt lat="45.89003817178309" lon="7.745274407789111">
        <ele>2247.6999999999998</ele>
        <time>2015-01-11T10:43:07Z</time>
      </trkpt>
      <trkpt lat="45.89002987369895" lon="7.745235934853554">
        <ele>2246.7399999999998</ele>
        <time>2015-01-11T10:43:20Z</time>
      </trkpt>
      <trkpt lat="45.890030041337013" lon="7.745245741680265">
        <ele>2248.6599999999999</ele>
        <time>2015-01-11T10:43:24Z</time>
      </trkpt>
      <trkpt lat="45.890030125156045" lon="7.745249345898628">
        <ele>2245.3000000000002</ele>
        <time>2015-01-11T10:43:25Z</time>
      </trkpt>
      <trkpt lat="45.890037752687931" lon="7.745262254029512">
        <ele>2247.2199999999998</ele>
        <time>2015-01-11T10:43:42Z</time>
      </trkpt>
      <trkpt lat="45.890039764344692" lon="7.745259655639529">
        <ele>2248.1799999999998</ele>
        <time>2015-01-11T10:43:44Z</time>
      </trkpt>
      <trkpt lat="45.890038842335343" lon="7.745259655639529">
        <ele>2254.9099999999999</ele>
        <time>2015-01-11T10:43:45Z</time>
      </trkpt>
      <trkpt lat="45.890039680525661" lon="7.745262086391449">
        <ele>2249.1399999999999</ele>
        <time>2015-01-11T10:43:46Z</time>
      </trkpt>
      <trkpt lat="45.890037333592772" lon="7.745259152725339">
        <ele>2244.8200000000002</ele>
        <time>2015-01-11T10:43:47Z</time>
      </trkpt>
      <trkpt lat="45.890042781829834" lon="7.745268624275923">
        <ele>2248.1799999999998</ele>
        <time>2015-01-11T10:43:48Z</time>
      </trkpt>
      <trkpt lat="45.890042614191771" lon="7.745272731408477">
        <ele>2251.54</ele>
        <time>2015-01-11T10:43:50Z</time>
      </trkpt>
      <trkpt lat="45.890046469867229" lon="7.745278431102634">
        <ele>2248.1799999999998</ele>
        <time>2015-01-11T10:43:53Z</time>
      </trkpt>
      <trkpt lat="45.890045966953039" lon="7.745261332020164">
        <ele>2252.9899999999998</ele>
        <time>2015-01-11T10:43:59Z</time>
      </trkpt>
      <trkpt lat="45.890048146247864" lon="7.745260912925005">
        <ele>2252.9899999999998</ele>
        <time>2015-01-11T10:44:00Z</time>
      </trkpt>
      <trkpt lat="45.890051079913974" lon="7.745261918753386">
        <ele>2249.6199999999999</ele>
        <time>2015-01-11T10:44:01Z</time>
      </trkpt>
      <trkpt lat="45.890048565343022" lon="7.745256889611483">
        <ele>2249.6199999999999</ele>
        <time>2015-01-11T10:44:02Z</time>
      </trkpt>
      <trkpt lat="45.89004747569561" lon="7.745250100269914">
        <ele>2252.9899999999998</ele>
        <time>2015-01-11T10:44:03Z</time>
      </trkpt>
      <trkpt lat="45.890047056600451" lon="7.745248088613153">
        <ele>2251.0599999999999</ele>
        <time>2015-01-11T10:44:04Z</time>
      </trkpt>
      <trkpt lat="45.890045212581754" lon="7.745241383090615">
        <ele>2245.7800000000002</ele>
        <time>2015-01-11T10:44:17Z</time>
      </trkpt>
      <trkpt lat="45.890041859820485" lon="7.745303744450212">
        <ele>2245.7800000000002</ele>
        <time>2015-01-11T10:44:28Z</time>
      </trkpt>
      <trkpt lat="45.89004211127758" lon="7.745356215164065">
        <ele>2250.5799999999999</ele>
        <time>2015-01-11T10:44:33Z</time>
      </trkpt>
      <trkpt lat="45.890037082135677" lon="7.745381444692612">
        <ele>2251.54</ele>
        <time>2015-01-11T10:44:35Z</time>
      </trkpt>
      <trkpt lat="45.890015456825495" lon="7.7454321552068">
        <ele>2250.5799999999999</ele>
        <time>2015-01-11T10:44:45Z</time>
      </trkpt>
      <trkpt lat="45.890022916719317" lon="7.745451182126999">
        <ele>2251.0599999999999</ele>
        <time>2015-01-11T10:44:52Z</time>
      </trkpt>
      <trkpt lat="45.8900186419487" lon="7.745446069166064">
        <ele>2248.1799999999998</ele>
        <time>2015-01-11T10:44:59Z</time>
      </trkpt>
      <trkpt lat="45.890002381056547" lon="7.745437268167734">
        <ele>2247.6999999999998</ele>
        <time>2015-01-11T10:45:04Z</time>
      </trkpt>
      <trkpt lat="45.889994921162724" lon="7.745418073609471">
        <ele>2250.5799999999999</ele>
        <time>2015-01-11T10:45:18Z</time>
      </trkpt>
      <trkpt lat="45.88999911211431" lon="7.745414301753044">
        <ele>2249.1399999999999</ele>
        <time>2015-01-11T10:45:22Z</time>
      </trkpt>
      <trkpt lat="45.889988718554378" lon="7.745416732504964">
        <ele>2246.7399999999998</ele>
        <time>2015-01-11T10:45:40Z</time>
      </trkpt>
      <trkpt lat="45.889990059658885" lon="7.745405416935682">
        <ele>2249.6199999999999</ele>
        <time>2015-01-11T10:45:46Z</time>
      </trkpt>
      <trkpt lat="45.88999567553401" lon="7.74541363120079">
        <ele>2245.7800000000002</ele>
        <time>2015-01-11T10:45:48Z</time>
      </trkpt>
      <trkpt lat="45.889999363571405" lon="7.745421258732677">
        <ele>2244.8200000000002</ele>
        <time>2015-01-11T10:45:50Z</time>
      </trkpt>
      <trkpt lat="45.889993412420154" lon="7.745415307581425">
        <ele>2243.3699999999999</ele>
        <time>2015-01-11T10:45:56Z</time>
      </trkpt>
      <trkpt lat="45.889986455440521" lon="7.745408182963729">
        <ele>2246.7399999999998</ele>
        <time>2015-01-11T10:46:04Z</time>
      </trkpt>
      <trkpt lat="45.889984192326665" lon="7.745408685877919">
        <ele>2249.6199999999999</ele>
        <time>2015-01-11T10:46:06Z</time>
      </trkpt>
      <trkpt lat="45.889988131821156" lon="7.745411451905966">
        <ele>2252.0300000000002</ele>
        <time>2015-01-11T10:46:09Z</time>
      </trkpt>
      <trkpt lat="45.889982683584094" lon="7.745430814102292">
        <ele>2252.0300000000002</ele>
        <time>2015-01-11T10:46:13Z</time>
      </trkpt>
      <trkpt lat="45.889972960576415" lon="7.745427042245865">
        <ele>2248.1799999999998</ele>
        <time>2015-01-11T10:46:16Z</time>
      </trkpt>
      <trkpt lat="45.88997078128159" lon="7.745426874607801">
        <ele>2248.6599999999999</ele>
        <time>2015-01-11T10:46:17Z</time>
      </trkpt>
      <trkpt lat="45.88996977545321" lon="7.745428886264563">
        <ele>2245.7800000000002</ele>
        <time>2015-01-11T10:46:20Z</time>
      </trkpt>
      <trkpt lat="45.889992993324995" lon="7.745437938719988">
        <ele>2247.2199999999998</ele>
        <time>2015-01-11T10:46:32Z</time>
      </trkpt>
      <trkpt lat="45.889991568401456" lon="7.745436010882258">
        <ele>2246.2600000000002</ele>
        <time>2015-01-11T10:46:48Z</time>
      </trkpt>
      <trkpt lat="45.889979330822825" lon="7.745431484654546">
        <ele>2248.1799999999998</ele>
        <time>2015-01-11T10:46:50Z</time>
      </trkpt>
      <trkpt lat="45.889984527602792" lon="7.745447074994445">
        <ele>2248.1799999999998</ele>
        <time>2015-01-11T10:47:00Z</time>
      </trkpt>
      <trkpt lat="45.889977486804128" lon="7.745497282594442">
        <ele>2251.0599999999999</ele>
        <time>2015-01-11T10:47:07Z</time>
      </trkpt>
      <trkpt lat="45.88995217345655" lon="7.745568780228496">
        <ele>2250.0999999999999</ele>
        <time>2015-01-11T10:47:15Z</time>
      </trkpt>
      <trkpt lat="45.889937672764063" lon="7.745630722492933">
        <ele>2252.9899999999998</ele>
        <time>2015-01-11T10:47:23Z</time>
      </trkpt>
      <trkpt lat="45.889923507347703" lon="7.745662573724985">
        <ele>2252.5100000000002</ele>
        <time>2015-01-11T10:47:37Z</time>
      </trkpt>
      <trkpt lat="45.889921160414815" lon="7.745673302561045">
        <ele>2252.9899999999998</ele>
        <time>2015-01-11T10:47:39Z</time>
      </trkpt>
      <trkpt lat="45.889897523447871" lon="7.745707333087921">
        <ele>2252.9899999999998</ele>
        <time>2015-01-11T10:47:50Z</time>
      </trkpt>
      <trkpt lat="45.889878161251545" lon="7.745773047208786">
        <ele>2255.8699999999999</ele>
        <time>2015-01-11T10:47:58Z</time>
      </trkpt>
      <trkpt lat="45.889841113239527" lon="7.745888968929648">
        <ele>2258.27</ele>
        <time>2015-01-11T10:48:11Z</time>
      </trkpt>
      <trkpt lat="45.889833569526672" lon="7.74590271525085">
        <ele>2259.2399999999998</ele>
        <time>2015-01-11T10:48:13Z</time>
      </trkpt>
      <trkpt lat="45.889776740223169" lon="7.745951917022467">
        <ele>2259.7199999999998</ele>
        <time>2015-01-11T10:48:24Z</time>
      </trkpt>
      <trkpt lat="45.889775734394789" lon="7.746013272553682">
        <ele>2263.5599999999999</ele>
        <time>2015-01-11T10:48:37Z</time>
      </trkpt>
      <trkpt lat="45.889767520129681" lon="7.746039256453514">
        <ele>2263.5599999999999</ele>
        <time>2015-01-11T10:48:49Z</time>
      </trkpt>
      <trkpt lat="45.889750672504306" lon="7.746096253395081">
        <ele>2263.5599999999999</ele>
        <time>2015-01-11T10:48:59Z</time>
      </trkpt>
      <trkpt lat="45.889714630320668" lon="7.746140006929636">
        <ele>2265</ele>
        <time>2015-01-11T10:49:10Z</time>
      </trkpt>
      <trkpt lat="45.889707589522004" lon="7.746140090748668">
        <ele>2265.96</ele>
        <time>2015-01-11T10:49:12Z</time>
      </trkpt>
      <trkpt lat="45.889709265902638" lon="7.746190633624792">
        <ele>2266.9299999999998</ele>
        <time>2015-01-11T10:49:23Z</time>
      </trkpt>
      <trkpt lat="45.889660064131021" lon="7.746268585324287">
        <ele>2268.8499999999999</ele>
        <time>2015-01-11T10:49:36Z</time>
      </trkpt>
      <trkpt lat="45.889596696943045" lon="7.746304962784052">
        <ele>2270.77</ele>
        <time>2015-01-11T10:49:49Z</time>
      </trkpt>
      <trkpt lat="45.889592338353395" lon="7.746293982490897">
        <ele>2271.73</ele>
        <time>2015-01-11T10:50:03Z</time>
      </trkpt>
      <trkpt lat="45.88955637998879" lon="7.746329437941313">
        <ele>2269.8099999999999</ele>
        <time>2015-01-11T10:50:18Z</time>
      </trkpt>
      <trkpt lat="45.889545315876603" lon="7.746397079899907">
        <ele>2264.52</ele>
        <time>2015-01-11T10:50:26Z</time>
      </trkpt>
      <trkpt lat="45.889545064419508" lon="7.746411664411426">
        <ele>2273.1700000000001</ele>
        <time>2015-01-11T10:50:28Z</time>
      </trkpt>
      <trkpt lat="45.889544226229191" lon="7.746394062414765">
        <ele>2268.8499999999999</ele>
        <time>2015-01-11T10:50:35Z</time>
      </trkpt>
      <trkpt lat="45.889544561505318" lon="7.74640797637403">
        <ele>2269.8099999999999</ele>
        <time>2015-01-11T10:50:36Z</time>
      </trkpt>
      <trkpt lat="45.889540957286954" lon="7.746424907818437">
        <ele>2269.8099999999999</ele>
        <time>2015-01-11T10:50:37Z</time>
      </trkpt>
      <trkpt lat="45.889515141025186" lon="7.746497662737966">
        <ele>2266.9299999999998</ele>
        <time>2015-01-11T10:50:43Z</time>
      </trkpt>
      <trkpt lat="45.889501143246889" lon="7.74653990752995">
        <ele>2263.0799999999999</ele>
        <time>2015-01-11T10:50:47Z</time>
      </trkpt>
      <trkpt lat="45.889496449381113" lon="7.746549881994724">
        <ele>2263.5599999999999</ele>
        <time>2015-01-11T10:50:48Z</time>
      </trkpt>
      <trkpt lat="45.889492928981781" lon="7.746558096259832">
        <ele>2266.9299999999998</ele>
        <time>2015-01-11T10:50:49Z</time>
      </trkpt>
      <trkpt lat="45.889472644776106" lon="7.746584080159664">
        <ele>2263.5599999999999</ele>
        <time>2015-01-11T10:50:52Z</time>
      </trkpt>
      <trkpt lat="45.889438195154071" lon="7.746616015210748">
        <ele>2267.8899999999999</ele>
        <time>2015-01-11T10:50:56Z</time>
      </trkpt>
      <trkpt lat="45.889422604814172" lon="7.746640155091882">
        <ele>2272.21</ele>
        <time>2015-01-11T10:50:59Z</time>
      </trkpt>
      <trkpt lat="45.889415312558413" lon="7.74664644151926">
        <ele>2272.21</ele>
        <time>2015-01-11T10:51:00Z</time>
      </trkpt>
      <trkpt lat="45.889372564852238" lon="7.74664937518537">
        <ele>2275.0999999999999</ele>
        <time>2015-01-11T10:51:06Z</time>
      </trkpt>
      <trkpt lat="45.889347083866596" lon="7.746651722118259">
        <ele>2273.6599999999999</ele>
        <time>2015-01-11T10:51:18Z</time>
      </trkpt>
      <trkpt lat="45.889342306181788" lon="7.746643675491214">
        <ele>2270.29</ele>
        <time>2015-01-11T10:51:32Z</time>
      </trkpt>
      <trkpt lat="45.889343898743391" lon="7.74664057418704">
        <ele>2268.8499999999999</ele>
        <time>2015-01-11T10:51:41Z</time>
      </trkpt>
      <trkpt lat="45.88934289291501" lon="7.746642166748643">
        <ele>2272.21</ele>
        <time>2015-01-11T10:51:51Z</time>
      </trkpt>
      <trkpt lat="45.889341719448566" lon="7.746645268052816">
        <ele>2272.21</ele>
        <time>2015-01-11T10:51:52Z</time>
      </trkpt>
      <trkpt lat="45.889335935935378" lon="7.746649123728275">
        <ele>2271.73</ele>
        <time>2015-01-11T10:51:53Z</time>
      </trkpt>
      <trkpt lat="45.889321267604828" lon="7.746655326336622">
        <ele>2270.77</ele>
        <time>2015-01-11T10:51:55Z</time>
      </trkpt>
      <trkpt lat="45.889250859618187" lon="7.746639987453818">
        <ele>2269.3299999999999</ele>
        <time>2015-01-11T10:52:04Z</time>
      </trkpt>
      <trkpt lat="45.889209369197488" lon="7.746650464832783">
        <ele>2270.77</ele>
        <time>2015-01-11T10:52:11Z</time>
      </trkpt>
      <trkpt lat="45.889192940667272" lon="7.746652979403734">
        <ele>2270.77</ele>
        <time>2015-01-11T10:52:13Z</time>
      </trkpt>
      <trkpt lat="45.889105349779129" lon="7.746639149263501">
        <ele>2271.73</ele>
        <time>2015-01-11T10:52:26Z</time>
      </trkpt>
      <trkpt lat="45.889054220169783" lon="7.746657924726605">
        <ele>2271.73</ele>
        <time>2015-01-11T10:52:33Z</time>
      </trkpt>
      <trkpt lat="45.888923881575465" lon="7.746700420975685">
        <ele>2272.21</ele>
        <time>2015-01-11T10:52:46Z</time>
      </trkpt>
      <trkpt lat="45.888892868533731" lon="7.746740654110909">
        <ele>2273.1700000000001</ele>
        <time>2015-01-11T10:52:50Z</time>
      </trkpt>
      <trkpt lat="45.888860765844584" lon="7.746776277199388">
        <ele>2272.6900000000001</ele>
        <time>2015-01-11T10:52:55Z</time>
      </trkpt>
      <trkpt lat="45.888842577114701" lon="7.746765380725265">
        <ele>2270.29</ele>
        <time>2015-01-11T10:52:58Z</time>
      </trkpt>
      <trkpt lat="45.888836709782481" lon="7.746753143146634">
        <ele>2269.8099999999999</ele>
        <time>2015-01-11T10:52:59Z</time>
      </trkpt>
      <trkpt lat="45.888818018138409" lon="7.746716262772679">
        <ele>2269.3299999999999</ele>
        <time>2015-01-11T10:53:01Z</time>
      </trkpt>
      <trkpt lat="45.888804187998176" lon="7.746675694361329">
        <ele>2268.3699999999999</ele>
        <time>2015-01-11T10:53:11Z</time>
      </trkpt>
      <trkpt lat="45.888810893520713" lon="7.746668569743633">
        <ele>2267.4099999999999</ele>
        <time>2015-01-11T10:53:32Z</time>
      </trkpt>
      <trkpt lat="45.888803349807858" lon="7.746674688532949">
        <ele>2267.8899999999999</ele>
        <time>2015-01-11T10:53:41Z</time>
      </trkpt>
      <trkpt lat="45.888791028410196" lon="7.746673515066505">
        <ele>2265</ele>
        <time>2015-01-11T10:53:57Z</time>
      </trkpt>
      <trkpt lat="45.888792788609862" lon="7.7466737665236">
        <ele>2266.4499999999998</ele>
        <time>2015-01-11T10:54:10Z</time>
      </trkpt>
      <trkpt lat="45.888760183006525" lon="7.746628252789378">
        <ele>2266.4499999999998</ele>
        <time>2015-01-11T10:54:25Z</time>
      </trkpt>
      <trkpt lat="45.888747945427895" lon="7.746587432920933">
        <ele>2266.4499999999998</ele>
        <time>2015-01-11T10:54:28Z</time>
      </trkpt>
      <trkpt lat="45.888730259612203" lon="7.746567400172353">
        <ele>2268.3699999999999</ele>
        <time>2015-01-11T10:54:36Z</time>
      </trkpt>
      <trkpt lat="45.888689439743757" lon="7.746540913358331">
        <ele>2271.73</ele>
        <time>2015-01-11T10:54:43Z</time>
      </trkpt>
      <trkpt lat="45.888662869110703" lon="7.746537392958999">
        <ele>2274.1399999999999</ele>
        <time>2015-01-11T10:54:46Z</time>
      </trkpt>
      <trkpt lat="45.888641746714711" lon="7.7465252391994">
        <ele>2275.0999999999999</ele>
        <time>2015-01-11T10:54:50Z</time>
      </trkpt>
      <trkpt lat="45.888605369254947" lon="7.746508475393057">
        <ele>2276.0599999999999</ele>
        <time>2015-01-11T10:55:03Z</time>
      </trkpt>
      <trkpt lat="45.888539487496018" lon="7.746463380753994">
        <ele>2277.02</ele>
        <time>2015-01-11T10:55:16Z</time>
      </trkpt>
      <trkpt lat="45.888514928519726" lon="7.746458016335964">
        <ele>2280.3800000000001</ele>
        <time>2015-01-11T10:55:21Z</time>
      </trkpt>
      <trkpt lat="45.888502607122064" lon="7.746449802070856">
        <ele>2279.4200000000001</ele>
        <time>2015-01-11T10:55:25Z</time>
      </trkpt>
      <trkpt lat="45.888451896607876" lon="7.746464051306248">
        <ele>2276.54</ele>
        <time>2015-01-11T10:55:34Z</time>
      </trkpt>
      <trkpt lat="45.888415267691016" lon="7.746476037427783">
        <ele>2273.1700000000001</ele>
        <time>2015-01-11T10:55:43Z</time>
      </trkpt>
      <trkpt lat="45.888387942686677" lon="7.746515348553658">
        <ele>2271.25</ele>
        <time>2015-01-11T10:55:47Z</time>
      </trkpt>
      <trkpt lat="45.888382326811552" lon="7.746543847024441">
        <ele>2269.8099999999999</ele>
        <time>2015-01-11T10:55:50Z</time>
      </trkpt>
      <trkpt lat="45.888357935473323" lon="7.746574273332954">
        <ele>2271.73</ele>
        <time>2015-01-11T10:55:54Z</time>
      </trkpt>
      <trkpt lat="45.888267327100039" lon="7.746529011055827">
        <ele>2271.73</ele>
        <time>2015-01-11T10:56:08Z</time>
      </trkpt>
      <trkpt lat="45.888224998489022" lon="7.746577793732286">
        <ele>2267.8899999999999</ele>
        <time>2015-01-11T10:56:21Z</time>
      </trkpt>
      <trkpt lat="45.888213934376836" lon="7.746594473719597">
        <ele>2266.9299999999998</ele>
        <time>2015-01-11T10:56:23Z</time>
      </trkpt>
      <trkpt lat="45.888176215812564" lon="7.74666354060173">
        <ele>2263.5599999999999</ele>
        <time>2015-01-11T10:56:32Z</time>
      </trkpt>
      <trkpt lat="45.888161966577172" lon="7.746729254722595">
        <ele>2264.52</ele>
        <time>2015-01-11T10:56:38Z</time>
      </trkpt>
      <trkpt lat="45.888158362358809" lon="7.746775606647134">
        <ele>2263.5599999999999</ele>
        <time>2015-01-11T10:56:43Z</time>
      </trkpt>
      <trkpt lat="45.888143107295036" lon="7.746797986328602">
        <ele>2267.4099999999999</ele>
        <time>2015-01-11T10:56:53Z</time>
      </trkpt>
      <trkpt lat="45.88814084418118" lon="7.746805194765329">
        <ele>2266.4499999999998</ele>
        <time>2015-01-11T10:56:54Z</time>
      </trkpt>
      <trkpt lat="45.888121649622917" lon="7.746794130653143">
        <ele>2263.5599999999999</ele>
        <time>2015-01-11T10:56:57Z</time>
      </trkpt>
      <trkpt lat="45.888113100081682" lon="7.746784407645464">
        <ele>2263.0799999999999</ele>
        <time>2015-01-11T10:57:12Z</time>
      </trkpt>
      <trkpt lat="45.888109328225255" lon="7.746803937479854">
        <ele>2260.6799999999998</ele>
        <time>2015-01-11T10:57:17Z</time>
      </trkpt>
      <trkpt lat="45.888094240799546" lon="7.746847104281187">
        <ele>2261.6399999999999</ele>
        <time>2015-01-11T10:57:23Z</time>
      </trkpt>
      <trkpt lat="45.888093402609229" lon="7.74683210067451">
        <ele>2261.6399999999999</ele>
        <time>2015-01-11T10:57:36Z</time>
      </trkpt>
      <trkpt lat="45.888096252456307" lon="7.746818186715245">
        <ele>2263.0799999999999</ele>
        <time>2015-01-11T10:57:58Z</time>
      </trkpt>
      <trkpt lat="45.888085104525089" lon="7.746823215857148">
        <ele>2261.6399999999999</ele>
        <time>2015-01-11T10:58:16Z</time>
      </trkpt>
      <trkpt lat="45.888086361810565" lon="7.746812989935279">
        <ele>2260.6799999999998</ele>
        <time>2015-01-11T10:58:22Z</time>
      </trkpt>
      <trkpt lat="45.888091307133436" lon="7.74681692942977">
        <ele>2259.7199999999998</ele>
        <time>2015-01-11T10:58:44Z</time>
      </trkpt>
      <trkpt lat="45.888087702915072" lon="7.746813911944628">
        <ele>2260.6799999999998</ele>
        <time>2015-01-11T10:58:59Z</time>
      </trkpt>
      <trkpt lat="45.88808954693377" lon="7.746846601366997">
        <ele>2259.7199999999998</ele>
        <time>2015-01-11T10:59:11Z</time>
      </trkpt>
      <trkpt lat="45.888100611045957" lon="7.746872836723924">
        <ele>2257.79</ele>
        <time>2015-01-11T10:59:13Z</time>
      </trkpt>
      <trkpt lat="45.888099689036608" lon="7.746911393478513">
        <ele>2261.6399999999999</ele>
        <time>2015-01-11T10:59:22Z</time>
      </trkpt>
      <trkpt lat="45.888103460893035" lon="7.746909046545625">
        <ele>2260.6799999999998</ele>
        <time>2015-01-11T10:59:23Z</time>
      </trkpt>
      <trkpt lat="45.88810614310205" lon="7.746911142021418">
        <ele>2257.3099999999999</ele>
        <time>2015-01-11T10:59:24Z</time>
      </trkpt>
      <trkpt lat="45.888106813654304" lon="7.746910890564323">
        <ele>2259.7199999999998</ele>
        <time>2015-01-11T10:59:25Z</time>
      </trkpt>
      <trkpt lat="45.888104718178511" lon="7.746902676299214">
        <ele>2261.1599999999999</ele>
        <time>2015-01-11T10:59:28Z</time>
      </trkpt>
      <trkpt lat="45.888107568025589" lon="7.746924888342619">
        <ele>2258.27</ele>
        <time>2015-01-11T10:59:31Z</time>
      </trkpt>
      <trkpt lat="45.888100108131766" lon="7.746979286894202">
        <ele>2254.9099999999999</ele>
        <time>2015-01-11T10:59:38Z</time>
      </trkpt>
      <trkpt lat="45.888094743713737" lon="7.747007198631764">
        <ele>2256.8299999999999</ele>
        <time>2015-01-11T10:59:41Z</time>
      </trkpt>
      <trkpt lat="45.888092396780849" lon="7.747029075399041">
        <ele>2255.8699999999999</ele>
        <time>2015-01-11T10:59:43Z</time>
      </trkpt>
      <trkpt lat="45.888067837804556" lon="7.747079450637102">
        <ele>2253.9499999999998</ele>
        <time>2015-01-11T10:59:53Z</time>
      </trkpt>
      <trkpt lat="45.888062221929431" lon="7.747080456465483">
        <ele>2255.8699999999999</ele>
        <time>2015-01-11T10:59:55Z</time>
      </trkpt>
      <trkpt lat="45.888047469779849" lon="7.747093448415399">
        <ele>2252.5100000000002</ele>
        <time>2015-01-11T10:59:58Z</time>
      </trkpt>
      <trkpt lat="45.88804068043828" lon="7.747089006006718">
        <ele>2255.3899999999999</ele>
        <time>2015-01-11T11:00:00Z</time>
      </trkpt>
      <trkpt lat="45.888002626597881" lon="7.747060591354966">
        <ele>2256.8299999999999</ele>
        <time>2015-01-11T11:00:11Z</time>
      </trkpt>
      <trkpt lat="45.887991478666663" lon="7.747032511979342">
        <ele>2253.4699999999998</ele>
        <time>2015-01-11T11:00:14Z</time>
      </trkpt>
      <trkpt lat="45.887939846143126" lon="7.746933437883854">
        <ele>2253.4699999999998</ele>
        <time>2015-01-11T11:00:27Z</time>
      </trkpt>
      <trkpt lat="45.88791118003428" lon="7.746874177828431">
        <ele>2254.4299999999998</ele>
        <time>2015-01-11T11:00:35Z</time>
      </trkpt>
      <trkpt lat="45.887907659634948" lon="7.746864706277847">
        <ele>2255.8699999999999</ele>
        <time>2015-01-11T11:00:39Z</time>
      </trkpt>
      <trkpt lat="45.887896846979856" lon="7.746851965785027">
        <ele>2253.4699999999998</ele>
        <time>2015-01-11T11:00:51Z</time>
      </trkpt>
      <trkpt lat="45.887890476733446" lon="7.746847607195377">
        <ele>2252.0300000000002</ele>
        <time>2015-01-11T11:00:54Z</time>
      </trkpt>
      <trkpt lat="45.887855272740126" lon="7.746816510334611">
        <ele>2250.5799999999999</ele>
        <time>2015-01-11T11:01:05Z</time>
      </trkpt>
      <trkpt lat="45.887834317982197" lon="7.746792873367667">
        <ele>2251.54</ele>
        <time>2015-01-11T11:01:10Z</time>
      </trkpt>
      <trkpt lat="45.887789726257324" lon="7.746805446222425">
        <ele>2248.6599999999999</ele>
        <time>2015-01-11T11:01:19Z</time>
      </trkpt>
      <trkpt lat="45.887764412909746" lon="7.746831178665161">
        <ele>2253.4699999999998</ele>
        <time>2015-01-11T11:01:23Z</time>
      </trkpt>
      <trkpt lat="45.887681599706411" lon="7.746853306889534">
        <ele>2251.0599999999999</ele>
        <time>2015-01-11T11:01:35Z</time>
      </trkpt>
      <trkpt lat="45.887638097628951" lon="7.746808882802725">
        <ele>2250.0999999999999</ele>
        <time>2015-01-11T11:01:45Z</time>
      </trkpt>
      <trkpt lat="45.887636756524444" lon="7.74679446592927">
        <ele>2251.0599999999999</ele>
        <time>2015-01-11T11:02:00Z</time>
      </trkpt>
      <trkpt lat="45.887627620249987" lon="7.746799159795046">
        <ele>2250.5799999999999</ele>
        <time>2015-01-11T11:02:07Z</time>
      </trkpt>
      <trkpt lat="45.887626362964511" lon="7.746790861710906">
        <ele>2248.6599999999999</ele>
        <time>2015-01-11T11:02:13Z</time>
      </trkpt>
      <trkpt lat="45.887611778452992" lon="7.746789688244462">
        <ele>2249.1399999999999</ele>
        <time>2015-01-11T11:02:16Z</time>
      </trkpt>
      <trkpt lat="45.887588812038302" lon="7.746799243614078">
        <ele>2248.6599999999999</ele>
        <time>2015-01-11T11:02:19Z</time>
      </trkpt>
      <trkpt lat="45.887464005500078" lon="7.746768482029438">
        <ele>2244.3299999999999</ele>
        <time>2015-01-11T11:02:31Z</time>
      </trkpt>
      <trkpt lat="45.887453528121114" lon="7.746762279421091">
        <ele>2244.3299999999999</ele>
        <time>2015-01-11T11:02:32Z</time>
      </trkpt>
      <trkpt lat="45.88732679374516" lon="7.746716346591711">
        <ele>2245.7800000000002</ele>
        <time>2015-01-11T11:02:45Z</time>
      </trkpt>
      <trkpt lat="45.88729745708406" lon="7.746710814535618">
        <ele>2244.8200000000002</ele>
        <time>2015-01-11T11:02:48Z</time>
      </trkpt>
      <trkpt lat="45.887109953910112" lon="7.746699834242463">
        <ele>2241.9299999999998</ele>
        <time>2015-01-11T11:03:05Z</time>
      </trkpt>
      <trkpt lat="45.88696226477623" lon="7.746735038235784">
        <ele>2240.4899999999998</ele>
        <time>2015-01-11T11:03:18Z</time>
      </trkpt>
      <trkpt lat="45.886936532333493" lon="7.746753059327602">
        <ele>2240.0100000000002</ele>
        <time>2015-01-11T11:03:21Z</time>
      </trkpt>
      <trkpt lat="45.886882217600942" lon="7.746713077649474">
        <ele>2240.4899999999998</ele>
        <time>2015-01-11T11:03:27Z</time>
      </trkpt>
      <trkpt lat="45.886872913688421" lon="7.746679801493883">
        <ele>2240.4899999999998</ele>
        <time>2015-01-11T11:03:29Z</time>
      </trkpt>
      <trkpt lat="45.886901831254363" lon="7.746612578630447">
        <ele>2241.4499999999998</ele>
        <time>2015-01-11T11:03:34Z</time>
      </trkpt>
      <trkpt lat="45.887017166242003" lon="7.746428763493896">
        <ele>2240.0100000000002</ele>
        <time>2015-01-11T11:03:51Z</time>
      </trkpt>
      <trkpt lat="45.887117329984903" lon="7.746321307495236">
        <ele>2237.6100000000001</ele>
        <time>2015-01-11T11:04:04Z</time>
      </trkpt>
      <trkpt lat="45.887186480686069" lon="7.746127936989069">
        <ele>2234.7199999999998</ele>
        <time>2015-01-11T11:04:21Z</time>
      </trkpt>
      <trkpt lat="45.887208944186568" lon="7.745921071618795">
        <ele>2234.7199999999998</ele>
        <time>2015-01-11T11:04:34Z</time>
      </trkpt>
      <trkpt lat="45.887248925864697" lon="7.745732311159372">
        <ele>2231.8400000000001</ele>
        <time>2015-01-11T11:04:47Z</time>
      </trkpt>
      <trkpt lat="45.887255715206265" lon="7.745692748576403">
        <ele>2231.3600000000001</ele>
        <time>2015-01-11T11:04:50Z</time>
      </trkpt>
      <trkpt lat="45.887276334688067" lon="7.745571294799447">
        <ele>2228.9499999999998</ele>
        <time>2015-01-11T11:04:58Z</time>
      </trkpt>
      <trkpt lat="45.887271305546165" lon="7.745437016710639">
        <ele>2229.4299999999998</ele>
        <time>2015-01-11T11:05:08Z</time>
      </trkpt>
      <trkpt lat="45.887213302776217" lon="7.745257476344705">
        <ele>2228.4699999999998</ele>
        <time>2015-01-11T11:05:23Z</time>
      </trkpt>
      <trkpt lat="45.887211123481393" lon="7.745195282623172">
        <ele>2227.5100000000002</ele>
        <time>2015-01-11T11:05:27Z</time>
      </trkpt>
      <trkpt lat="45.887217577546835" lon="7.745174495503306">
        <ele>2225.5900000000001</ele>
        <time>2015-01-11T11:05:35Z</time>
      </trkpt>
      <trkpt lat="45.887226294726133" lon="7.745033428072929">
        <ele>2229.4299999999998</ele>
        <time>2015-01-11T11:05:44Z</time>
      </trkpt>
      <trkpt lat="45.887228390201926" lon="7.74501976557076">
        <ele>2227.5100000000002</ele>
        <time>2015-01-11T11:05:45Z</time>
      </trkpt>
      <trkpt lat="45.887239035218954" lon="7.744980286806822">
        <ele>2224.1500000000001</ele>
        <time>2015-01-11T11:05:48Z</time>
      </trkpt>
      <trkpt lat="45.887245405465364" lon="7.74496553465724">
        <ele>2224.1500000000001</ele>
        <time>2015-01-11T11:05:49Z</time>
      </trkpt>
      <trkpt lat="45.887253116816282" lon="7.744949776679277">
        <ele>2225.1100000000001</ele>
        <time>2015-01-11T11:05:50Z</time>
      </trkpt>
      <trkpt lat="45.887281782925129" lon="7.744876183569431">
        <ele>2224.6300000000001</ele>
        <time>2015-01-11T11:05:56Z</time>
      </trkpt>
      <trkpt lat="45.887340707704425" lon="7.744608717039228">
        <ele>2222.71</ele>
        <time>2015-01-11T11:06:14Z</time>
      </trkpt>
      <trkpt lat="45.887367697432637" lon="7.744555827230215">
        <ele>2221.2600000000002</ele>
        <time>2015-01-11T11:06:18Z</time>
      </trkpt>
      <trkpt lat="45.887390244752169" lon="7.744521293789148">
        <ele>2221.2600000000002</ele>
        <time>2015-01-11T11:06:21Z</time>
      </trkpt>
      <trkpt lat="45.887407595291734" lon="7.744478294625878">
        <ele>2225.1100000000001</ele>
        <time>2015-01-11T11:06:24Z</time>
      </trkpt>
      <trkpt lat="45.887413965538144" lon="7.744467817246914">
        <ele>2223.6700000000001</ele>
        <time>2015-01-11T11:06:25Z</time>
      </trkpt>
      <trkpt lat="45.887450342997909" lon="7.7444202080369">
        <ele>2221.2600000000002</ele>
        <time>2015-01-11T11:06:29Z</time>
      </trkpt>
      <trkpt lat="45.887470878660679" lon="7.744376203045249">
        <ele>2221.2600000000002</ele>
        <time>2015-01-11T11:06:32Z</time>
      </trkpt>
      <trkpt lat="45.887592919170856" lon="7.744218790903688">
        <ele>2219.8200000000002</ele>
        <time>2015-01-11T11:06:49Z</time>
      </trkpt>
      <trkpt lat="45.887557128444314" lon="7.744214683771133">
        <ele>2219.8200000000002</ele>
        <time>2015-01-11T11:06:53Z</time>
      </trkpt>
      <trkpt lat="45.887481439858675" lon="7.744233040139079">
        <ele>2217.9000000000001</ele>
        <time>2015-01-11T11:07:02Z</time>
      </trkpt>
      <trkpt lat="45.887445397675037" lon="7.744226502254605">
        <ele>2220.3000000000002</ele>
        <time>2015-01-11T11:07:06Z</time>
      </trkpt>
      <trkpt lat="45.887396866455674" lon="7.74420915171504">
        <ele>2216.46</ele>
        <time>2015-01-11T11:07:11Z</time>
      </trkpt>
      <trkpt lat="45.887325117364526" lon="7.744176294654608">
        <ele>2216.46</ele>
        <time>2015-01-11T11:07:17Z</time>
      </trkpt>
      <trkpt lat="45.887305168434978" lon="7.744187107309699">
        <ele>2216.9400000000001</ele>
        <time>2015-01-11T11:07:19Z</time>
      </trkpt>
      <trkpt lat="45.887270634993911" lon="7.744225412607193">
        <ele>2214.5300000000002</ele>
        <time>2015-01-11T11:07:23Z</time>
      </trkpt>
      <trkpt lat="45.887259319424629" lon="7.744251312687993">
        <ele>2215.98</ele>
        <time>2015-01-11T11:07:25Z</time>
      </trkpt>
      <trkpt lat="45.887252278625965" lon="7.744283666834235">
        <ele>2214.5300000000002</ele>
        <time>2015-01-11T11:07:27Z</time>
      </trkpt>
      <trkpt lat="45.887247836217284" lon="7.744296826422215">
        <ele>2214.5300000000002</ele>
        <time>2015-01-11T11:07:28Z</time>
      </trkpt>
      <trkpt lat="45.887207686901093" lon="7.744416268542409">
        <ele>2211.6500000000001</ele>
        <time>2015-01-11T11:07:37Z</time>
      </trkpt>
      <trkpt lat="45.887132082134485" lon="7.744532022625208">
        <ele>2210.21</ele>
        <time>2015-01-11T11:07:47Z</time>
      </trkpt>
      <trkpt lat="45.886986656114459" lon="7.744606202468276">
        <ele>2207.8099999999999</ele>
        <time>2015-01-11T11:08:02Z</time>
      </trkpt>
      <trkpt lat="45.88700283318758" lon="7.744615422561765">
        <ele>2209.25</ele>
        <time>2015-01-11T11:08:14Z</time>
      </trkpt>
      <trkpt lat="45.887003503739834" lon="7.744600418955088">
        <ele>2207.8099999999999</ele>
        <time>2015-01-11T11:08:30Z</time>
      </trkpt>
      <trkpt lat="45.886988751590252" lon="7.744631767272949">
        <ele>2207.3200000000002</ele>
        <time>2015-01-11T11:08:40Z</time>
      </trkpt>
      <trkpt lat="45.887004174292088" lon="7.744619278237224">
        <ele>2206.3600000000001</ele>
        <time>2015-01-11T11:09:04Z</time>
      </trkpt>
      <trkpt lat="45.886991433799267" lon="7.744614752009511">
        <ele>2206.8400000000001</ele>
        <time>2015-01-11T11:09:25Z</time>
      </trkpt>
      <trkpt lat="45.886986069381237" lon="7.744604609906673">
        <ele>2210.21</ele>
        <time>2015-01-11T11:09:34Z</time>
      </trkpt>
      <trkpt lat="45.88697399944067" lon="7.744625732302666">
        <ele>2209.25</ele>
        <time>2015-01-11T11:09:49Z</time>
      </trkpt>
      <trkpt lat="45.886984309181571" lon="7.744600754231215">
        <ele>2208.77</ele>
        <time>2015-01-11T11:10:01Z</time>
      </trkpt>
      <trkpt lat="45.886976681649685" lon="7.744589690119028">
        <ele>2209.25</ele>
        <time>2015-01-11T11:10:14Z</time>
      </trkpt>
      <trkpt lat="45.886980285868049" lon="7.744600502774119">
        <ele>2211.6500000000001</ele>
        <time>2015-01-11T11:10:26Z</time>
      </trkpt>
      <trkpt lat="45.886985398828983" lon="7.744598658755422">
        <ele>2212.6100000000001</ele>
        <time>2015-01-11T11:10:34Z</time>
      </trkpt>
      <trkpt lat="45.886981040239334" lon="7.744612069800496">
        <ele>2209.25</ele>
        <time>2015-01-11T11:10:49Z</time>
      </trkpt>
      <trkpt lat="45.886947344988585" lon="7.744638556614518">
        <ele>2210.6900000000001</ele>
        <time>2015-01-11T11:11:00Z</time>
      </trkpt>
      <trkpt lat="45.886920019984245" lon="7.744663869962096">
        <ele>2209.25</ele>
        <time>2015-01-11T11:11:04Z</time>
      </trkpt>
      <trkpt lat="45.886802170425653" lon="7.744719022884965">
        <ele>2206.8400000000001</ele>
        <time>2015-01-11T11:11:19Z</time>
      </trkpt>
      <trkpt lat="45.88676487095654" lon="7.7447016723454">
        <ele>2207.8099999999999</ele>
        <time>2015-01-11T11:11:31Z</time>
      </trkpt>
      <trkpt lat="45.886692451313138" lon="7.744801919907332">
        <ele>2205.8800000000001</ele>
        <time>2015-01-11T11:11:43Z</time>
      </trkpt>
      <trkpt lat="45.88668080046773" lon="7.74481893517077">
        <ele>2204.9200000000001</ele>
        <time>2015-01-11T11:11:45Z</time>
      </trkpt>
      <trkpt lat="45.886622378602624" lon="7.744936281815171">
        <ele>2203</ele>
        <time>2015-01-11T11:11:55Z</time>
      </trkpt>
      <trkpt lat="45.886590611189604" lon="7.744942149147391">
        <ele>2201.5599999999999</ele>
        <time>2015-01-11T11:11:58Z</time>
      </trkpt>
      <trkpt lat="45.886565381661057" lon="7.74480133317411">
        <ele>2200.1100000000001</ele>
        <time>2015-01-11T11:12:12Z</time>
      </trkpt>
      <trkpt lat="45.886585330590606" lon="7.74473343975842">
        <ele>2201.0799999999999</ele>
        <time>2015-01-11T11:12:22Z</time>
      </trkpt>
      <trkpt lat="45.886607291176915" lon="7.744705276563764">
        <ele>2201.5599999999999</ele>
        <time>2015-01-11T11:12:29Z</time>
      </trkpt>
      <trkpt lat="45.886681051924825" lon="7.744530681520701">
        <ele>2201.0799999999999</ele>
        <time>2015-01-11T11:12:43Z</time>
      </trkpt>
      <trkpt lat="45.88675363920629" lon="7.744373520836234">
        <ele>2200.5900000000001</ele>
        <time>2015-01-11T11:12:57Z</time>
      </trkpt>
      <trkpt lat="45.886801080778241" lon="7.744270674884319">
        <ele>2199.1500000000001</ele>
        <time>2015-01-11T11:13:04Z</time>
      </trkpt>
      <trkpt lat="45.886858077719808" lon="7.744112592190504">
        <ele>2196.75</ele>
        <time>2015-01-11T11:13:16Z</time>
      </trkpt>
      <trkpt lat="45.886855311691761" lon="7.744084428995848">
        <ele>2195.3099999999999</ele>
        <time>2015-01-11T11:13:18Z</time>
      </trkpt>
      <trkpt lat="45.886863525956869" lon="7.744020139798522">
        <ele>2197.23</ele>
        <time>2015-01-11T11:13:22Z</time>
      </trkpt>
      <trkpt lat="45.88682840578258" lon="7.743874965235591">
        <ele>2193.3899999999999</ele>
        <time>2015-01-11T11:13:32Z</time>
      </trkpt>
      <trkpt lat="45.886805607005954" lon="7.743783686310053">
        <ele>2192.4200000000001</ele>
        <time>2015-01-11T11:13:38Z</time>
      </trkpt>
      <trkpt lat="45.886910129338503" lon="7.743645133450627">
        <ele>2189.0599999999999</ele>
        <time>2015-01-11T11:13:52Z</time>
      </trkpt>
      <trkpt lat="45.886937202885747" lon="7.743647396564484">
        <ele>2188.0999999999999</ele>
        <time>2015-01-11T11:13:54Z</time>
      </trkpt>
      <trkpt lat="45.886952793225646" lon="7.743625352159143">
        <ele>2188.0999999999999</ele>
        <time>2015-01-11T11:13:57Z</time>
      </trkpt>
      <trkpt lat="45.886969305574894" lon="7.743610935285687">
        <ele>2188.5799999999999</ele>
        <time>2015-01-11T11:13:59Z</time>
      </trkpt>
      <trkpt lat="45.887025129050016" lon="7.743454780429602">
        <ele>2188.5799999999999</ele>
        <time>2015-01-11T11:14:10Z</time>
      </trkpt>
      <trkpt lat="45.887131411582232" lon="7.743312623351812">
        <ele>2185.21</ele>
        <time>2015-01-11T11:14:23Z</time>
      </trkpt>
      <trkpt lat="45.887178098782897" lon="7.743292925879359">
        <ele>2186.1799999999998</ele>
        <time>2015-01-11T11:14:27Z</time>
      </trkpt>
      <trkpt lat="45.887230653315783" lon="7.743262583389878">
        <ele>2185.21</ele>
        <time>2015-01-11T11:14:33Z</time>
      </trkpt>
      <trkpt lat="45.887272479012609" lon="7.743244897574186">
        <ele>2183.77</ele>
        <time>2015-01-11T11:14:37Z</time>
      </trkpt>
      <trkpt lat="45.887344982475042" lon="7.743205837905407">
        <ele>2184.73</ele>
        <time>2015-01-11T11:14:44Z</time>
      </trkpt>
      <trkpt lat="45.887458976358175" lon="7.743117576465011">
        <ele>2181.3699999999999</ele>
        <time>2015-01-11T11:14:56Z</time>
      </trkpt>
      <trkpt lat="45.887584369629622" lon="7.742947256192565">
        <ele>2182.3299999999999</ele>
        <time>2015-01-11T11:15:12Z</time>
      </trkpt>
      <trkpt lat="45.887590656057" lon="7.742921523749828">
        <ele>2182.3299999999999</ele>
        <time>2015-01-11T11:15:14Z</time>
      </trkpt>
      <trkpt lat="45.887626614421606" lon="7.742678113281727">
        <ele>2180.4099999999999</ele>
        <time>2015-01-11T11:15:30Z</time>
      </trkpt>
      <trkpt lat="45.887681432068348" lon="7.742486419156194">
        <ele>2178</ele>
        <time>2015-01-11T11:15:45Z</time>
      </trkpt>
      <trkpt lat="45.887702303007245" lon="7.742483820766211">
        <ele>2176.5599999999999</ele>
        <time>2015-01-11T11:15:56Z</time>
      </trkpt>
      <trkpt lat="45.887709930539131" lon="7.742480048909783">
        <ele>2178.9699999999998</ele>
        <time>2015-01-11T11:16:03Z</time>
      </trkpt>
      <trkpt lat="45.887709092348814" lon="7.742457669228315">
        <ele>2178.48</ele>
        <time>2015-01-11T11:16:05Z</time>
      </trkpt>
      <trkpt lat="45.887786289677024" lon="7.742235045880079">
        <ele>2174.6399999999999</ele>
        <time>2015-01-11T11:16:21Z</time>
      </trkpt>
      <trkpt lat="45.887823756784201" lon="7.742036143317819">
        <ele>2171.7600000000002</ele>
        <time>2015-01-11T11:16:34Z</time>
      </trkpt>
      <trkpt lat="45.887826774269342" lon="7.742020972073078">
        <ele>2171.27</ele>
        <time>2015-01-11T11:16:35Z</time>
      </trkpt>
      <trkpt lat="45.887857787311077" lon="7.741798348724842">
        <ele>2169.3499999999999</ele>
        <time>2015-01-11T11:16:50Z</time>
      </trkpt>
      <trkpt lat="45.887872707098722" lon="7.741622747853398">
        <ele>2169.3499999999999</ele>
        <time>2015-01-11T11:17:02Z</time>
      </trkpt>
      <trkpt lat="45.887868432328105" lon="7.741598524153233">
        <ele>2168.3899999999999</ele>
        <time>2015-01-11T11:17:04Z</time>
      </trkpt>
      <trkpt lat="45.887799365445971" lon="7.741532139480114">
        <ele>2169.3499999999999</ele>
        <time>2015-01-11T11:17:17Z</time>
      </trkpt>
      <trkpt lat="45.887811854481697" lon="7.741541862487793">
        <ele>2168.3899999999999</ele>
        <time>2015-01-11T11:17:36Z</time>
      </trkpt>
      <trkpt lat="45.887790061533451" lon="7.741559715941548">
        <ele>2167.9099999999999</ele>
        <time>2015-01-11T11:17:47Z</time>
      </trkpt>
      <trkpt lat="45.887763071805239" lon="7.741568014025688">
        <ele>2169.3499999999999</ele>
        <time>2015-01-11T11:17:59Z</time>
      </trkpt>
      <trkpt lat="45.887754689902067" lon="7.7415881305933">
        <ele>2169.3499999999999</ele>
        <time>2015-01-11T11:18:02Z</time>
      </trkpt>
      <trkpt lat="45.887723928317428" lon="7.741708913818002">
        <ele>2168.8699999999999</ele>
        <time>2015-01-11T11:18:14Z</time>
      </trkpt>
      <trkpt lat="45.887721078470349" lon="7.741725761443377">
        <ele>2168.8699999999999</ele>
        <time>2015-01-11T11:18:15Z</time>
      </trkpt>
      <trkpt lat="45.887675732374191" lon="7.741822320967913">
        <ele>2166.4699999999998</ele>
        <time>2015-01-11T11:18:22Z</time>
      </trkpt>
      <trkpt lat="45.887610521167517" lon="7.741879988461733">
        <ele>2165.9899999999998</ele>
        <time>2015-01-11T11:18:29Z</time>
      </trkpt>
      <trkpt lat="45.887565510347486" lon="7.74188912473619">
        <ele>2163.5799999999999</ele>
        <time>2015-01-11T11:18:33Z</time>
      </trkpt>
      <trkpt lat="45.887492168694735" lon="7.74186858907342">
        <ele>2161.6599999999999</ele>
        <time>2015-01-11T11:18:40Z</time>
      </trkpt>
      <trkpt lat="45.887355795130134" lon="7.741794744506478">
        <ele>2162.1399999999999</ele>
        <time>2015-01-11T11:18:53Z</time>
      </trkpt>
      <trkpt lat="45.887222187593579" lon="7.74176892824471">
        <ele>2161.1799999999998</ele>
        <time>2015-01-11T11:19:06Z</time>
      </trkpt>
      <trkpt lat="45.887064691632986" lon="7.74173079058528">
        <ele>2159.7399999999998</ele>
        <time>2015-01-11T11:19:22Z</time>
      </trkpt>
      <trkpt lat="45.886972239241004" lon="7.741830199956894">
        <ele>2155.8899999999999</ele>
        <time>2015-01-11T11:19:33Z</time>
      </trkpt>
      <trkpt lat="45.886911135166883" lon="7.742024408653379">
        <ele>2154.4499999999998</ele>
        <time>2015-01-11T11:19:47Z</time>
      </trkpt>
      <trkpt lat="45.886910632252693" lon="7.742055840790272">
        <ele>2153.9699999999998</ele>
        <time>2015-01-11T11:19:49Z</time>
      </trkpt>
      <trkpt lat="45.886767972260714" lon="7.742073694244027">
        <ele>2152.5300000000002</ele>
        <time>2015-01-11T11:20:02Z</time>
      </trkpt>
      <trkpt lat="45.886748107150197" lon="7.742071514949203">
        <ele>2151.5700000000002</ele>
        <time>2015-01-11T11:20:04Z</time>
      </trkpt>
      <trkpt lat="45.886685159057379" lon="7.742053410038352">
        <ele>2151.0900000000001</ele>
        <time>2015-01-11T11:20:10Z</time>
      </trkpt>
      <trkpt lat="45.88665347546339" lon="7.742034215480089">
        <ele>2150.1300000000001</ele>
        <time>2015-01-11T11:20:13Z</time>
      </trkpt>
      <trkpt lat="45.886585414409637" lon="7.742037987336516">
        <ele>2151.5700000000002</ele>
        <time>2015-01-11T11:20:19Z</time>
      </trkpt>
      <trkpt lat="45.88639447465539" lon="7.742037149146199">
        <ele>2149.1599999999999</ele>
        <time>2015-01-11T11:20:36Z</time>
      </trkpt>
      <trkpt lat="45.886285090819001" lon="7.742111664265394">
        <ele>2146.2800000000002</ele>
        <time>2015-01-11T11:20:47Z</time>
      </trkpt>
      <trkpt lat="45.886242343112826" lon="7.742141420021653">
        <ele>2144.8400000000001</ele>
        <time>2015-01-11T11:20:51Z</time>
      </trkpt>
      <trkpt lat="45.886162966489792" lon="7.74219891987741">
        <ele>2143.4000000000001</ele>
        <time>2015-01-11T11:20:59Z</time>
      </trkpt>
      <trkpt lat="45.886101527139544" lon="7.742246277630329">
        <ele>2142.4400000000001</ele>
        <time>2015-01-11T11:21:14Z</time>
      </trkpt>
      <trkpt lat="45.886109741404653" lon="7.742239991202951">
        <ele>2141.4699999999998</ele>
        <time>2015-01-11T11:21:29Z</time>
      </trkpt>
      <trkpt lat="45.886128433048725" lon="7.742240577936173">
        <ele>2142.4400000000001</ele>
        <time>2015-01-11T11:21:46Z</time>
      </trkpt>
      <trkpt lat="45.886111753061414" lon="7.74225901812315">
        <ele>2141.9499999999998</ele>
        <time>2015-01-11T11:21:55Z</time>
      </trkpt>
      <trkpt lat="45.885956520214677" lon="7.742308974266052">
        <ele>2139.0700000000002</ele>
        <time>2015-01-11T11:22:10Z</time>
      </trkpt>
      <trkpt lat="45.88591955602169" lon="7.742304364219308">
        <ele>2138.1100000000001</ele>
        <time>2015-01-11T11:22:14Z</time>
      </trkpt>
      <trkpt lat="45.885890638455749" lon="7.742292629554868">
        <ele>2139.0700000000002</ele>
        <time>2015-01-11T11:22:18Z</time>
      </trkpt>
      <trkpt lat="45.885796677321196" lon="7.742274105548859">
        <ele>2138.1100000000001</ele>
        <time>2015-01-11T11:22:27Z</time>
      </trkpt>
      <trkpt lat="45.885773794725537" lon="7.742203613743186">
        <ele>2139.0700000000002</ele>
        <time>2015-01-11T11:22:32Z</time>
      </trkpt>
      <trkpt lat="45.885791731998324" lon="7.742137312889099">
        <ele>2137.6300000000001</ele>
        <time>2015-01-11T11:22:36Z</time>
      </trkpt>
      <trkpt lat="45.885843951255083" lon="7.742089871317148">
        <ele>2137.1500000000001</ele>
        <time>2015-01-11T11:22:41Z</time>
      </trkpt>
      <trkpt lat="45.885906564071774" lon="7.742026755586267">
        <ele>2136.6700000000001</ele>
        <time>2015-01-11T11:22:50Z</time>
      </trkpt>
      <trkpt lat="45.885957945138216" lon="7.741810418665409">
        <ele>2134.7399999999998</ele>
        <time>2015-01-11T11:23:05Z</time>
      </trkpt>
      <trkpt lat="45.885987030342221" lon="7.741704974323511">
        <ele>2132.8200000000002</ele>
        <time>2015-01-11T11:23:14Z</time>
      </trkpt>
      <trkpt lat="45.886076549068093" lon="7.741497606039047">
        <ele>2129.46</ele>
        <time>2015-01-11T11:23:29Z</time>
      </trkpt>
      <trkpt lat="45.88608467951417" lon="7.741481512784958">
        <ele>2129.46</ele>
        <time>2015-01-11T11:23:30Z</time>
      </trkpt>
      <trkpt lat="45.88614771142602" lon="7.7412617392838">
        <ele>2126.5700000000002</ele>
        <time>2015-01-11T11:23:46Z</time>
      </trkpt>
      <trkpt lat="45.886279558762908" lon="7.741088150069118">
        <ele>2126.0900000000001</ele>
        <time>2015-01-11T11:24:02Z</time>
      </trkpt>
      <trkpt lat="45.886298418045044" lon="7.740991339087486">
        <ele>2123.6900000000001</ele>
        <time>2015-01-11T11:24:14Z</time>
      </trkpt>
      <trkpt lat="45.886140167713165" lon="7.741078594699502">
        <ele>2121.77</ele>
        <time>2015-01-11T11:24:30Z</time>
      </trkpt>
      <trkpt lat="45.88609297759831" lon="7.741104662418366">
        <ele>2119.8400000000001</ele>
        <time>2015-01-11T11:24:35Z</time>
      </trkpt>
      <trkpt lat="45.885967584326863" lon="7.741143889725208">
        <ele>2121.29</ele>
        <time>2015-01-11T11:24:47Z</time>
      </trkpt>
      <trkpt lat="45.885876640677452" lon="7.741173729300499">
        <ele>2118.4000000000001</ele>
        <time>2015-01-11T11:24:56Z</time>
      </trkpt>
      <trkpt lat="45.88580715470016" lon="7.741180267184973">
        <ele>2116.96</ele>
        <time>2015-01-11T11:25:02Z</time>
      </trkpt>
      <trkpt lat="45.885627111420035" lon="7.741142548620701">
        <ele>2115.52</ele>
        <time>2015-01-11T11:25:17Z</time>
      </trkpt>
      <trkpt lat="45.885492833331227" lon="7.741118241101503">
        <ele>2114.5599999999999</ele>
        <time>2015-01-11T11:25:29Z</time>
      </trkpt>
      <trkpt lat="45.885440865531564" lon="7.740959487855434">
        <ele>2114.0799999999999</ele>
        <time>2015-01-11T11:25:39Z</time>
      </trkpt>
      <trkpt lat="45.885388310998678" lon="7.740806434303522">
        <ele>2112.1500000000001</ele>
        <time>2015-01-11T11:25:50Z</time>
      </trkpt>
      <trkpt lat="45.885347658768296" lon="7.740787491202354">
        <ele>2111.1900000000001</ele>
        <time>2015-01-11T11:25:54Z</time>
      </trkpt>
      <trkpt lat="45.885318322107196" lon="7.74079654365778">
        <ele>2110.71</ele>
        <time>2015-01-11T11:25:57Z</time>
      </trkpt>
      <trkpt lat="45.885189743712544" lon="7.74098614230752">
        <ele>2107.3499999999999</ele>
        <time>2015-01-11T11:26:13Z</time>
      </trkpt>
      <trkpt lat="45.885111205279827" lon="7.741099800914526">
        <ele>2105.4200000000001</ele>
        <time>2015-01-11T11:26:23Z</time>
      </trkpt>
      <trkpt lat="45.885067619383335" lon="7.741159480065107">
        <ele>2104.9400000000001</ele>
        <time>2015-01-11T11:26:29Z</time>
      </trkpt>
      <trkpt lat="45.88504683226347" lon="7.741170711815357">
        <ele>2104.46</ele>
        <time>2015-01-11T11:26:31Z</time>
      </trkpt>
      <trkpt lat="45.885012466460466" lon="7.741157719865441">
        <ele>2104.46</ele>
        <time>2015-01-11T11:26:34Z</time>
      </trkpt>
      <trkpt lat="45.885032499209046" lon="7.740998966619372">
        <ele>2101.0999999999999</ele>
        <time>2015-01-11T11:26:44Z</time>
      </trkpt>
      <trkpt lat="45.885080108419061" lon="7.74073988199234">
        <ele>2099.6599999999999</ele>
        <time>2015-01-11T11:27:00Z</time>
      </trkpt>
      <trkpt lat="45.885140206664801" lon="7.740466129034758">
        <ele>2097.25</ele>
        <time>2015-01-11T11:27:17Z</time>
      </trkpt>
      <trkpt lat="45.885171974077821" lon="7.740176199004054">
        <ele>2096.77</ele>
        <time>2015-01-11T11:27:33Z</time>
      </trkpt>
      <trkpt lat="45.885180858895183" lon="7.739971429109573">
        <ele>2097.73</ele>
        <time>2015-01-11T11:27:47Z</time>
      </trkpt>
      <trkpt lat="45.885180523619056" lon="7.739868834614754">
        <ele>2097.25</ele>
        <time>2015-01-11T11:27:59Z</time>
      </trkpt>
      <trkpt lat="45.885175997391343" lon="7.739884005859494">
        <ele>2098.21</ele>
        <time>2015-01-11T11:28:14Z</time>
      </trkpt>
      <trkpt lat="45.885158646851778" lon="7.739844527095556">
        <ele>2097.73</ele>
        <time>2015-01-11T11:28:26Z</time>
      </trkpt>
      <trkpt lat="45.885148672387004" lon="7.739847879856825">
        <ele>2098.6999999999998</ele>
        <time>2015-01-11T11:28:35Z</time>
      </trkpt>
      <trkpt lat="45.885096956044436" lon="7.739824159070849">
        <ele>2098.6999999999998</ele>
        <time>2015-01-11T11:28:47Z</time>
      </trkpt>
      <trkpt lat="45.885133584961295" lon="7.73980806581676">
        <ele>2099.1799999999998</ele>
        <time>2015-01-11T11:29:00Z</time>
      </trkpt>
      <trkpt lat="45.885142469778657" lon="7.739807898178697">
        <ele>2097.25</ele>
        <time>2015-01-11T11:29:16Z</time>
      </trkpt>
      <trkpt lat="45.885150516405702" lon="7.739804377779365">
        <ele>2096.29</ele>
        <time>2015-01-11T11:29:40Z</time>
      </trkpt>
      <trkpt lat="45.885141715407372" lon="7.739816280081868">
        <ele>2097.25</ele>
        <time>2015-01-11T11:30:02Z</time>
      </trkpt>
      <trkpt lat="45.885133249685168" lon="7.739813094958663">
        <ele>2095.8099999999999</ele>
        <time>2015-01-11T11:30:26Z</time>
      </trkpt>
      <trkpt lat="45.8851298969239" lon="7.739811753854156">
        <ele>2093.4099999999999</ele>
        <time>2015-01-11T11:30:31Z</time>
      </trkpt>
      <trkpt lat="45.885126292705536" lon="7.739807227626443">
        <ele>2094.8499999999999</ele>
        <time>2015-01-11T11:30:33Z</time>
      </trkpt>
      <trkpt lat="45.885114558041096" lon="7.739778645336628">
        <ele>2093.8899999999999</ele>
        <time>2015-01-11T11:30:43Z</time>
      </trkpt>
      <trkpt lat="45.885103829205036" lon="7.739806054159999">
        <ele>2096.29</ele>
        <time>2015-01-11T11:31:05Z</time>
      </trkpt>
      <trkpt lat="45.885096034035087" lon="7.739793146029115">
        <ele>2099.6599999999999</ele>
        <time>2015-01-11T11:31:23Z</time>
      </trkpt>
      <trkpt lat="45.885095614939928" lon="7.739815106615424">
        <ele>2100.1399999999999</ele>
        <time>2015-01-11T11:31:33Z</time>
      </trkpt>
      <trkpt lat="45.885083293542266" lon="7.739820303395391">
        <ele>2101.5799999999999</ele>
        <time>2015-01-11T11:31:36Z</time>
      </trkpt>
      <trkpt lat="45.885063093155622" lon="7.739815274253488">
        <ele>2101.0999999999999</ele>
        <time>2015-01-11T11:31:47Z</time>
      </trkpt>
      <trkpt lat="45.88496770709753" lon="7.739733550697565">
        <ele>2100.1399999999999</ele>
        <time>2015-01-11T11:31:56Z</time>
      </trkpt>
      <trkpt lat="45.88491540402174" lon="7.739683510735631">
        <ele>2099.1799999999998</ele>
        <time>2015-01-11T11:32:01Z</time>
      </trkpt>
      <trkpt lat="45.884881289675832" lon="7.739646630361676">
        <ele>2097.73</ele>
        <time>2015-01-11T11:32:05Z</time>
      </trkpt>
      <trkpt lat="45.884781796485186" lon="7.739506820216775">
        <ele>2094.3699999999999</ele>
        <time>2015-01-11T11:32:17Z</time>
      </trkpt>
      <trkpt lat="45.884704180061817" lon="7.739402549341321">
        <ele>2092.9299999999998</ele>
        <time>2015-01-11T11:32:26Z</time>
      </trkpt>
      <trkpt lat="45.884657995775342" lon="7.739354940131307">
        <ele>2091.9699999999998</ele>
        <time>2015-01-11T11:32:31Z</time>
      </trkpt>
      <trkpt lat="45.884501757100224" lon="7.739242874085903">
        <ele>2089.0799999999999</ele>
        <time>2015-01-11T11:32:46Z</time>
      </trkpt>
      <trkpt lat="45.884317187592387" lon="7.739195181056857">
        <ele>2086.1999999999998</ele>
        <time>2015-01-11T11:33:01Z</time>
      </trkpt>
      <trkpt lat="45.884147202596068" lon="7.739062830805779">
        <ele>2085.7199999999998</ele>
        <time>2015-01-11T11:33:17Z</time>
      </trkpt>
      <trkpt lat="45.8839659858495" lon="7.738945400342345">
        <ele>2084.2800000000002</ele>
        <time>2015-01-11T11:33:34Z</time>
      </trkpt>
      <trkpt lat="45.88378082960844" lon="7.738897455856204">
        <ele>2081.3899999999999</ele>
        <time>2015-01-11T11:33:50Z</time>
      </trkpt>
      <trkpt lat="45.883647054433823" lon="7.738882200792432">
        <ele>2080.4299999999998</ele>
        <time>2015-01-11T11:34:03Z</time>
      </trkpt>
      <trkpt lat="45.883489642292261" lon="7.738836267963052">
        <ele>2078.0300000000002</ele>
        <time>2015-01-11T11:34:20Z</time>
      </trkpt>
      <trkpt lat="45.883404314517975" lon="7.738783713430166">
        <ele>2078.5100000000002</ele>
        <time>2015-01-11T11:34:31Z</time>
      </trkpt>
      <trkpt lat="45.883240280672908" lon="7.738728141412139">
        <ele>2076.5900000000001</ele>
        <time>2015-01-11T11:34:47Z</time>
      </trkpt>
      <trkpt lat="45.883073480799794" lon="7.738661505281925">
        <ele>2075.1399999999999</ele>
        <time>2015-01-11T11:35:03Z</time>
      </trkpt>
      <trkpt lat="45.882896203547716" lon="7.738599479198456">
        <ele>2073.2199999999998</ele>
        <time>2015-01-11T11:35:19Z</time>
      </trkpt>
      <trkpt lat="45.88270585052669" lon="7.738582463935018">
        <ele>2071.7800000000002</ele>
        <time>2015-01-11T11:35:35Z</time>
      </trkpt>
      <trkpt lat="45.882516754791141" lon="7.738610208034515">
        <ele>2071.7800000000002</ele>
        <time>2015-01-11T11:35:52Z</time>
      </trkpt>
      <trkpt lat="45.882509127259254" lon="7.738605011254549">
        <ele>2072.2600000000002</ele>
        <time>2015-01-11T11:35:53Z</time>
      </trkpt>
      <trkpt lat="45.88248792104423" lon="7.738576261326671">
        <ele>2070.8200000000002</ele>
        <time>2015-01-11T11:35:56Z</time>
      </trkpt>
      <trkpt lat="45.882431678473949" lon="7.73857232183218">
        <ele>2069.8600000000001</ele>
        <time>2015-01-11T11:36:05Z</time>
      </trkpt>
      <trkpt lat="45.882411226630211" lon="7.738590929657221">
        <ele>2069.8600000000001</ele>
        <time>2015-01-11T11:36:07Z</time>
      </trkpt>
      <trkpt lat="45.882343668490648" lon="7.738605011254549">
        <ele>2068.8899999999999</ele>
        <time>2015-01-11T11:36:14Z</time>
      </trkpt>
      <trkpt lat="45.882261358201504" lon="7.738599814474583">
        <ele>2066.9699999999998</ele>
        <time>2015-01-11T11:36:24Z</time>
      </trkpt>
      <trkpt lat="45.882137389853597" lon="7.738567376509309">
        <ele>2067.4499999999998</ele>
        <time>2015-01-11T11:36:36Z</time>
      </trkpt>
      <trkpt lat="45.882131103426218" lon="7.738517839461565">
        <ele>2067.9299999999998</ele>
        <time>2015-01-11T11:36:40Z</time>
      </trkpt>
      <trkpt lat="45.882141580805182" lon="7.738474002107978">
        <ele>2067.9299999999998</ele>
        <time>2015-01-11T11:36:52Z</time>
      </trkpt>
      <trkpt lat="45.882087517529726" lon="7.73845262825489">
        <ele>2067.4499999999998</ele>
        <time>2015-01-11T11:37:15Z</time>
      </trkpt>
      <trkpt lat="45.881925076246262" lon="7.738370569422841">
        <ele>2068.4099999999999</ele>
        <time>2015-01-11T11:37:36Z</time>
      </trkpt>
      <trkpt lat="45.881892638280988" lon="7.738376688212156">
        <ele>2068.8899999999999</ele>
        <time>2015-01-11T11:37:53Z</time>
      </trkpt>
      <trkpt lat="45.881848717108369" lon="7.738354727625847">
        <ele>2067.9299999999998</ele>
        <time>2015-01-11T11:38:20Z</time>
      </trkpt>
      <trkpt lat="45.881789037957788" lon="7.738330252468586">
        <ele>2066.9699999999998</ele>
        <time>2015-01-11T11:38:43Z</time>
      </trkpt>
      <trkpt lat="45.881768837571144" lon="7.738293958827853">
        <ele>2067.4499999999998</ele>
        <time>2015-01-11T11:39:07Z</time>
      </trkpt>
      <trkpt lat="45.881831869482994" lon="7.738322960212827">
        <ele>2067.4499999999998</ele>
        <time>2015-01-11T11:39:29Z</time>
      </trkpt>
      <trkpt lat="45.881730867549777" lon="7.738283146172762">
        <ele>2066.4899999999998</ele>
        <time>2015-01-11T11:39:48Z</time>
      </trkpt>
      <trkpt lat="45.881602792069316" lon="7.73822832852602">
        <ele>2066.0100000000002</ele>
        <time>2015-01-11T11:40:09Z</time>
      </trkpt>
      <trkpt lat="45.881583597511053" lon="7.738202260807157">
        <ele>2065.5300000000002</ele>
        <time>2015-01-11T11:40:33Z</time>
      </trkpt>
      <trkpt lat="45.881634643301368" lon="7.7382258977741">
        <ele>2065.5300000000002</ele>
        <time>2015-01-11T11:40:37Z</time>
      </trkpt>
      <trkpt lat="45.88157806545496" lon="7.738197231665254">
        <ele>2069.8600000000001</ele>
        <time>2015-01-11T11:42:01Z</time>
      </trkpt>
      <trkpt lat="45.882053067907691" lon="7.738422118127346">
        <ele>2068.4099999999999</ele>
        <time>2015-01-11T11:42:21Z</time>
      </trkpt>
      <trkpt lat="45.882044686004519" lon="7.738391356542707">
        <ele>2066.4899999999998</ele>
        <time>2015-01-11T11:42:45Z</time>
      </trkpt>
      <trkpt lat="45.882077291607857" lon="7.738373083993793">
        <ele>2068.4099999999999</ele>
        <time>2015-01-11T11:43:17Z</time>
      </trkpt>
      <trkpt lat="45.882096318528056" lon="7.738402839750052">
        <ele>2065.5300000000002</ele>
        <time>2015-01-11T11:43:43Z</time>
      </trkpt>
      <trkpt lat="45.88212288916111" lon="7.738439384847879">
        <ele>2063.6100000000001</ele>
        <time>2015-01-11T11:44:12Z</time>
      </trkpt>
      <trkpt lat="45.882133617997169" lon="7.738409042358398">
        <ele>2064.5700000000002</ele>
        <time>2015-01-11T11:44:42Z</time>
      </trkpt>
      <trkpt lat="45.882158596068621" lon="7.738440977409482">
        <ele>2064.5700000000002</ele>
        <time>2015-01-11T11:45:08Z</time>
      </trkpt>
      <trkpt lat="45.882129594683647" lon="7.738430080935359">
        <ele>2065.5300000000002</ele>
        <time>2015-01-11T11:45:37Z</time>
      </trkpt>
      <trkpt lat="45.882080057635903" lon="7.738405941054225">
        <ele>2063.6100000000001</ele>
        <time>2015-01-11T11:45:57Z</time>
      </trkpt>
      <trkpt lat="45.881970757618546" lon="7.738376101478934">
        <ele>2066.0100000000002</ele>
        <time>2015-01-11T11:46:21Z</time>
      </trkpt>
      <trkpt lat="45.881972517818213" lon="7.738384483382106">
        <ele>2066.9699999999998</ele>
        <time>2015-01-11T11:46:23Z</time>
      </trkpt>
      <trkpt lat="45.882014678791165" lon="7.738394122570753">
        <ele>2067.9299999999998</ele>
        <time>2015-01-11T11:46:47Z</time>
      </trkpt>
      <trkpt lat="45.882027838379145" lon="7.738395044580102">
        <ele>2067.4499999999998</ele>
        <time>2015-01-11T11:47:06Z</time>
      </trkpt>
      <trkpt lat="45.88203932158649" lon="7.738393032923341">
        <ele>2063.6100000000001</ele>
        <time>2015-01-11T11:47:12Z</time>
      </trkpt>
      <trkpt lat="45.882039992138743" lon="7.738396134227514">
        <ele>2065.0500000000002</ele>
        <time>2015-01-11T11:47:13Z</time>
      </trkpt>
      <trkpt lat="45.882033705711365" lon="7.738385824486613">
        <ele>2068.4099999999999</ele>
        <time>2015-01-11T11:47:30Z</time>
      </trkpt>
      <trkpt lat="45.882053151726723" lon="7.738409042358398">
        <ele>2066.0100000000002</ele>
        <time>2015-01-11T11:47:49Z</time>
      </trkpt>
      <trkpt lat="45.882084667682648" lon="7.738408790901303">
        <ele>2066.0100000000002</ele>
        <time>2015-01-11T11:48:17Z</time>
      </trkpt>
      <trkpt lat="45.882094809785485" lon="7.738410551100969">
        <ele>2067.9299999999998</ele>
        <time>2015-01-11T11:48:20Z</time>
      </trkpt>
      <trkpt lat="45.882006715983152" lon="7.738431422039866">
        <ele>2065.0500000000002</ele>
        <time>2015-01-11T11:48:36Z</time>
      </trkpt>
      <trkpt lat="45.881982827559114" lon="7.738329079002142">
        <ele>2066.0100000000002</ele>
        <time>2015-01-11T11:49:06Z</time>
      </trkpt>
      <trkpt lat="45.881863385438919" lon="7.73831776343286">
        <ele>2064.5700000000002</ele>
        <time>2015-01-11T11:49:39Z</time>
      </trkpt>
      <trkpt lat="45.881906719878316" lon="7.738320864737034">
        <ele>2064.0900000000001</ele>
        <time>2015-01-11T11:50:01Z</time>
      </trkpt>
      <trkpt lat="45.882023647427559" lon="7.738381298258901">
        <ele>2062.6500000000001</ele>
        <time>2015-01-11T11:50:38Z</time>
      </trkpt>
      <trkpt lat="45.882054157555103" lon="7.738407785072923">
        <ele>2063.6100000000001</ele>
        <time>2015-01-11T11:51:03Z</time>
      </trkpt>
      <trkpt lat="45.882086846977472" lon="7.738410802558065">
        <ele>2064.5700000000002</ele>
        <time>2015-01-11T11:51:23Z</time>
      </trkpt>
      <trkpt lat="45.882106963545084" lon="7.738409209996462">
        <ele>2064.5700000000002</ele>
        <time>2015-01-11T11:51:58Z</time>
      </trkpt>
      <trkpt lat="45.88213462382555" lon="7.738430332392454">
        <ele>2063.6100000000001</ele>
        <time>2015-01-11T11:52:30Z</time>
      </trkpt>
      <trkpt lat="45.882141999900341" lon="7.738427734002471">
        <ele>2065.0500000000002</ele>
        <time>2015-01-11T11:52:33Z</time>
      </trkpt>
      <trkpt lat="45.882123140618205" lon="7.738428739830852">
        <ele>2066.9699999999998</ele>
        <time>2015-01-11T11:52:53Z</time>
      </trkpt>
      <trkpt lat="45.882157003507018" lon="7.738426057621837">
        <ele>2063.6100000000001</ele>
        <time>2015-01-11T11:53:13Z</time>
      </trkpt>
      <trkpt lat="45.882161697372794" lon="7.738430332392454">
        <ele>2060.7199999999998</ele>
        <time>2015-01-11T11:53:34Z</time>
      </trkpt>
      <trkpt lat="45.882188016548753" lon="7.738459333777428">
        <ele>2062.1700000000001</ele>
        <time>2015-01-11T11:54:03Z</time>
      </trkpt>
      <trkpt lat="45.882159601897001" lon="7.738461429253221">
        <ele>2063.1300000000001</ele>
        <time>2015-01-11T11:54:38Z</time>
      </trkpt>
      <trkpt lat="45.882078465074301" lon="7.738424045965076">
        <ele>2063.6100000000001</ele>
        <time>2015-01-11T11:55:01Z</time>
      </trkpt>
      <trkpt lat="45.88201736100018" lon="7.738406863063574">
        <ele>2064.0900000000001</ele>
        <time>2015-01-11T11:55:30Z</time>
      </trkpt>
      <trkpt lat="45.881978468969464" lon="7.73835732601583">
        <ele>2062.6500000000001</ele>
        <time>2015-01-11T11:55:51Z</time>
      </trkpt>
      <trkpt lat="45.881919208914042" lon="7.738352548331022">
        <ele>2061.1999999999998</ele>
        <time>2015-01-11T11:56:15Z</time>
      </trkpt>
      <trkpt lat="45.881965141743422" lon="7.738335197791457">
        <ele>2059.7600000000002</ele>
        <time>2015-01-11T11:56:42Z</time>
      </trkpt>
      <trkpt lat="45.88194552809" lon="7.738361265510321">
        <ele>2063.1300000000001</ele>
        <time>2015-01-11T11:57:01Z</time>
      </trkpt>
      <trkpt lat="45.881966482847929" lon="7.738374257460237">
        <ele>2066.4899999999998</ele>
        <time>2015-01-11T11:57:31Z</time>
      </trkpt>
      <trkpt lat="45.882034208625555" lon="7.738384231925011">
        <ele>2063.1300000000001</ele>
        <time>2015-01-11T11:58:01Z</time>
      </trkpt>
      <trkpt lat="45.882048876956105" lon="7.7384003251791">
        <ele>2063.6100000000001</ele>
        <time>2015-01-11T11:58:33Z</time>
      </trkpt>
      <trkpt lat="45.882064215838909" lon="7.738414574414492">
        <ele>2066.0100000000002</ele>
        <time>2015-01-11T11:58:36Z</time>
      </trkpt>
      <trkpt lat="45.882116686552763" lon="7.738414406776428">
        <ele>2066.0100000000002</ele>
        <time>2015-01-11T11:59:06Z</time>
      </trkpt>
      <trkpt lat="45.882110316306353" lon="7.738423040136695">
        <ele>2067.4499999999998</ele>
        <time>2015-01-11T11:59:08Z</time>
      </trkpt>
      <trkpt lat="45.882103610783815" lon="7.73843502625823">
        <ele>2066.0100000000002</ele>
        <time>2015-01-11T11:59:10Z</time>
      </trkpt>
      <trkpt lat="45.882094642147422" lon="7.738435529172421">
        <ele>2067.4499999999998</ele>
        <time>2015-01-11T11:59:19Z</time>
      </trkpt>
      <trkpt lat="45.882114926353097" lon="7.73840518668294">
        <ele>2065.5300000000002</ele>
        <time>2015-01-11T11:59:42Z</time>
      </trkpt>
      <trkpt lat="45.882052732631564" lon="7.738390853628516">
        <ele>2064.0900000000001</ele>
        <time>2015-01-11T12:00:10Z</time>
      </trkpt>
      <trkpt lat="45.88207452557981" lon="7.73840568959713">
        <ele>2063.6100000000001</ele>
        <time>2015-01-11T12:00:36Z</time>
      </trkpt>
      <trkpt lat="45.882085170596838" lon="7.738383142277598">
        <ele>2065.5300000000002</ele>
        <time>2015-01-11T12:01:00Z</time>
      </trkpt>
      <trkpt lat="45.882050972431898" lon="7.738400995731354">
        <ele>2066.0100000000002</ele>
        <time>2015-01-11T12:01:30Z</time>
      </trkpt>
      <trkpt lat="45.882079554721713" lon="7.738381214439869">
        <ele>2067.4499999999998</ele>
        <time>2015-01-11T12:01:51Z</time>
      </trkpt>
      <trkpt lat="45.882092379033566" lon="7.738374844193459">
        <ele>2070.8200000000002</ele>
        <time>2015-01-11T12:01:55Z</time>
      </trkpt>
      <trkpt lat="45.882088104262948" lon="7.738388506695628">
        <ele>2067.4499999999998</ele>
        <time>2015-01-11T12:02:02Z</time>
      </trkpt>
      <trkpt lat="45.882095228880644" lon="7.73839982226491">
        <ele>2066.9699999999998</ele>
        <time>2015-01-11T12:02:26Z</time>
      </trkpt>
      <trkpt lat="45.882144933566451" lon="7.73840518668294">
        <ele>2066.0100000000002</ele>
        <time>2015-01-11T12:02:53Z</time>
      </trkpt>
      <trkpt lat="45.88216295465827" lon="7.738418346270919">
        <ele>2066.0100000000002</ele>
        <time>2015-01-11T12:03:23Z</time>
      </trkpt>
      <trkpt lat="45.882159601897001" lon="7.738413820043206">
        <ele>2062.6500000000001</ele>
        <time>2015-01-11T12:03:42Z</time>
      </trkpt>
      <trkpt lat="45.882164463400841" lon="7.738417005166411">
        <ele>2062.1700000000001</ele>
        <time>2015-01-11T12:04:02Z</time>
      </trkpt>
      <trkpt lat="45.882163122296333" lon="7.738404180854559">
        <ele>2064.0900000000001</ele>
        <time>2015-01-11T12:04:27Z</time>
      </trkpt>
      <trkpt lat="45.882133115082979" lon="7.738427314907312">
        <ele>2063.6100000000001</ele>
        <time>2015-01-11T12:04:58Z</time>
      </trkpt>
      <trkpt lat="45.882125571370125" lon="7.738420944660902">
        <ele>2065.0500000000002</ele>
        <time>2015-01-11T12:05:09Z</time>
      </trkpt>
      <trkpt lat="45.882119871675968" lon="7.738427650183439">
        <ele>2066.0100000000002</ele>
        <time>2015-01-11T12:05:25Z</time>
      </trkpt>
      <trkpt lat="45.882119117304683" lon="7.738411389291287">
        <ele>2066.0100000000002</ele>
        <time>2015-01-11T12:05:51Z</time>
      </trkpt>
      <trkpt lat="45.882106879726052" lon="7.738397559151053">
        <ele>2069.3800000000001</ele>
        <time>2015-01-11T12:05:58Z</time>
      </trkpt>
      <trkpt lat="45.882102018222213" lon="7.738399486988783">
        <ele>2069.3800000000001</ele>
        <time>2015-01-11T12:05:59Z</time>
      </trkpt>
      <trkpt lat="45.882081817835569" lon="7.73839982226491">
        <ele>2071.3000000000002</ele>
        <time>2015-01-11T12:06:04Z</time>
      </trkpt>
      <trkpt lat="45.882070669904351" lon="7.738406527787447">
        <ele>2075.1399999999999</ele>
        <time>2015-01-11T12:06:07Z</time>
      </trkpt>
      <trkpt lat="45.882069244980812" lon="7.738409712910652">
        <ele>2075.1399999999999</ele>
        <time>2015-01-11T12:06:08Z</time>
      </trkpt>
      <trkpt lat="45.882067400962114" lon="7.738407785072923">
        <ele>2071.3000000000002</ele>
        <time>2015-01-11T12:06:11Z</time>
      </trkpt>
      <trkpt lat="45.882066059857607" lon="7.738384231925011">
        <ele>2067.9299999999998</ele>
        <time>2015-01-11T12:06:20Z</time>
      </trkpt>
      <trkpt lat="45.882048709318042" lon="7.738389428704977">
        <ele>2067.9299999999998</ele>
        <time>2015-01-11T12:06:45Z</time>
      </trkpt>
      <trkpt lat="45.882072178646922" lon="7.73840082809329">
        <ele>2068.4099999999999</ele>
        <time>2015-01-11T12:07:17Z</time>
      </trkpt>
      <trkpt lat="45.88207058608532" lon="7.738369144499302">
        <ele>2068.4099999999999</ele>
        <time>2015-01-11T12:07:46Z</time>
      </trkpt>
      <trkpt lat="45.882024317979813" lon="7.738370904698968">
        <ele>2069.8600000000001</ele>
        <time>2015-01-11T12:08:17Z</time>
      </trkpt>
      <trkpt lat="45.882139317691326" lon="7.738375263288617">
        <ele>2069.3800000000001</ele>
        <time>2015-01-11T12:08:37Z</time>
      </trkpt>
      <trkpt lat="45.882096737623215" lon="7.738398145884275">
        <ele>2066.9699999999998</ele>
        <time>2015-01-11T12:09:09Z</time>
      </trkpt>
      <trkpt lat="45.882148956879973" lon="7.738409377634525">
        <ele>2066.9699999999998</ele>
        <time>2015-01-11T12:09:37Z</time>
      </trkpt>
      <trkpt lat="45.882136216387153" lon="7.738416334614158">
        <ele>2066.0100000000002</ele>
        <time>2015-01-11T12:10:09Z</time>
      </trkpt>
      <trkpt lat="45.882136719301343" lon="7.738392278552055">
        <ele>2064.5700000000002</ele>
        <time>2015-01-11T12:10:41Z</time>
      </trkpt>
      <trkpt lat="45.882141496986151" lon="7.738400241360068">
        <ele>2065.0500000000002</ele>
        <time>2015-01-11T12:11:12Z</time>
      </trkpt>
      <trkpt lat="45.882113836705685" lon="7.738427817821503">
        <ele>2066.0100000000002</ele>
        <time>2015-01-11T12:11:41Z</time>
      </trkpt>
      <trkpt lat="45.882115010172129" lon="7.738422704860568">
        <ele>2066.9699999999998</ele>
        <time>2015-01-11T12:12:16Z</time>
      </trkpt>
      <trkpt lat="45.882091959938407" lon="7.738407785072923">
        <ele>2066.4899999999998</ele>
        <time>2015-01-11T12:12:45Z</time>
      </trkpt>
      <trkpt lat="45.882118195295334" lon="7.73843158967793">
        <ele>2065.0500000000002</ele>
        <time>2015-01-11T12:13:16Z</time>
      </trkpt>
      <trkpt lat="45.882083913311362" lon="7.738393032923341">
        <ele>2065.5300000000002</ele>
        <time>2015-01-11T12:13:48Z</time>
      </trkpt>
      <trkpt lat="45.882018450647593" lon="7.738375263288617">
        <ele>2064.5700000000002</ele>
        <time>2015-01-11T12:14:15Z</time>
      </trkpt>
      <trkpt lat="45.882035633549094" lon="7.738405605778098">
        <ele>2067.9299999999998</ele>
        <time>2015-01-11T12:14:39Z</time>
      </trkpt>
      <trkpt lat="45.882108891382813" lon="7.73848632350564">
        <ele>2065.0500000000002</ele>
        <time>2015-01-11T12:15:09Z</time>
      </trkpt>
      <trkpt lat="45.882108472287655" lon="7.738455478101969">
        <ele>2064.0900000000001</ele>
        <time>2015-01-11T12:15:36Z</time>
      </trkpt>
      <trkpt lat="45.882116938009858" lon="7.738509206101298">
        <ele>2063.6100000000001</ele>
        <time>2015-01-11T12:15:44Z</time>
      </trkpt>
      <trkpt lat="45.882140826433897" lon="7.738613225519657">
        <ele>2062.6500000000001</ele>
        <time>2015-01-11T12:16:07Z</time>
      </trkpt>
      <trkpt lat="45.882068071514368" lon="7.73843745701015">
        <ele>2066.9699999999998</ele>
        <time>2015-01-11T12:16:31Z</time>
      </trkpt>
      <trkpt lat="45.882075447589159" lon="7.738440139219165">
        <ele>2066.9699999999998</ele>
        <time>2015-01-11T12:16:32Z</time>
      </trkpt>
      <trkpt lat="45.882091876119375" lon="7.738438546657562">
        <ele>2065.5300000000002</ele>
        <time>2015-01-11T12:16:37Z</time>
      </trkpt>
      <trkpt lat="45.88211115449667" lon="7.738461596891284">
        <ele>2064.5700000000002</ele>
        <time>2015-01-11T12:17:00Z</time>
      </trkpt>
      <trkpt lat="45.882115848362446" lon="7.738474756479263">
        <ele>2066.4899999999998</ele>
        <time>2015-01-11T12:17:05Z</time>
      </trkpt>
      <trkpt lat="45.882091373205185" lon="7.738399906083942">
        <ele>2069.8600000000001</ele>
        <time>2015-01-11T12:17:24Z</time>
      </trkpt>
      <trkpt lat="45.882111489772797" lon="7.738442989066243">
        <ele>2067.4499999999998</ele>
        <time>2015-01-11T12:17:31Z</time>
      </trkpt>
      <trkpt lat="45.882136467844248" lon="7.738542649894953">
        <ele>2066.9699999999998</ele>
        <time>2015-01-11T12:17:46Z</time>
      </trkpt>
      <trkpt lat="45.882155746221542" lon="7.738425387069583">
        <ele>2067.9299999999998</ele>
        <time>2015-01-11T12:18:00Z</time>
      </trkpt>
      <trkpt lat="45.882148034870625" lon="7.738405773416162">
        <ele>2067.9299999999998</ele>
        <time>2015-01-11T12:18:16Z</time>
      </trkpt>
      <trkpt lat="45.882141664624214" lon="7.738355398178101">
        <ele>2066.9699999999998</ele>
        <time>2015-01-11T12:18:30Z</time>
      </trkpt>
      <trkpt lat="45.882146693766117" lon="7.73837685585022">
        <ele>2067.9299999999998</ele>
        <time>2015-01-11T12:18:43Z</time>
      </trkpt>
      <trkpt lat="45.882142083719373" lon="7.738393787294626">
        <ele>2067.4499999999998</ele>
        <time>2015-01-11T12:18:57Z</time>
      </trkpt>
      <trkpt lat="45.882129007950425" lon="7.738385237753391">
        <ele>2066.4899999999998</ele>
        <time>2015-01-11T12:19:01Z</time>
      </trkpt>
      <trkpt lat="45.882139904424548" lon="7.738399403169751">
        <ele>2066.0100000000002</ele>
        <time>2015-01-11T12:19:10Z</time>
      </trkpt>
      <trkpt lat="45.88213655166328" lon="7.738411976024509">
        <ele>2064.5700000000002</ele>
        <time>2015-01-11T12:19:28Z</time>
      </trkpt>
      <trkpt lat="45.882122302427888" lon="7.738421279937029">
        <ele>2066.0100000000002</ele>
        <time>2015-01-11T12:19:47Z</time>
      </trkpt>
      <trkpt lat="45.882118614390492" lon="7.738423878327012">
        <ele>2065.5300000000002</ele>
        <time>2015-01-11T12:20:00Z</time>
      </trkpt>
      <trkpt lat="45.882131857797503" lon="7.738420274108648">
        <ele>2066.0100000000002</ele>
        <time>2015-01-11T12:20:12Z</time>
      </trkpt>
      <trkpt lat="45.882132695987821" lon="7.738346261903644">
        <ele>2064.0900000000001</ele>
        <time>2015-01-11T12:20:29Z</time>
      </trkpt>
      <trkpt lat="45.882129427045584" lon="7.738330336287618">
        <ele>2064.0900000000001</ele>
        <time>2015-01-11T12:20:30Z</time>
      </trkpt>
      <trkpt lat="45.88206572458148" lon="7.738105282187462">
        <ele>2063.6100000000001</ele>
        <time>2015-01-11T12:20:46Z</time>
      </trkpt>
      <trkpt lat="45.881995065137744" lon="7.737960610538721">
        <ele>2062.1700000000001</ele>
        <time>2015-01-11T12:20:58Z</time>
      </trkpt>
      <trkpt lat="45.881954161450267" lon="7.737811747938395">
        <ele>2061.6799999999998</ele>
        <time>2015-01-11T12:21:08Z</time>
      </trkpt>
      <trkpt lat="45.881933039054275" lon="7.737632291391492">
        <ele>2062.6500000000001</ele>
        <time>2015-01-11T12:21:22Z</time>
      </trkpt>
      <trkpt lat="45.881898505613208" lon="7.737612845376134">
        <ele>2062.6500000000001</ele>
        <time>2015-01-11T12:21:26Z</time>
      </trkpt>
      <trkpt lat="45.881894733756781" lon="7.73759943433106">
        <ele>2060.7199999999998</ele>
        <time>2015-01-11T12:21:27Z</time>
      </trkpt>
      <trkpt lat="45.881856009364128" lon="7.737576300278306">
        <ele>2062.1700000000001</ele>
        <time>2015-01-11T12:21:38Z</time>
      </trkpt>
      <trkpt lat="45.881854249164462" lon="7.737573869526386">
        <ele>2062.1700000000001</ele>
        <time>2015-01-11T12:21:39Z</time>
      </trkpt>
      <trkpt lat="45.881863217800856" lon="7.737570852041245">
        <ele>2063.6100000000001</ele>
        <time>2015-01-11T12:21:41Z</time>
      </trkpt>
      <trkpt lat="45.881797587499022" lon="7.737486278638244">
        <ele>2062.1700000000001</ele>
        <time>2015-01-11T12:21:51Z</time>
      </trkpt>
      <trkpt lat="45.881701279431581" lon="7.737372452393174">
        <ele>2061.6799999999998</ele>
        <time>2015-01-11T12:22:02Z</time>
      </trkpt>
      <trkpt lat="45.881546633318067" lon="7.737243538722396">
        <ele>2061.1999999999998</ele>
        <time>2015-01-11T12:22:18Z</time>
      </trkpt>
      <trkpt lat="45.881527019664645" lon="7.737227529287338">
        <ele>2060.7199999999998</ele>
        <time>2015-01-11T12:22:20Z</time>
      </trkpt>
      <trkpt lat="45.881373044103384" lon="7.737124096602202">
        <ele>2059.2800000000002</ele>
        <time>2015-01-11T12:22:35Z</time>
      </trkpt>
      <trkpt lat="45.881260558962822" lon="7.737031141296029">
        <ele>2057.3600000000001</ele>
        <time>2015-01-11T12:22:51Z</time>
      </trkpt>
      <trkpt lat="45.881283022463322" lon="7.737069698050618">
        <ele>2057.8400000000001</ele>
        <time>2015-01-11T12:22:57Z</time>
      </trkpt>
      <trkpt lat="45.881278999149799" lon="7.737043462693691">
        <ele>2055.4400000000001</ele>
        <time>2015-01-11T12:23:02Z</time>
      </trkpt>
      <trkpt lat="45.881271120160818" lon="7.737051928415895">
        <ele>2059.2800000000002</ele>
        <time>2015-01-11T12:23:07Z</time>
      </trkpt>
      <trkpt lat="45.881269192323089" lon="7.737049078568816">
        <ele>2058.3200000000002</ele>
        <time>2015-01-11T12:23:08Z</time>
      </trkpt>
      <trkpt lat="45.881268521770835" lon="7.737061735242605">
        <ele>2056.4000000000001</ele>
        <time>2015-01-11T12:23:23Z</time>
      </trkpt>
      <trkpt lat="45.881266845390201" lon="7.737052934244275">
        <ele>2057.8400000000001</ele>
        <time>2015-01-11T12:23:31Z</time>
      </trkpt>
      <trkpt lat="45.881269611418247" lon="7.737067602574825">
        <ele>2058.8000000000002</ele>
        <time>2015-01-11T12:23:45Z</time>
      </trkpt>
      <trkpt lat="45.881258547306061" lon="7.737065171822906">
        <ele>2057.3600000000001</ele>
        <time>2015-01-11T12:23:47Z</time>
      </trkpt>
      <trkpt lat="45.881255613639951" lon="7.737051006406546">
        <ele>2057.8400000000001</ele>
        <time>2015-01-11T12:23:52Z</time>
      </trkpt>
      <trkpt lat="45.88125804439187" lon="7.737046144902706">
        <ele>2053.9899999999998</ele>
        <time>2015-01-11T12:23:53Z</time>
      </trkpt>
      <trkpt lat="45.88124287314713" lon="7.737053688615561">
        <ele>2057.3600000000001</ele>
        <time>2015-01-11T12:23:55Z</time>
      </trkpt>
      <trkpt lat="45.881233988329768" lon="7.737047653645277">
        <ele>2057.8400000000001</ele>
        <time>2015-01-11T12:23:56Z</time>
      </trkpt>
      <trkpt lat="45.881153186783195" lon="7.736998368054628">
        <ele>2055.9200000000001</ele>
        <time>2015-01-11T12:24:03Z</time>
      </trkpt>
      <trkpt lat="45.881088646128774" lon="7.736969701945782">
        <ele>2054.4699999999998</ele>
        <time>2015-01-11T12:24:10Z</time>
      </trkpt>
      <trkpt lat="45.881071798503399" lon="7.736956877633929">
        <ele>2053.9899999999998</ele>
        <time>2015-01-11T12:24:14Z</time>
      </trkpt>
      <trkpt lat="45.881072469055653" lon="7.736959140747786">
        <ele>2056.4000000000001</ele>
        <time>2015-01-11T12:24:18Z</time>
      </trkpt>
      <trkpt lat="45.880921678617597" lon="7.736894683912396">
        <ele>2054.96</ele>
        <time>2015-01-11T12:24:30Z</time>
      </trkpt>
      <trkpt lat="45.880862334743142" lon="7.736881524324417">
        <ele>2054.96</ele>
        <time>2015-01-11T12:24:35Z</time>
      </trkpt>
      <trkpt lat="45.880743730813265" lon="7.736840452998877">
        <ele>2056.4000000000001</ele>
        <time>2015-01-11T12:24:48Z</time>
      </trkpt>
      <trkpt lat="45.880701569840312" lon="7.736817067489028">
        <ele>2055.4400000000001</ele>
        <time>2015-01-11T12:24:52Z</time>
      </trkpt>
      <trkpt lat="45.880536194890738" lon="7.736779600381851">
        <ele>2054.4699999999998</ele>
        <time>2015-01-11T12:25:07Z</time>
      </trkpt>
      <trkpt lat="45.880519011989236" lon="7.736782031133771">
        <ele>2053.9899999999998</ele>
        <time>2015-01-11T12:25:09Z</time>
      </trkpt>
      <trkpt lat="45.880439132452011" lon="7.73673408664763">
        <ele>2053.0300000000002</ele>
        <time>2015-01-11T12:25:21Z</time>
      </trkpt>
      <trkpt lat="45.880449777469039" lon="7.73673945106566">
        <ele>2052.0700000000002</ele>
        <time>2015-01-11T12:25:33Z</time>
      </trkpt>
      <trkpt lat="45.880447765812278" lon="7.73672922514379">
        <ele>2053.5100000000002</ele>
        <time>2015-01-11T12:25:36Z</time>
      </trkpt>
      <trkpt lat="45.880439803004265" lon="7.736774068325758">
        <ele>2053.9899999999998</ele>
        <time>2015-01-11T12:25:54Z</time>
      </trkpt>
      <trkpt lat="45.880435947328806" lon="7.73674925789237">
        <ele>2054.4699999999998</ele>
        <time>2015-01-11T12:26:13Z</time>
      </trkpt>
      <trkpt lat="45.880439383909106" lon="7.736753532662988">
        <ele>2053.5100000000002</ele>
        <time>2015-01-11T12:26:21Z</time>
      </trkpt>
      <trkpt lat="45.880407700315118" lon="7.736713802441955">
        <ele>2054.96</ele>
        <time>2015-01-11T12:26:37Z</time>
      </trkpt>
      <trkpt lat="45.880411136895418" lon="7.736749928444624">
        <ele>2054.96</ele>
        <time>2015-01-11T12:26:54Z</time>
      </trkpt>
      <trkpt lat="45.880437288433313" lon="7.736732074990869">
        <ele>2054.4699999999998</ele>
        <time>2015-01-11T12:27:11Z</time>
      </trkpt>
      <trkpt lat="45.880445754155517" lon="7.736718915402889">
        <ele>2054.4699999999998</ele>
        <time>2015-01-11T12:27:33Z</time>
      </trkpt>
      <trkpt lat="45.880446927621961" lon="7.736708857119083">
        <ele>2053.0300000000002</ele>
        <time>2015-01-11T12:28:03Z</time>
      </trkpt>
      <trkpt lat="45.880461093038321" lon="7.736724866554141">
        <ele>2052.0700000000002</ele>
        <time>2015-01-11T12:28:24Z</time>
      </trkpt>
      <trkpt lat="45.880428571254015" lon="7.736735679209232">
        <ele>2051.5900000000001</ele>
        <time>2015-01-11T12:28:41Z</time>
      </trkpt>
      <trkpt lat="45.880315331742167" lon="7.736717658117414">
        <ele>2052.0700000000002</ele>
        <time>2015-01-11T12:28:53Z</time>
      </trkpt>
      <trkpt lat="45.880121542140841" lon="7.73667742498219">
        <ele>2051.5900000000001</ele>
        <time>2015-01-11T12:29:09Z</time>
      </trkpt>
      <trkpt lat="45.879944432526827" lon="7.736650016158819">
        <ele>2051.1100000000001</ele>
        <time>2015-01-11T12:29:27Z</time>
      </trkpt>
      <trkpt lat="45.879753408953547" lon="7.736624032258987">
        <ele>2051.1100000000001</ele>
        <time>2015-01-11T12:29:44Z</time>
      </trkpt>
      <trkpt lat="45.87956196628511" lon="7.736587068066001">
        <ele>2051.1100000000001</ele>
        <time>2015-01-11T12:30:01Z</time>
      </trkpt>
      <trkpt lat="45.87936800904572" lon="7.736611291766167">
        <ele>2050.1500000000001</ele>
        <time>2015-01-11T12:30:18Z</time>
      </trkpt>
      <trkpt lat="45.879292152822018" lon="7.736604167148471">
        <ele>2050.1500000000001</ele>
        <time>2015-01-11T12:30:25Z</time>
      </trkpt>
      <trkpt lat="45.879121078178287" lon="7.736569968983531">
        <ele>2046.78</ele>
        <time>2015-01-11T12:30:41Z</time>
      </trkpt>
      <trkpt lat="45.879045138135552" lon="7.736563934013248">
        <ele>2045.8199999999999</ele>
        <time>2015-01-11T12:30:49Z</time>
      </trkpt>
      <trkpt lat="45.878919409587979" lon="7.736623864620924">
        <ele>2045.3399999999999</ele>
        <time>2015-01-11T12:31:00Z</time>
      </trkpt>
      <trkpt lat="45.878760572522879" lon="7.736716065555811">
        <ele>2043.4200000000001</ele>
        <time>2015-01-11T12:31:16Z</time>
      </trkpt>
      <trkpt lat="45.8787283860147" lon="7.73672629147768">
        <ele>2043.4200000000001</ele>
        <time>2015-01-11T12:31:19Z</time>
      </trkpt>
      <trkpt lat="45.878629647195339" lon="7.736684633418918">
        <ele>2043.9000000000001</ele>
        <time>2015-01-11T12:31:33Z</time>
      </trkpt>
      <trkpt lat="45.878634424880147" lon="7.736680610105395">
        <ele>2042.9400000000001</ele>
        <time>2015-01-11T12:31:46Z</time>
      </trkpt>
      <trkpt lat="45.878629311919212" lon="7.736660661175847">
        <ele>2043.4200000000001</ele>
        <time>2015-01-11T12:32:02Z</time>
      </trkpt>
      <trkpt lat="45.878627467900515" lon="7.736664684489369">
        <ele>2043.9000000000001</ele>
        <time>2015-01-11T12:32:21Z</time>
      </trkpt>
      <trkpt lat="45.878616152331233" lon="7.736658984795213">
        <ele>2043.9000000000001</ele>
        <time>2015-01-11T12:32:36Z</time>
      </trkpt>
      <trkpt lat="45.878606764599681" lon="7.736632162705064">
        <ele>2043.9000000000001</ele>
        <time>2015-01-11T12:32:51Z</time>
      </trkpt>
      <trkpt lat="45.878610368818045" lon="7.736635012552142">
        <ele>2043.4200000000001</ele>
        <time>2015-01-11T12:33:02Z</time>
      </trkpt>
      <trkpt lat="45.878621768206358" lon="7.736640628427267">
        <ele>2042.9400000000001</ele>
        <time>2015-01-11T12:33:18Z</time>
      </trkpt>
      <trkpt lat="45.878629814833403" lon="7.736644148826599">
        <ele>2044.8599999999999</ele>
        <time>2015-01-11T12:33:33Z</time>
      </trkpt>
      <trkpt lat="45.878631072118878" lon="7.736628390848637">
        <ele>2044.8599999999999</ele>
        <time>2015-01-11T12:33:47Z</time>
      </trkpt>
      <trkpt lat="45.878607435151935" lon="7.736612800508738">
        <ele>2044.8599999999999</ele>
        <time>2015-01-11T12:34:08Z</time>
      </trkpt>
      <trkpt lat="45.878614308312535" lon="7.736643813550472">
        <ele>2047.75</ele>
        <time>2015-01-11T12:34:24Z</time>
      </trkpt>
      <trkpt lat="45.878602238371968" lon="7.736674407497048">
        <ele>2047.75</ele>
        <time>2015-01-11T12:34:44Z</time>
      </trkpt>
      <trkpt lat="45.878598466515541" lon="7.736701145768166">
        <ele>2045.8199999999999</ele>
        <time>2015-01-11T12:34:49Z</time>
      </trkpt>
      <trkpt lat="45.878613973036408" lon="7.736685387790203">
        <ele>2049.1900000000001</ele>
        <time>2015-01-11T12:35:10Z</time>
      </trkpt>
      <trkpt lat="45.878611542284489" lon="7.736683711409569">
        <ele>2048.23</ele>
        <time>2015-01-11T12:35:15Z</time>
      </trkpt>
      <trkpt lat="45.878626881167293" lon="7.736698547378182">
        <ele>2049.1900000000001</ele>
        <time>2015-01-11T12:35:37Z</time>
      </trkpt>
      <trkpt lat="45.878615565598011" lon="7.736699134111404">
        <ele>2047.75</ele>
        <time>2015-01-11T12:35:50Z</time>
      </trkpt>
      <trkpt lat="45.878618247807026" lon="7.736700223758817">
        <ele>2051.1100000000001</ele>
        <time>2015-01-11T12:36:01Z</time>
      </trkpt>
      <trkpt lat="45.878617074340582" lon="7.736694607883692">
        <ele>2051.1100000000001</ele>
        <time>2015-01-11T12:36:02Z</time>
      </trkpt>
      <trkpt lat="45.878624869510531" lon="7.736690416932106">
        <ele>2052.5500000000002</ele>
        <time>2015-01-11T12:36:04Z</time>
      </trkpt>
      <trkpt lat="45.878631407395005" lon="7.736667953431606">
        <ele>2050.6300000000001</ele>
        <time>2015-01-11T12:36:09Z</time>
      </trkpt>
      <trkpt lat="45.878634760156274" lon="7.73665982298553">
        <ele>2050.1500000000001</ele>
        <time>2015-01-11T12:36:10Z</time>
      </trkpt>
      <trkpt lat="45.878646997734904" lon="7.73665152490139">
        <ele>2048.23</ele>
        <time>2015-01-11T12:36:22Z</time>
      </trkpt>
      <trkpt lat="45.878633419051766" lon="7.736647836863995">
        <ele>2049.1900000000001</ele>
        <time>2015-01-11T12:36:41Z</time>
      </trkpt>
      <trkpt lat="45.878631910309196" lon="7.736642304807901">
        <ele>2050.1500000000001</ele>
        <time>2015-01-11T12:37:09Z</time>
      </trkpt>
      <trkpt lat="45.87862872518599" lon="7.736645909026265">
        <ele>2051.1100000000001</ele>
        <time>2015-01-11T12:37:31Z</time>
      </trkpt>
      <trkpt lat="45.878629647195339" lon="7.736641801893711">
        <ele>2050.1500000000001</ele>
        <time>2015-01-11T12:37:48Z</time>
      </trkpt>
      <trkpt lat="45.878613637760282" lon="7.73663735948503">
        <ele>2049.6700000000001</ele>
        <time>2015-01-11T12:38:09Z</time>
      </trkpt>
      <trkpt lat="45.878606513142586" lon="7.736645992845297">
        <ele>2051.5900000000001</ele>
        <time>2015-01-11T12:38:27Z</time>
      </trkpt>
      <trkpt lat="45.878633754327893" lon="7.736648255959153">
        <ele>2048.71</ele>
        <time>2015-01-11T12:38:53Z</time>
      </trkpt>
      <trkpt lat="45.878631407395005" lon="7.736652530729771">
        <ele>2050.1500000000001</ele>
        <time>2015-01-11T12:39:02Z</time>
      </trkpt>
      <trkpt lat="45.878626294434071" lon="7.736629983410239">
        <ele>2049.6700000000001</ele>
        <time>2015-01-11T12:39:25Z</time>
      </trkpt>
      <trkpt lat="45.878562424331903" lon="7.736601736396551">
        <ele>2049.6700000000001</ele>
        <time>2015-01-11T12:39:38Z</time>
      </trkpt>
      <trkpt lat="45.878545325249434" lon="7.736594527959824">
        <ele>2049.1900000000001</ele>
        <time>2015-01-11T12:39:40Z</time>
      </trkpt>
      <trkpt lat="45.878496626392007" lon="7.736564688384533">
        <ele>2049.6700000000001</ele>
        <time>2015-01-11T12:39:45Z</time>
      </trkpt>
      <trkpt lat="45.878336783498526" lon="7.736562760546804">
        <ele>2047.26</ele>
        <time>2015-01-11T12:40:01Z</time>
      </trkpt>
      <trkpt lat="45.878180377185345" lon="7.736583631485701">
        <ele>2046.3</ele>
        <time>2015-01-11T12:40:16Z</time>
      </trkpt>
      <trkpt lat="45.878087002784014" lon="7.736656302586198">
        <ele>2048.23</ele>
        <time>2015-01-11T12:40:28Z</time>
      </trkpt>
      <trkpt lat="45.878031263127923" lon="7.736668204888701">
        <ele>2046.78</ele>
        <time>2015-01-11T12:40:33Z</time>
      </trkpt>
      <trkpt lat="45.877881646156311" lon="7.736602490767837">
        <ele>2045.3399999999999</ele>
        <time>2015-01-11T12:40:48Z</time>
      </trkpt>
      <trkpt lat="45.877839736640453" lon="7.736569214612246">
        <ele>2044.8599999999999</ele>
        <time>2015-01-11T12:40:54Z</time>
      </trkpt>
      <trkpt lat="45.877758264541626" lon="7.736545410007238">
        <ele>2043.4200000000001</ele>
        <time>2015-01-11T12:41:07Z</time>
      </trkpt>
      <trkpt lat="45.877758432179689" lon="7.736550942063332">
        <ele>2040.54</ele>
        <time>2015-01-11T12:41:10Z</time>
      </trkpt>
      <trkpt lat="45.877757677808404" lon="7.736551444977522">
        <ele>2041.02</ele>
        <time>2015-01-11T12:41:11Z</time>
      </trkpt>
      <trkpt lat="45.877723228186369" lon="7.736560078337789">
        <ele>2042.46</ele>
        <time>2015-01-11T12:41:27Z</time>
      </trkpt>
      <trkpt lat="45.87770277634263" lon="7.736549517139792">
        <ele>2041.98</ele>
        <time>2015-01-11T12:41:34Z</time>
      </trkpt>
      <trkpt lat="45.877591380849481" lon="7.736475504934788">
        <ele>2042.46</ele>
        <time>2015-01-11T12:41:48Z</time>
      </trkpt>
      <trkpt lat="45.877461545169353" lon="7.736366204917431">
        <ele>2041.98</ele>
        <time>2015-01-11T12:42:02Z</time>
      </trkpt>
      <trkpt lat="45.877402201294899" lon="7.7363470941782">
        <ele>2043.9000000000001</ele>
        <time>2015-01-11T12:42:11Z</time>
      </trkpt>
      <trkpt lat="45.877223247662187" lon="7.736295545473695">
        <ele>2043.9000000000001</ele>
        <time>2015-01-11T12:42:27Z</time>
      </trkpt>
      <trkpt lat="45.877086203545332" lon="7.736269561573863">
        <ele>2045.3399999999999</ele>
        <time>2015-01-11T12:42:41Z</time>
      </trkpt>
      <trkpt lat="45.87696592323482" lon="7.736183479428291">
        <ele>2046.3</ele>
        <time>2015-01-11T12:42:54Z</time>
      </trkpt>
      <trkpt lat="45.876944549381733" lon="7.736144419759512">
        <ele>2046.78</ele>
        <time>2015-01-11T12:42:57Z</time>
      </trkpt>
      <trkpt lat="45.876865424215794" lon="7.735969489440322">
        <ele>2048.71</ele>
        <time>2015-01-11T12:43:11Z</time>
      </trkpt>
      <trkpt lat="45.876880008727312" lon="7.735889442265034">
        <ele>2047.75</ele>
        <time>2015-01-11T12:43:26Z</time>
      </trkpt>
      <trkpt lat="45.876904064789414" lon="7.735859267413616">
        <ele>2047.75</ele>
        <time>2015-01-11T12:43:51Z</time>
      </trkpt>
      <trkpt lat="45.876836171373725" lon="7.735916431993246">
        <ele>2047.75</ele>
        <time>2015-01-11T12:44:00Z</time>
      </trkpt>
      <trkpt lat="45.876668449491262" lon="7.735864967107773">
        <ele>2047.26</ele>
        <time>2015-01-11T12:44:14Z</time>
      </trkpt>
      <trkpt lat="45.876482119783759" lon="7.735767988488078">
        <ele>2048.71</ele>
        <time>2015-01-11T12:44:29Z</time>
      </trkpt>
      <trkpt lat="45.876400144770741" lon="7.735735969617963">
        <ele>2048.71</ele>
        <time>2015-01-11T12:44:36Z</time>
      </trkpt>
      <trkpt lat="45.876209456473589" lon="7.735664639621973">
        <ele>2047.75</ele>
        <time>2015-01-11T12:44:53Z</time>
      </trkpt>
      <trkpt lat="45.876161847263575" lon="7.735638655722141">
        <ele>2047.26</ele>
        <time>2015-01-11T12:44:57Z</time>
      </trkpt>
      <trkpt lat="45.876044919714332" lon="7.735642930492759">
        <ele>2044.8599999999999</ele>
        <time>2015-01-11T12:45:07Z</time>
      </trkpt>
      <trkpt lat="45.875903349369764" lon="7.735616192221642">
        <ele>2044.3800000000001</ele>
        <time>2015-01-11T12:45:18Z</time>
      </trkpt>
      <trkpt lat="45.87574677541852" lon="7.735531870275736">
        <ele>2044.3800000000001</ele>
        <time>2015-01-11T12:45:32Z</time>
      </trkpt>
      <trkpt lat="45.875716852024198" lon="7.73549297824502">
        <ele>2043.9000000000001</ele>
        <time>2015-01-11T12:45:35Z</time>
      </trkpt>
      <trkpt lat="45.875645354390144" lon="7.735484261065722">
        <ele>2043.4200000000001</ele>
        <time>2015-01-11T12:45:41Z</time>
      </trkpt>
      <trkpt lat="45.875536473467946" lon="7.735438076779246">
        <ele>2043.4200000000001</ele>
        <time>2015-01-11T12:45:51Z</time>
      </trkpt>
      <trkpt lat="45.875484002754092" lon="7.735428102314472">
        <ele>2042.9400000000001</ele>
        <time>2015-01-11T12:45:55Z</time>
      </trkpt>
      <trkpt lat="45.875279819592834" lon="7.735301703214645">
        <ele>2040.05</ele>
        <time>2015-01-11T12:46:13Z</time>
      </trkpt>
      <trkpt lat="45.875272024422884" lon="7.735288124531508">
        <ele>2039.5699999999999</ele>
        <time>2015-01-11T12:46:14Z</time>
      </trkpt>
      <trkpt lat="45.875261882320046" lon="7.735256608575583">
        <ele>2039.5699999999999</ele>
        <time>2015-01-11T12:46:16Z</time>
      </trkpt>
      <trkpt lat="45.875150570645928" lon="7.73514118976891">
        <ele>2038.6099999999999</ele>
        <time>2015-01-11T12:46:28Z</time>
      </trkpt>
      <trkpt lat="45.874973880127072" lon="7.734986878931522">
        <ele>2036.6900000000001</ele>
        <time>2015-01-11T12:46:44Z</time>
      </trkpt>
      <trkpt lat="45.874951248988509" lon="7.734972042962909">
        <ele>2036.21</ele>
        <time>2015-01-11T12:46:46Z</time>
      </trkpt>
      <trkpt lat="45.874846307560802" lon="7.734857210889459">
        <ele>2035.25</ele>
        <time>2015-01-11T12:47:00Z</time>
      </trkpt>
      <trkpt lat="45.874844044446945" lon="7.734813205897808">
        <ele>2035.25</ele>
        <time>2015-01-11T12:47:06Z</time>
      </trkpt>
      <trkpt lat="45.874797943979502" lon="7.734771464020014">
        <ele>2034.29</ele>
        <time>2015-01-11T12:47:14Z</time>
      </trkpt>
      <trkpt lat="45.874779503792524" lon="7.734768278896809">
        <ele>2034.29</ele>
        <time>2015-01-11T12:47:16Z</time>
      </trkpt>
      <trkpt lat="45.874759135767817" lon="7.734744306653738">
        <ele>2034.29</ele>
        <time>2015-01-11T12:47:20Z</time>
      </trkpt>
      <trkpt lat="45.87466936558485" lon="7.734597623348236">
        <ele>2033.3299999999999</ele>
        <time>2015-01-11T12:47:34Z</time>
      </trkpt>
      <trkpt lat="45.874631144106388" lon="7.734535932540894">
        <ele>2032.8399999999999</ele>
        <time>2015-01-11T12:47:39Z</time>
      </trkpt>
      <trkpt lat="45.874561993405223" lon="7.734274165704846">
        <ele>2032.8399999999999</ele>
        <time>2015-01-11T12:47:54Z</time>
      </trkpt>
      <trkpt lat="45.874561406672001" lon="7.734163524582982">
        <ele>2032.8399999999999</ele>
        <time>2015-01-11T12:48:06Z</time>
      </trkpt>
      <trkpt lat="45.874566016718745" lon="7.734102671965957">
        <ele>2032.3599999999999</ele>
        <time>2015-01-11T12:48:11Z</time>
      </trkpt>
      <trkpt lat="45.874577751383185" lon="7.73396210744977">
        <ele>2031.8800000000001</ele>
        <time>2015-01-11T12:48:25Z</time>
      </trkpt>
      <trkpt lat="45.87456769309938" lon="7.733884071931243">
        <ele>2032.3599999999999</ele>
        <time>2015-01-11T12:48:38Z</time>
      </trkpt>
      <trkpt lat="45.874573728069663" lon="7.733766557648778">
        <ele>2030.4400000000001</ele>
        <time>2015-01-11T12:48:50Z</time>
      </trkpt>
      <trkpt lat="45.874573392793536" lon="7.733749290928245">
        <ele>2029.96</ele>
        <time>2015-01-11T12:48:52Z</time>
      </trkpt>
      <trkpt lat="45.87457456625998" lon="7.73363471031189">
        <ele>2028.52</ele>
        <time>2015-01-11T12:49:05Z</time>
      </trkpt>
      <trkpt lat="45.874553192406893" lon="7.733556339517236">
        <ele>2026.5999999999999</ele>
        <time>2015-01-11T12:49:17Z</time>
      </trkpt>
      <trkpt lat="45.874558305367827" lon="7.733530607074499">
        <ele>2025.1500000000001</ele>
        <time>2015-01-11T12:49:34Z</time>
      </trkpt>
      <trkpt lat="45.874549252912402" lon="7.733460618183017">
        <ele>2024.1900000000001</ele>
        <time>2015-01-11T12:49:38Z</time>
      </trkpt>
      <trkpt lat="45.874522598460317" lon="7.733321646228433">
        <ele>2021.79</ele>
        <time>2015-01-11T12:49:50Z</time>
      </trkpt>
      <trkpt lat="45.874512540176511" lon="7.733230283483863">
        <ele>2021.79</ele>
        <time>2015-01-11T12:49:59Z</time>
      </trkpt>
      <trkpt lat="45.874512121081352" lon="7.733200443908572">
        <ele>2021.3099999999999</ele>
        <time>2015-01-11T12:50:01Z</time>
      </trkpt>
      <trkpt lat="45.874493261799216" lon="7.73307329043746">
        <ele>2020.3499999999999</ele>
        <time>2015-01-11T12:50:13Z</time>
      </trkpt>
      <trkpt lat="45.874453699216247" lon="7.732969354838133">
        <ele>2019.8699999999999</ele>
        <time>2015-01-11T12:50:26Z</time>
      </trkpt>
      <trkpt lat="45.874437857419252" lon="7.732855780050159">
        <ele>2021.3099999999999</ele>
        <time>2015-01-11T12:50:39Z</time>
      </trkpt>
      <trkpt lat="45.874416064471006" lon="7.732797525823116">
        <ele>2020.8299999999999</ele>
        <time>2015-01-11T12:50:46Z</time>
      </trkpt>
      <trkpt lat="45.874374574050307" lon="7.732694512233138">
        <ele>2020.3499999999999</ele>
        <time>2015-01-11T12:51:00Z</time>
      </trkpt>
      <trkpt lat="45.874352362006903" lon="7.732659308239818">
        <ele>2019.3900000000001</ele>
        <time>2015-01-11T12:51:08Z</time>
      </trkpt>
      <trkpt lat="45.87434783577919" lon="7.732649836689234">
        <ele>2018.4300000000001</ele>
        <time>2015-01-11T12:51:23Z</time>
      </trkpt>
      <trkpt lat="45.874353954568505" lon="7.732626367360354">
        <ele>2019.3900000000001</ele>
        <time>2015-01-11T12:51:38Z</time>
      </trkpt>
      <trkpt lat="45.874347332865" lon="7.732632821425796">
        <ele>2019.3900000000001</ele>
        <time>2015-01-11T12:51:58Z</time>
      </trkpt>
      <trkpt lat="45.874335179105401" lon="7.732619158923626">
        <ele>2018.9100000000001</ele>
        <time>2015-01-11T12:52:03Z</time>
      </trkpt>
      <trkpt lat="45.874317660927773" lon="7.732493681833148">
        <ele>2018.4300000000001</ele>
        <time>2015-01-11T12:52:15Z</time>
      </trkpt>
      <trkpt lat="45.87433266453445" lon="7.732501812279224">
        <ele>2018.9100000000001</ele>
        <time>2015-01-11T12:52:27Z</time>
      </trkpt>
      <trkpt lat="45.87432973086834" lon="7.732515390962362">
        <ele>2019.8699999999999</ele>
        <time>2015-01-11T12:52:44Z</time>
      </trkpt>
      <trkpt lat="45.87433073669672" lon="7.732444060966373">
        <ele>2019.8699999999999</ele>
        <time>2015-01-11T12:52:50Z</time>
      </trkpt>
      <trkpt lat="45.874295113608241" lon="7.73235596716404">
        <ele>2019.3900000000001</ele>
        <time>2015-01-11T12:52:55Z</time>
      </trkpt>
      <trkpt lat="45.874312883242965" lon="7.73224800825119">
        <ele>2020.3499999999999</ele>
        <time>2015-01-11T12:53:08Z</time>
      </trkpt>
      <trkpt lat="45.874330149963498" lon="7.732225796207786">
        <ele>2017.9400000000001</ele>
        <time>2015-01-11T12:53:14Z</time>
      </trkpt>
      <trkpt lat="45.874341297894716" lon="7.732189167290926">
        <ele>2019.8699999999999</ele>
        <time>2015-01-11T12:53:17Z</time>
      </trkpt>
      <trkpt lat="45.874318582937121" lon="7.732093529775739">
        <ele>2016.98</ele>
        <time>2015-01-11T12:53:28Z</time>
      </trkpt>
      <trkpt lat="45.874284971505404" lon="7.732063522562385">
        <ele>2013.1400000000001</ele>
        <time>2015-01-11T12:53:35Z</time>
      </trkpt>
      <trkpt lat="45.874287150800228" lon="7.732023624703288">
        <ele>2011.7</ele>
        <time>2015-01-11T12:53:38Z</time>
      </trkpt>
      <trkpt lat="45.874270722270012" lon="7.731922622770071">
        <ele>2008.8099999999999</ele>
        <time>2015-01-11T12:53:49Z</time>
      </trkpt>
      <trkpt lat="45.874270386993885" lon="7.731870152056217">
        <ele>2006.8900000000001</ele>
        <time>2015-01-11T12:53:53Z</time>
      </trkpt>
      <trkpt lat="45.874273488298059" lon="7.731785997748375">
        <ele>2004.49</ele>
        <time>2015-01-11T12:54:02Z</time>
      </trkpt>
      <trkpt lat="45.874276841059327" lon="7.731735454872251">
        <ele>2001.5999999999999</ele>
        <time>2015-01-11T12:54:07Z</time>
      </trkpt>
      <trkpt lat="45.874278601258993" lon="7.731724474579096">
        <ele>2002.0799999999999</ele>
        <time>2015-01-11T12:54:08Z</time>
      </trkpt>
      <trkpt lat="45.874278852716088" lon="7.73168021813035">
        <ele>2000.1600000000001</ele>
        <time>2015-01-11T12:54:13Z</time>
      </trkpt>
      <trkpt lat="45.874276589602232" lon="7.73164065554738">
        <ele>1997.76</ele>
        <time>2015-01-11T12:54:19Z</time>
      </trkpt>
      <trkpt lat="45.874233087524772" lon="7.731599248945713">
        <ele>1997.28</ele>
        <time>2015-01-11T12:54:30Z</time>
      </trkpt>
      <trkpt lat="45.874229650944471" lon="7.731560356914997">
        <ele>1995.3499999999999</ele>
        <time>2015-01-11T12:54:34Z</time>
      </trkpt>
      <trkpt lat="45.874124960973859" lon="7.731496738269925">
        <ele>1992.95</ele>
        <time>2015-01-11T12:54:49Z</time>
      </trkpt>
      <trkpt lat="45.874094283208251" lon="7.731454828754067">
        <ele>1990.0699999999999</ele>
        <time>2015-01-11T12:54:56Z</time>
      </trkpt>
      <trkpt lat="45.874067964032292" lon="7.73150185123086">
        <ele>1990.55</ele>
        <time>2015-01-11T12:55:07Z</time>
      </trkpt>
      <trkpt lat="45.873964531347156" lon="7.731516687199473">
        <ele>1987.6600000000001</ele>
        <time>2015-01-11T12:55:17Z</time>
      </trkpt>
      <trkpt lat="45.873953970149159" lon="7.731518531218171">
        <ele>1987.1800000000001</ele>
        <time>2015-01-11T12:55:18Z</time>
      </trkpt>
      <trkpt lat="45.873805191367865" lon="7.731532445177436">
        <ele>1985.26</ele>
        <time>2015-01-11T12:55:34Z</time>
      </trkpt>
      <trkpt lat="45.873735034838319" lon="7.731515597552061">
        <ele>1983.3399999999999</ele>
        <time>2015-01-11T12:55:43Z</time>
      </trkpt>
      <trkpt lat="45.873712655156851" lon="7.731493636965752">
        <ele>1981.9000000000001</ele>
        <time>2015-01-11T12:55:46Z</time>
      </trkpt>
      <trkpt lat="45.873620118945837" lon="7.731457930058241">
        <ele>1979.01</ele>
        <time>2015-01-11T12:55:58Z</time>
      </trkpt>
      <trkpt lat="45.873547615483403" lon="7.731461199000478">
        <ele>1975.1700000000001</ele>
        <time>2015-01-11T12:56:06Z</time>
      </trkpt>
      <trkpt lat="45.873540574684739" lon="7.731455499306321">
        <ele>1975.1700000000001</ele>
        <time>2015-01-11T12:56:07Z</time>
      </trkpt>
      <trkpt lat="45.873474190011621" lon="7.731423061341047">
        <ele>1971.8</ele>
        <time>2015-01-11T12:56:14Z</time>
      </trkpt>
      <trkpt lat="45.873405961319804" lon="7.731376541778445">
        <ele>1968.9200000000001</ele>
        <time>2015-01-11T12:56:22Z</time>
      </trkpt>
      <trkpt lat="45.873328847810626" lon="7.731341756880283">
        <ele>1966.51</ele>
        <time>2015-01-11T12:56:31Z</time>
      </trkpt>
      <trkpt lat="45.873278640210629" lon="7.731218710541725">
        <ele>1963.1500000000001</ele>
        <time>2015-01-11T12:56:45Z</time>
      </trkpt>
      <trkpt lat="45.873228935524821" lon="7.731142770498991">
        <ele>1959.78</ele>
        <time>2015-01-11T12:56:57Z</time>
      </trkpt>
      <trkpt lat="45.873157437890768" lon="7.731158696115017">
        <ele>1957.3800000000001</ele>
        <time>2015-01-11T12:57:05Z</time>
      </trkpt>
      <trkpt lat="45.873077223077416" lon="7.731196330860257">
        <ele>1954.02</ele>
        <time>2015-01-11T12:57:17Z</time>
      </trkpt>
      <trkpt lat="45.873038666322827" lon="7.731128269806504">
        <ele>1952.5699999999999</ele>
        <time>2015-01-11T12:57:24Z</time>
      </trkpt>
      <trkpt lat="45.873007401823997" lon="7.731125168502331">
        <ele>1952.0899999999999</ele>
        <time>2015-01-11T12:57:29Z</time>
      </trkpt>
      <trkpt lat="45.872926935553551" lon="7.731179483234882">
        <ele>1950.1700000000001</ele>
        <time>2015-01-11T12:57:41Z</time>
      </trkpt>
      <trkpt lat="45.872833393514156" lon="7.731153080239892">
        <ele>1947.77</ele>
        <time>2015-01-11T12:57:54Z</time>
      </trkpt>
      <trkpt lat="45.872820066288114" lon="7.731146709993482">
        <ele>1947.29</ele>
        <time>2015-01-11T12:57:56Z</time>
      </trkpt>
      <trkpt lat="45.87280279956758" lon="7.731157690286636">
        <ele>1946.8099999999999</ele>
        <time>2015-01-11T12:57:58Z</time>
      </trkpt>
      <trkpt lat="45.87277639657259" lon="7.731167748570442">
        <ele>1946.3299999999999</ele>
        <time>2015-01-11T12:58:01Z</time>
      </trkpt>
      <trkpt lat="45.872766086831689" lon="7.731115948408842">
        <ele>1946.8099999999999</ele>
        <time>2015-01-11T12:58:12Z</time>
      </trkpt>
      <trkpt lat="45.872754687443376" lon="7.731112847104669">
        <ele>1947.29</ele>
        <time>2015-01-11T12:58:30Z</time>
      </trkpt>
      <trkpt lat="45.872764997184277" lon="7.731064651161432">
        <ele>1946.3299999999999</ele>
        <time>2015-01-11T12:58:49Z</time>
      </trkpt>
      <trkpt lat="45.872747311368585" lon="7.731013353914022">
        <ele>1945.8499999999999</ele>
        <time>2015-01-11T12:59:00Z</time>
      </trkpt>
      <trkpt lat="45.872717639431357" lon="7.731007821857929">
        <ele>1944.8800000000001</ele>
        <time>2015-01-11T12:59:14Z</time>
      </trkpt>
      <trkpt lat="45.872720908373594" lon="7.731023831292987">
        <ele>1945.8499999999999</ele>
        <time>2015-01-11T12:59:33Z</time>
      </trkpt>
      <trkpt lat="45.872731301933527" lon="7.731047384440899">
        <ele>1944.8800000000001</ele>
        <time>2015-01-11T12:59:59Z</time>
      </trkpt>
      <trkpt lat="45.872714873403311" lon="7.731054844334722">
        <ele>1946.3299999999999</ele>
        <time>2015-01-11T13:00:26Z</time>
      </trkpt>
      <trkpt lat="45.872697690501809" lon="7.73103129118681">
        <ele>1946.3299999999999</ele>
        <time>2015-01-11T13:00:43Z</time>
      </trkpt>
      <trkpt lat="45.872679334133863" lon="7.731043361127377">
        <ele>1946.3299999999999</ele>
        <time>2015-01-11T13:01:06Z</time>
      </trkpt>
      <trkpt lat="45.872687883675098" lon="7.731010671705008">
        <ele>1945.8499999999999</ele>
        <time>2015-01-11T13:01:31Z</time>
      </trkpt>
      <trkpt lat="45.872701294720173" lon="7.731025591492653">
        <ele>1946.8099999999999</ele>
        <time>2015-01-11T13:01:49Z</time>
      </trkpt>
      <trkpt lat="45.872717974707484" lon="7.731009917333722">
        <ele>1946.3299999999999</ele>
        <time>2015-01-11T13:02:05Z</time>
      </trkpt>
      <trkpt lat="45.872711604461074" lon="7.731004972010851">
        <ele>1944.8800000000001</ele>
        <time>2015-01-11T13:02:27Z</time>
      </trkpt>
      <trkpt lat="45.87267623282969" lon="7.731026262044907">
        <ele>1943.4400000000001</ele>
        <time>2015-01-11T13:02:43Z</time>
      </trkpt>
      <trkpt lat="45.872556287795305" lon="7.730993991717696">
        <ele>1940.5599999999999</ele>
        <time>2015-01-11T13:02:59Z</time>
      </trkpt>
      <trkpt lat="45.872481437399983" lon="7.730925595387816">
        <ele>1938.1600000000001</ele>
        <time>2015-01-11T13:03:11Z</time>
      </trkpt>
      <trkpt lat="45.872394181787968" lon="7.730884859338403">
        <ele>1935.75</ele>
        <time>2015-01-11T13:03:24Z</time>
      </trkpt>
      <trkpt lat="45.872329724952579" lon="7.730780253186822">
        <ele>1934.3099999999999</ele>
        <time>2015-01-11T13:03:35Z</time>
      </trkpt>
      <trkpt lat="45.872310278937221" lon="7.730749323964119">
        <ele>1933.3499999999999</ele>
        <time>2015-01-11T13:03:39Z</time>
      </trkpt>
      <trkpt lat="45.872270381078124" lon="7.730610854923725">
        <ele>1929.5</ele>
        <time>2015-01-11T13:03:51Z</time>
      </trkpt>
      <trkpt lat="45.87218907661736" lon="7.730530891567469">
        <ele>1926.6199999999999</ele>
        <time>2015-01-11T13:04:03Z</time>
      </trkpt>
      <trkpt lat="45.872170636430383" lon="7.730511613190174">
        <ele>1926.6199999999999</ele>
        <time>2015-01-11T13:04:06Z</time>
      </trkpt>
      <trkpt lat="45.872113723307848" lon="7.730443719774485">
        <ele>1922.77</ele>
        <time>2015-01-11T13:04:17Z</time>
      </trkpt>
      <trkpt lat="45.872073657810688" lon="7.730433493852615">
        <ele>1921.3299999999999</ele>
        <time>2015-01-11T13:04:23Z</time>
      </trkpt>
      <trkpt lat="45.871997717767954" lon="7.730348920449615">
        <ele>1917.97</ele>
        <time>2015-01-11T13:04:35Z</time>
      </trkpt>
      <trkpt lat="45.871933428570628" lon="7.730296365916729">
        <ele>1916.53</ele>
        <time>2015-01-11T13:04:44Z</time>
      </trkpt>
      <trkpt lat="45.871885903179646" lon="7.730264430865645">
        <ele>1915.0799999999999</ele>
        <time>2015-01-11T13:04:50Z</time>
      </trkpt>
      <trkpt lat="45.871858829632401" lon="7.730246158316732">
        <ele>1915.0799999999999</ele>
        <time>2015-01-11T13:04:54Z</time>
      </trkpt>
      <trkpt lat="45.871757660061121" lon="7.730207685381174">
        <ele>1912.2</ele>
        <time>2015-01-11T13:05:07Z</time>
      </trkpt>
      <trkpt lat="45.871677529066801" lon="7.730198632925749">
        <ele>1911.24</ele>
        <time>2015-01-11T13:05:17Z</time>
      </trkpt>
      <trkpt lat="45.871606785804033" lon="7.730184132233262">
        <ele>1910.28</ele>
        <time>2015-01-11T13:05:24Z</time>
      </trkpt>
      <trkpt lat="45.871557164937258" lon="7.730128644034267">
        <ele>1908.8299999999999</ele>
        <time>2015-01-11T13:05:31Z</time>
      </trkpt>
      <trkpt lat="45.871450966224074" lon="7.730070222169161">
        <ele>1906.9100000000001</ele>
        <time>2015-01-11T13:05:43Z</time>
      </trkpt>
      <trkpt lat="45.871403776109219" lon="7.730032503604889">
        <ele>1905.47</ele>
        <time>2015-01-11T13:05:48Z</time>
      </trkpt>
      <trkpt lat="45.871375696733594" lon="7.730032671242952">
        <ele>1905.47</ele>
        <time>2015-01-11T13:05:51Z</time>
      </trkpt>
      <trkpt lat="45.871342001482844" lon="7.730058236047626">
        <ele>1906.4300000000001</ele>
        <time>2015-01-11T13:05:56Z</time>
      </trkpt>
      <trkpt lat="45.871289698407054" lon="7.729927645996213">
        <ele>1906.4300000000001</ele>
        <time>2015-01-11T13:06:08Z</time>
      </trkpt>
      <trkpt lat="45.87127435952425" lon="7.729917671531439">
        <ele>1905.95</ele>
        <time>2015-01-11T13:06:10Z</time>
      </trkpt>
      <trkpt lat="45.871159443631768" lon="7.729825135320425">
        <ele>1904.99</ele>
        <time>2015-01-11T13:06:23Z</time>
      </trkpt>
      <trkpt lat="45.871159443631768" lon="7.729816669598222">
        <ele>1904.99</ele>
        <time>2015-01-11T13:06:34Z</time>
      </trkpt>
      <trkpt lat="45.871167993173003" lon="7.729819435626268">
        <ele>1904.99</ele>
        <time>2015-01-11T13:06:55Z</time>
      </trkpt>
      <trkpt lat="45.871176207438111" lon="7.729816753417254">
        <ele>1903.55</ele>
        <time>2015-01-11T13:07:09Z</time>
      </trkpt>
      <trkpt lat="45.871166652068496" lon="7.729806611314416">
        <ele>1903.55</ele>
        <time>2015-01-11T13:07:25Z</time>
      </trkpt>
      <trkpt lat="45.87115366011858" lon="7.729773167520762">
        <ele>1901.6300000000001</ele>
        <time>2015-01-11T13:07:45Z</time>
      </trkpt>
      <trkpt lat="45.871148966252804" lon="7.729800492525101">
        <ele>1902.1099999999999</ele>
        <time>2015-01-11T13:08:03Z</time>
      </trkpt>
      <trkpt lat="45.871113510802388" lon="7.729788925498724">
        <ele>1901.6300000000001</ele>
        <time>2015-01-11T13:08:18Z</time>
      </trkpt>
      <trkpt lat="45.871143015101552" lon="7.729783393442631">
        <ele>1902.5899999999999</ele>
        <time>2015-01-11T13:08:37Z</time>
      </trkpt>
      <trkpt lat="45.871123904362321" lon="7.729786913841963">
        <ele>1906.4300000000001</ele>
        <time>2015-01-11T13:08:52Z</time>
      </trkpt>
      <trkpt lat="45.871127508580685" lon="7.72978825494647">
        <ele>1908.8299999999999</ele>
        <time>2015-01-11T13:08:57Z</time>
      </trkpt>
      <trkpt lat="45.871115773916245" lon="7.729795211926103">
        <ele>1909.3199999999999</ele>
        <time>2015-01-11T13:09:15Z</time>
      </trkpt>
      <trkpt lat="45.871118037030101" lon="7.729779286310077">
        <ele>1906.4300000000001</ele>
        <time>2015-01-11T13:09:25Z</time>
      </trkpt>
      <trkpt lat="45.871121138334274" lon="7.729763863608241">
        <ele>1903.55</ele>
        <time>2015-01-11T13:09:34Z</time>
      </trkpt>
      <trkpt lat="45.871123736724257" lon="7.729757996276021">
        <ele>1902.5899999999999</ele>
        <time>2015-01-11T13:09:36Z</time>
      </trkpt>
      <trkpt lat="45.871117953211069" lon="7.729770066216588">
        <ele>1900.6600000000001</ele>
        <time>2015-01-11T13:09:54Z</time>
      </trkpt>
      <trkpt lat="45.871119545772672" lon="7.729792445898056">
        <ele>1902.1099999999999</ele>
        <time>2015-01-11T13:09:57Z</time>
      </trkpt>
      <trkpt lat="45.871049975976348" lon="7.729764031246305">
        <ele>1900.6600000000001</ele>
        <time>2015-01-11T13:10:07Z</time>
      </trkpt>
      <trkpt lat="45.871039498597383" lon="7.729730000719428">
        <ele>1900.6600000000001</ele>
        <time>2015-01-11T13:10:11Z</time>
      </trkpt>
      <trkpt lat="45.871032793074846" lon="7.729704100638628">
        <ele>1902.1099999999999</ele>
        <time>2015-01-11T13:10:13Z</time>
      </trkpt>
      <trkpt lat="45.870974790304899" lon="7.72961282171309">
        <ele>1898.74</ele>
        <time>2015-01-11T13:10:21Z</time>
      </trkpt>
      <trkpt lat="45.870943777263165" lon="7.729597315192223">
        <ele>1897.3</ele>
        <time>2015-01-11T13:10:24Z</time>
      </trkpt>
      <trkpt lat="45.870933048427105" lon="7.729593040421605">
        <ele>1897.3</ele>
        <time>2015-01-11T13:10:25Z</time>
      </trkpt>
      <trkpt lat="45.870856940746307" lon="7.729521291330457">
        <ele>1896.8199999999999</ele>
        <time>2015-01-11T13:10:34Z</time>
      </trkpt>
      <trkpt lat="45.870804972946644" lon="7.729472424834967">
        <ele>1893.9300000000001</ele>
        <time>2015-01-11T13:10:39Z</time>
      </trkpt>
      <trkpt lat="45.870748143643141" lon="7.729439064860344">
        <ele>1892.49</ele>
        <time>2015-01-11T13:10:45Z</time>
      </trkpt>
      <trkpt lat="45.870677065104246" lon="7.729388186708093">
        <ele>1890.5699999999999</ele>
        <time>2015-01-11T13:10:52Z</time>
      </trkpt>
      <trkpt lat="45.87060883641243" lon="7.729350551962853">
        <ele>1890.0899999999999</ele>
        <time>2015-01-11T13:10:59Z</time>
      </trkpt>
      <trkpt lat="45.870538428425789" lon="7.729298835620284">
        <ele>1891.05</ele>
        <time>2015-01-11T13:11:06Z</time>
      </trkpt>
      <trkpt lat="45.87044614367187" lon="7.729193391278386">
        <ele>1892.49</ele>
        <time>2015-01-11T13:11:18Z</time>
      </trkpt>
      <trkpt lat="45.870418818667531" lon="7.729163384065032">
        <ele>1891.53</ele>
        <time>2015-01-11T13:11:23Z</time>
      </trkpt>
      <trkpt lat="45.870395852252841" lon="7.729180650785565">
        <ele>1889.6099999999999</ele>
        <time>2015-01-11T13:11:26Z</time>
      </trkpt>
      <trkpt lat="45.870345225557685" lon="7.729149553924799">
        <ele>1887.21</ele>
        <time>2015-01-11T13:11:34Z</time>
      </trkpt>
      <trkpt lat="45.87033667601645" lon="7.729150643572211">
        <ele>1887.21</ele>
        <time>2015-01-11T13:11:35Z</time>
      </trkpt>
      <trkpt lat="45.870294934138656" lon="7.729118205606937">
        <ele>1883.3599999999999</ele>
        <time>2015-01-11T13:11:40Z</time>
      </trkpt>
      <trkpt lat="45.870205331593752" lon="7.729106722399592">
        <ele>1882.4000000000001</ele>
        <time>2015-01-11T13:11:52Z</time>
      </trkpt>
      <trkpt lat="45.870186137035489" lon="7.729108314961195">
        <ele>1880.48</ele>
        <time>2015-01-11T13:11:55Z</time>
      </trkpt>
      <trkpt lat="45.870132241398096" lon="7.729085935279727">
        <ele>1880</ele>
        <time>2015-01-11T13:12:04Z</time>
      </trkpt>
      <trkpt lat="45.870105670765042" lon="7.729118457064033">
        <ele>1880</ele>
        <time>2015-01-11T13:12:10Z</time>
      </trkpt>
      <trkpt lat="45.870076166465878" lon="7.729134969413281">
        <ele>1878.55</ele>
        <time>2015-01-11T13:12:20Z</time>
      </trkpt>
      <trkpt lat="45.870074406266212" lon="7.729136981070042">
        <ele>1878.0699999999999</ele>
        <time>2015-01-11T13:12:21Z</time>
      </trkpt>
      <trkpt lat="45.870032161474228" lon="7.729109991341829">
        <ele>1876.1500000000001</ele>
        <time>2015-01-11T13:12:28Z</time>
      </trkpt>
      <trkpt lat="45.869967453181744" lon="7.729075793176889">
        <ele>1874.71</ele>
        <time>2015-01-11T13:12:40Z</time>
      </trkpt>
      <trkpt lat="45.869882460683584" lon="7.729046540334821">
        <ele>1872.3</ele>
        <time>2015-01-11T13:12:51Z</time>
      </trkpt>
      <trkpt lat="45.869863601401448" lon="7.729026088491082">
        <ele>1871.8199999999999</ele>
        <time>2015-01-11T13:12:54Z</time>
      </trkpt>
      <trkpt lat="45.869781458750367" lon="7.728975294157863">
        <ele>1868.9400000000001</ele>
        <time>2015-01-11T13:13:06Z</time>
      </trkpt>
      <trkpt lat="45.869761426001787" lon="7.729066321626306">
        <ele>1866.0599999999999</ele>
        <time>2015-01-11T13:13:16Z</time>
      </trkpt>
      <trkpt lat="45.869647264480591" lon="7.72904553450644">
        <ele>1863.6500000000001</ele>
        <time>2015-01-11T13:13:31Z</time>
      </trkpt>
      <trkpt lat="45.869640139862895" lon="7.729124994948506">
        <ele>1862.6900000000001</ele>
        <time>2015-01-11T13:13:38Z</time>
      </trkpt>
      <trkpt lat="45.86965698748827" lon="7.729219542816281">
        <ele>1861.73</ele>
        <time>2015-01-11T13:13:43Z</time>
      </trkpt>
      <trkpt lat="45.869655562564731" lon="7.729231864213944">
        <ele>1861.25</ele>
        <time>2015-01-11T13:13:44Z</time>
      </trkpt>
      <trkpt lat="45.869587501510978" lon="7.72943738847971">
        <ele>1859.8099999999999</ele>
        <time>2015-01-11T13:13:59Z</time>
      </trkpt>
      <trkpt lat="45.869529331102967" lon="7.729499246925116">
        <ele>1858.8499999999999</ele>
        <time>2015-01-11T13:14:11Z</time>
      </trkpt>
      <trkpt lat="45.869515752419829" lon="7.72949798963964">
        <ele>1857.8900000000001</ele>
        <time>2015-01-11T13:14:13Z</time>
      </trkpt>
      <trkpt lat="45.869437633082271" lon="7.729594213888049">
        <ele>1855</ele>
        <time>2015-01-11T13:14:26Z</time>
      </trkpt>
      <trkpt lat="45.869377702474594" lon="7.729672249406576">
        <ele>1852.5999999999999</ele>
        <time>2015-01-11T13:14:38Z</time>
      </trkpt>
      <trkpt lat="45.869270665571094" lon="7.729705274105072">
        <ele>1849.71</ele>
        <time>2015-01-11T13:14:51Z</time>
      </trkpt>
      <trkpt lat="45.869209477677941" lon="7.729725306853652">
        <ele>1848.27</ele>
        <time>2015-01-11T13:15:00Z</time>
      </trkpt>
      <trkpt lat="45.869151642546058" lon="7.729704435914755">
        <ele>1847.3099999999999</ele>
        <time>2015-01-11T13:15:06Z</time>
      </trkpt>
      <trkpt lat="45.869059106335044" lon="7.729713572189212">
        <ele>1843.95</ele>
        <time>2015-01-11T13:15:16Z</time>
      </trkpt>
      <trkpt lat="45.869044354185462" lon="7.729741400107741">
        <ele>1846.8299999999999</ele>
        <time>2015-01-11T13:15:21Z</time>
      </trkpt>
      <trkpt lat="45.869049718603492" lon="7.729769814759493">
        <ele>1845.8699999999999</ele>
        <time>2015-01-11T13:15:24Z</time>
      </trkpt>
      <trkpt lat="45.86903739720583" lon="7.729822034016252">
        <ele>1842.5</ele>
        <time>2015-01-11T13:15:28Z</time>
      </trkpt>
      <trkpt lat="45.868983753025532" lon="7.729878695681691">
        <ele>1838.6600000000001</ele>
        <time>2015-01-11T13:15:38Z</time>
      </trkpt>
      <trkpt lat="45.868981825187802" lon="7.729890597984195">
        <ele>1838.6600000000001</ele>
        <time>2015-01-11T13:15:39Z</time>
      </trkpt>
      <trkpt lat="45.868903119117022" lon="7.729928065091372">
        <ele>1837.22</ele>
        <time>2015-01-11T13:15:51Z</time>
      </trkpt>
      <trkpt lat="45.868870262056589" lon="7.730025043711066">
        <ele>1836.26</ele>
        <time>2015-01-11T13:16:03Z</time>
      </trkpt>
      <trkpt lat="45.868741264566779" lon="7.730015739798546">
        <ele>1835.29</ele>
        <time>2015-01-11T13:16:19Z</time>
      </trkpt>
      <trkpt lat="45.868624588474631" lon="7.73005111142993">
        <ele>1835.77</ele>
        <time>2015-01-11T13:16:32Z</time>
      </trkpt>
      <trkpt lat="45.868579158559442" lon="7.729986570775509">
        <ele>1833.8499999999999</ele>
        <time>2015-01-11T13:16:44Z</time>
      </trkpt>
      <trkpt lat="45.86861427873373" lon="7.72988892160356">
        <ele>1830.49</ele>
        <time>2015-01-11T13:16:54Z</time>
      </trkpt>
      <trkpt lat="45.868602627888322" lon="7.729823207482696">
        <ele>1829.05</ele>
        <time>2015-01-11T13:17:00Z</time>
      </trkpt>
      <trkpt lat="45.868546972051263" lon="7.729694209992886">
        <ele>1825.6800000000001</ele>
        <time>2015-01-11T13:17:13Z</time>
      </trkpt>
      <trkpt lat="45.868498273193836" lon="7.729628244414926">
        <ele>1822.8</ele>
        <time>2015-01-11T13:17:23Z</time>
      </trkpt>
      <trkpt lat="45.868489388376474" lon="7.72965045645833">
        <ele>1822.3199999999999</ele>
        <time>2015-01-11T13:17:25Z</time>
      </trkpt>
      <trkpt lat="45.868463320657611" lon="7.729771323502064">
        <ele>1820.3900000000001</ele>
        <time>2015-01-11T13:17:36Z</time>
      </trkpt>
      <trkpt lat="45.86845401674509" lon="7.729777526110411">
        <ele>1820.3900000000001</ele>
        <time>2015-01-11T13:17:37Z</time>
      </trkpt>
      <trkpt lat="45.868342537432909" lon="7.729801330715418">
        <ele>1817.03</ele>
        <time>2015-01-11T13:17:49Z</time>
      </trkpt>
      <trkpt lat="45.868264166638255" lon="7.729800241068006">
        <ele>1813.6600000000001</ele>
        <time>2015-01-11T13:18:03Z</time>
      </trkpt>
      <trkpt lat="45.868230639025569" lon="7.729742489755154">
        <ele>1811.26</ele>
        <time>2015-01-11T13:18:13Z</time>
      </trkpt>
      <trkpt lat="45.86821504868567" lon="7.729606116190553">
        <ele>1807.9000000000001</ele>
        <time>2015-01-11T13:18:25Z</time>
      </trkpt>
      <trkpt lat="45.868172384798527" lon="7.729500252753496">
        <ele>1805.01</ele>
        <time>2015-01-11T13:18:36Z</time>
      </trkpt>
      <trkpt lat="45.868150591850281" lon="7.729470580816269">
        <ele>1803.5699999999999</ele>
        <time>2015-01-11T13:18:40Z</time>
      </trkpt>
      <trkpt lat="45.868125362321734" lon="7.729430180042982">
        <ele>1802.1300000000001</ele>
        <time>2015-01-11T13:18:44Z</time>
      </trkpt>
      <trkpt lat="45.868038693442941" lon="7.729436298832297">
        <ele>1799.24</ele>
        <time>2015-01-11T13:18:57Z</time>
      </trkpt>
      <trkpt lat="45.867987982928753" lon="7.729487763717771">
        <ele>1796.8399999999999</ele>
        <time>2015-01-11T13:19:04Z</time>
      </trkpt>
      <trkpt lat="45.867939032614231" lon="7.729487847536802">
        <ele>1794.9200000000001</ele>
        <time>2015-01-11T13:19:08Z</time>
      </trkpt>
      <trkpt lat="45.86791112087667" lon="7.729490278288722">
        <ele>1793.48</ele>
        <time>2015-01-11T13:19:11Z</time>
      </trkpt>
      <trkpt lat="45.867883544415236" lon="7.729488350450993">
        <ele>1792.03</ele>
        <time>2015-01-11T13:19:14Z</time>
      </trkpt>
      <trkpt lat="45.867790170013905" lon="7.729474687948823">
        <ele>1789.1500000000001</ele>
        <time>2015-01-11T13:19:24Z</time>
      </trkpt>
      <trkpt lat="45.867716828361154" lon="7.729402268305421">
        <ele>1785.79</ele>
        <time>2015-01-11T13:19:34Z</time>
      </trkpt>
      <trkpt lat="45.867711715400219" lon="7.729392796754837">
        <ele>1785.3099999999999</ele>
        <time>2015-01-11T13:19:35Z</time>
      </trkpt>
      <trkpt lat="45.867641810327768" lon="7.729378547519445">
        <ele>1782.4200000000001</ele>
        <time>2015-01-11T13:19:42Z</time>
      </trkpt>
      <trkpt lat="45.867620771750808" lon="7.72937142290175">
        <ele>1781.46</ele>
        <time>2015-01-11T13:19:44Z</time>
      </trkpt>
      <trkpt lat="45.867602080106735" lon="7.729295818135142">
        <ele>1779.0599999999999</ele>
        <time>2015-01-11T13:19:49Z</time>
      </trkpt>
      <trkpt lat="45.867566037923098" lon="7.729065399616957">
        <ele>1775.6900000000001</ele>
        <time>2015-01-11T13:20:04Z</time>
      </trkpt>
      <trkpt lat="45.867552710697055" lon="7.729014353826642">
        <ele>1773.77</ele>
        <time>2015-01-11T13:20:08Z</time>
      </trkpt>
      <trkpt lat="45.867485404014587" lon="7.728821653872728">
        <ele>1771.3699999999999</ele>
        <time>2015-01-11T13:20:23Z</time>
      </trkpt>
      <trkpt lat="45.867475429549813" lon="7.728803213685751">
        <ele>1770.4100000000001</ele>
        <time>2015-01-11T13:20:25Z</time>
      </trkpt>
      <trkpt lat="45.867369482293725" lon="7.728695003315806">
        <ele>1768.96</ele>
        <time>2015-01-11T13:20:37Z</time>
      </trkpt>
      <trkpt lat="45.867345593869686" lon="7.728702966123819">
        <ele>1768</ele>
        <time>2015-01-11T13:20:42Z</time>
      </trkpt>
      <trkpt lat="45.867260601371527" lon="7.728733057156205">
        <ele>1764.6400000000001</ele>
        <time>2015-01-11T13:20:55Z</time>
      </trkpt>
      <trkpt lat="45.867215087637305" lon="7.728752084076405">
        <ele>1762.23</ele>
        <time>2015-01-11T13:21:05Z</time>
      </trkpt>
      <trkpt lat="45.867179799824953" lon="7.728762309998274">
        <ele>1760.79</ele>
        <time>2015-01-11T13:21:10Z</time>
      </trkpt>
      <trkpt lat="45.867118863388896" lon="7.728784857317805">
        <ele>1757.4300000000001</ele>
        <time>2015-01-11T13:21:21Z</time>
      </trkpt>
      <trkpt lat="45.867067649960518" lon="7.728847386315465">
        <ele>1754.0599999999999</ele>
        <time>2015-01-11T13:21:32Z</time>
      </trkpt>
      <trkpt lat="45.866965809836984" lon="7.728842105716467">
        <ele>1751.1800000000001</ele>
        <time>2015-01-11T13:21:43Z</time>
      </trkpt>
      <trkpt lat="45.866863718256354" lon="7.728821905329824">
        <ele>1747.8099999999999</ele>
        <time>2015-01-11T13:21:55Z</time>
      </trkpt>
      <trkpt lat="45.866799177601933" lon="7.728812685236335">
        <ele>1746.3699999999999</ele>
        <time>2015-01-11T13:22:02Z</time>
      </trkpt>
      <trkpt lat="45.866674287244678" lon="7.728792987763882">
        <ele>1743.49</ele>
        <time>2015-01-11T13:22:15Z</time>
      </trkpt>
      <trkpt lat="45.866574123501778" lon="7.728771697729826">
        <ele>1741.5699999999999</ele>
        <time>2015-01-11T13:22:27Z</time>
      </trkpt>
      <trkpt lat="45.86650581099093" lon="7.728834142908454">
        <ele>1738.2</ele>
        <time>2015-01-11T13:22:35Z</time>
      </trkpt>
      <trkpt lat="45.866454765200615" lon="7.728851828724146">
        <ele>1735.8</ele>
        <time>2015-01-11T13:22:39Z</time>
      </trkpt>
      <trkpt lat="45.866437163203955" lon="7.728808997198939">
        <ele>1734.8399999999999</ele>
        <time>2015-01-11T13:22:50Z</time>
      </trkpt>
      <trkpt lat="45.86643548682332" lon="7.728847470134497">
        <ele>1734.3599999999999</ele>
        <time>2015-01-11T13:23:04Z</time>
      </trkpt>
      <trkpt lat="45.866451831534505" lon="7.728853924199939">
        <ele>1736.28</ele>
        <time>2015-01-11T13:23:24Z</time>
      </trkpt>
      <trkpt lat="45.866439091041684" lon="7.728846967220306">
        <ele>1738.2</ele>
        <time>2015-01-11T13:23:42Z</time>
      </trkpt>
      <trkpt lat="45.866437666118145" lon="7.7288265991956">
        <ele>1737.24</ele>
        <time>2015-01-11T13:24:04Z</time>
      </trkpt>
      <trkpt lat="45.866433056071401" lon="7.728857360780239">
        <ele>1737.24</ele>
        <time>2015-01-11T13:24:21Z</time>
      </trkpt>
      <trkpt lat="45.866430709138513" lon="7.728837495669723">
        <ele>1736.76</ele>
        <time>2015-01-11T13:24:39Z</time>
      </trkpt>
      <trkpt lat="45.866430373862386" lon="7.728813942521811">
        <ele>1736.28</ele>
        <time>2015-01-11T13:24:56Z</time>
      </trkpt>
      <trkpt lat="45.86642375215888" lon="7.728868257254362">
        <ele>1736.28</ele>
        <time>2015-01-11T13:25:14Z</time>
      </trkpt>
      <trkpt lat="45.866421489045024" lon="7.728871777653694">
        <ele>1736.28</ele>
        <time>2015-01-11T13:25:15Z</time>
      </trkpt>
      <trkpt lat="45.86641151458025" lon="7.728925254195929">
        <ele>1736.28</ele>
        <time>2015-01-11T13:25:20Z</time>
      </trkpt>
      <trkpt lat="45.866392152383924" lon="7.7289301995188">
        <ele>1735.8</ele>
        <time>2015-01-11T13:25:22Z</time>
      </trkpt>
      <trkpt lat="45.866355188190937" lon="7.728987196460366">
        <ele>1735.3199999999999</ele>
        <time>2015-01-11T13:25:34Z</time>
      </trkpt>
      <trkpt lat="45.866328785195947" lon="7.728976551443338">
        <ele>1735.8</ele>
        <time>2015-01-11T13:25:57Z</time>
      </trkpt>
      <trkpt lat="45.866358708590269" lon="7.729017790406942">
        <ele>1735.3199999999999</ele>
        <time>2015-01-11T13:26:27Z</time>
      </trkpt>
      <trkpt lat="45.866378657519817" lon="7.72902499884367">
        <ele>1738.2</ele>
        <time>2015-01-11T13:26:53Z</time>
      </trkpt>
      <trkpt lat="45.86634554900229" lon="7.728990633040667">
        <ele>1738.6800000000001</ele>
        <time>2015-01-11T13:27:19Z</time>
      </trkpt>
      <trkpt lat="45.86635091342032" lon="7.729000523686409">
        <ele>1739.6400000000001</ele>
        <time>2015-01-11T13:27:36Z</time>
      </trkpt>
      <trkpt lat="45.866348398849368" lon="7.729002451524139">
        <ele>1740.1199999999999</ele>
        <time>2015-01-11T13:28:07Z</time>
      </trkpt>
      <trkpt lat="45.866347728297114" lon="7.729016449302435">
        <ele>1740.1199999999999</ele>
        <time>2015-01-11T13:28:32Z</time>
      </trkpt>
      <trkpt lat="45.86633238941431" lon="7.728994991630316">
        <ele>1738.6800000000001</ele>
        <time>2015-01-11T13:28:59Z</time>
      </trkpt>
      <trkpt lat="45.86633088067174" lon="7.729031536728144">
        <ele>1737.72</ele>
        <time>2015-01-11T13:29:22Z</time>
      </trkpt>
      <trkpt lat="45.866332724690437" lon="7.729037739336491">
        <ele>1737.72</ele>
        <time>2015-01-11T13:29:29Z</time>
      </trkpt>
      <trkpt lat="45.866329623386264" lon="7.72901963442564">
        <ele>1737.24</ele>
        <time>2015-01-11T13:29:37Z</time>
      </trkpt>
      <trkpt lat="45.866307159885764" lon="7.729015192016959">
        <ele>1735.8</ele>
        <time>2015-01-11T13:29:51Z</time>
      </trkpt>
      <trkpt lat="45.866295592859387" lon="7.729035979136825">
        <ele>1734.3599999999999</ele>
        <time>2015-01-11T13:30:10Z</time>
      </trkpt>
      <trkpt lat="45.866302633658051" lon="7.729043690487742">
        <ele>1735.8</ele>
        <time>2015-01-11T13:30:29Z</time>
      </trkpt>
      <trkpt lat="45.866320822387934" lon="7.729036901146174">
        <ele>1737.24</ele>
        <time>2015-01-11T13:30:43Z</time>
      </trkpt>
      <trkpt lat="45.866305315867066" lon="7.729043858125806">
        <ele>1738.2</ele>
        <time>2015-01-11T13:30:57Z</time>
      </trkpt>
      <trkpt lat="45.866297353059053" lon="7.729042265564203">
        <ele>1738.6800000000001</ele>
        <time>2015-01-11T13:31:15Z</time>
      </trkpt>
      <trkpt lat="45.866294670850039" lon="7.729037571698427">
        <ele>1738.6800000000001</ele>
        <time>2015-01-11T13:31:31Z</time>
      </trkpt>
      <trkpt lat="45.86631135083735" lon="7.729018293321133">
        <ele>1739.1600000000001</ele>
        <time>2015-01-11T13:31:46Z</time>
      </trkpt>
      <trkpt lat="45.866249240934849" lon="7.729056933894754">
        <ele>1740.1199999999999</ele>
        <time>2015-01-11T13:31:58Z</time>
      </trkpt>
      <trkpt lat="45.866222670301795" lon="7.72906850092113">
        <ele>1740.1199999999999</ele>
        <time>2015-01-11T13:32:02Z</time>
      </trkpt>
      <trkpt lat="45.866161398589611" lon="7.729087863117456">
        <ele>1740.5999999999999</ele>
        <time>2015-01-11T13:32:13Z</time>
      </trkpt>
      <trkpt lat="45.866076070815325" lon="7.729142680764198">
        <ele>1739.6400000000001</ele>
        <time>2015-01-11T13:32:25Z</time>
      </trkpt>
      <trkpt lat="45.865948330610991" lon="7.729145949706435">
        <ele>1739.1600000000001</ele>
        <time>2015-01-11T13:32:38Z</time>
      </trkpt>
      <trkpt lat="45.865891501307487" lon="7.729150392115116">
        <ele>1740.1199999999999</ele>
        <time>2015-01-11T13:32:43Z</time>
      </trkpt>
      <trkpt lat="45.86575043387711" lon="7.729119462892413">
        <ele>1739.1600000000001</ele>
        <time>2015-01-11T13:32:56Z</time>
      </trkpt>
      <trkpt lat="45.865599978715181" lon="7.729245526716113">
        <ele>1735.3199999999999</ele>
        <time>2015-01-11T13:33:14Z</time>
      </trkpt>
      <trkpt lat="45.86547140032053" lon="7.729373686015606">
        <ele>1733.3900000000001</ele>
        <time>2015-01-11T13:33:30Z</time>
      </trkpt>
      <trkpt lat="45.865344665944576" lon="7.729477705433965">
        <ele>1732.9100000000001</ele>
        <time>2015-01-11T13:33:44Z</time>
      </trkpt>
      <trkpt lat="45.865222457796335" lon="7.729594884440303">
        <ele>1730.99</ele>
        <time>2015-01-11T13:33:58Z</time>
      </trkpt>
      <trkpt lat="45.865175016224384" lon="7.7296641189605">
        <ele>1728.1099999999999</ele>
        <time>2015-01-11T13:34:04Z</time>
      </trkpt>
      <trkpt lat="45.865086587145925" lon="7.729825219139457">
        <ele>1726.1800000000001</ele>
        <time>2015-01-11T13:34:18Z</time>
      </trkpt>
      <trkpt lat="45.865049036219716" lon="7.72988841868937">
        <ele>1724.26</ele>
        <time>2015-01-11T13:34:23Z</time>
      </trkpt>
      <trkpt lat="45.865016430616379" lon="7.729958323761821">
        <ele>1721.8599999999999</ele>
        <time>2015-01-11T13:34:29Z</time>
      </trkpt>
      <trkpt lat="45.864913584664464" lon="7.730135265737772">
        <ele>1718.49</ele>
        <time>2015-01-11T13:34:46Z</time>
      </trkpt>
      <trkpt lat="45.864813504740596" lon="7.730240793898702">
        <ele>1717.05</ele>
        <time>2015-01-11T13:34:59Z</time>
      </trkpt>
      <trkpt lat="45.864662881940603" lon="7.730378760024905">
        <ele>1714.6500000000001</ele>
        <time>2015-01-11T13:35:15Z</time>
      </trkpt>
      <trkpt lat="45.864544780924916" lon="7.730500381439924">
        <ele>1713.21</ele>
        <time>2015-01-11T13:35:29Z</time>
      </trkpt>
      <trkpt lat="45.864510415121913" lon="7.730506248772144">
        <ele>1709.8399999999999</ele>
        <time>2015-01-11T13:35:42Z</time>
      </trkpt>
      <trkpt lat="45.864510582759976" lon="7.730498788878322">
        <ele>1715.1300000000001</ele>
        <time>2015-01-11T13:35:45Z</time>
      </trkpt>
      <trkpt lat="45.864507900550961" lon="7.730497280135751">
        <ele>1709.3599999999999</ele>
        <time>2015-01-11T13:35:46Z</time>
      </trkpt>
      <trkpt lat="45.864506056532264" lon="7.730494430288672">
        <ele>1712.25</ele>
        <time>2015-01-11T13:35:48Z</time>
      </trkpt>
      <trkpt lat="45.864506727084517" lon="7.730497112497687">
        <ele>1717.05</ele>
        <time>2015-01-11T13:35:49Z</time>
      </trkpt>
      <trkpt lat="45.864506727084517" lon="7.730501219630241">
        <ele>1717.05</ele>
        <time>2015-01-11T13:35:50Z</time>
      </trkpt>
    </trkseg>
  </trk>

</gpx>